[[{"header":{"parameterUnit":"m.s-1","parameterCategory":1,"la1":30.6,"la2":28.766,"lo1":-90.7593,"lo2":-88.6598,"dy":0.0162,"dx":0.0183,"nx":116,"ny":114,"refTime":"2023-03-18T18:00:00:Z","depth":0,"parameterNumber":2,"parameterNumberName":"U-component_of_WINDS"},"data":[0.0,0.0,0.0,0.0,0.0,0.0,0.0,0.0,0.0,0.0,0.0,0.0,0.0,0.0,0.0,0.0,0.0,0.0,0.0,0.0,0.0,0.0,0.0,0.0,0.0,0.0,0.0,0.0,0.0,0.0,0.0,0.0,0.0,0.0,0.0,0.0,0.0,0.0,0.0,0.0,0.0,0.0,0.0,0.0,0.0,0.0,0.0,0.0,0.0,0.0,0.0,0.0,0.0,0.0,0.0,0.0,0.0,0.0,0.0,0.0,0.0,0.0,0.0,0.0,0.0,0.0,0.0,0.0,0.0,0.0,0.0,0.0,0.0,0.0,0.0,0.0,0.0,0.0,0.0,0.0,0.0,0.0,0.0,0.0,0.0,0.0,0.0,0.0,0.0,0.0,0.0,0.0,0.0,0.0,0.0,0.0,0.0,0.0,0.0,0.0,0.0,0.0,0.0,0.0,0.0,0.0,0.0,0.0,0.0,0.0,0.0,0.0,0.0,0.0,0.0,0.0,0.0,0.0,0.0,0.0,0.0,0.0,0.0,0.0,0.0,0.0,0.0,0.0,0.0,0.0,0.0,0.0,0.0,0.0,0.0,0.0,0.0,0.0,0.0,0.0,0.0,0.0,0.0,0.0,0.0,0.0,0.0,0.0,0.0,0.0,0.0,0.0,0.0,0.0,0.0,0.0,0.0,0.0,0.0,0.0,0.0,0.0,0.0,0.0,0.0,0.0,0.0,0.0,0.0,0.0,0.0,0.0,0.0,0.0,0.0,0.0,0.0,0.0,0.0,0.0,0.0,0.0,0.0,0.0,0.0,0.0,0.0,0.0,0.0,0.0,0.0,0.0,0.0,0.0,0.0,0.0,0.0,0.0,0.0,0.0,0.0,0.0,0.0,0.0,0.0,0.0,0.0,0.0,0.0,0.0,0.0,0.0,0.0,0.0,0.0,0.0,0.0,0.0,0.0,0.0,0.0,0.0,0.0,0.0,0.0,0.0,0.0,0.0,0.0,0.0,0.0,0.0,0.0,0.0,0.0,0.0,0.0,0.0,0.0,0.0,0.0,0.0,0.0,0.0,0.0,0.0,0.0,0.0,0.0,0.0,0.0,0.0,0.0,0.0,0.0,0.0,0.0,0.0,0.0,0.0,0.0,0.0,0.0,0.0,0.0,0.0,0.0,0.0,0.0,0.0,0.0,0.0,0.0,0.0,0.0,0.0,0.0,0.0,0.0,0.0,0.0,0.0,0.0,0.0,0.0,0.0,0.0,0.0,0.0,0.0,0.0,0.0,0.0,0.0,0.0,0.0,0.0,0.0,0.0,0.0,0.0,0.0,0.0,0.0,0.0,0.0,0.0,0.0,0.0,0.0,0.0,0.0,0.0,0.0,0.0,0.0,0.0,0.0,0.0,0.0,0.0,0.0,0.0,0.0,0.0,0.0,0.0,0.0,0.0,0.0,0.0,0.0,0.0,0.0,0.0,0.0,0.0,0.0,0.0,0.0,0.0,0.0,0.0,0.0,0.0,0.0,0.0,0.0,0.0,0.0,0.0,0.0,0.0,0.0,0.0,0.0,0.0,0.0,0.0,0.0,0.0,0.0,0.0,0.0,0.0,0.0,0.0,0.0,0.0,0.0,0.0,0.0,0.0,0.0,0.0,0.0,0.0,0.0,0.0,0.0,0.0,0.0,0.0,0.0,0.0,0.0,0.0,0.0,0.0,0.0,0.0,0.0,0.0,0.0,0.0,0.0,0.0,0.0,0.0,0.0,0.0,0.0,0.0,0.0,0.0,0.0,0.0,0.0,0.0,0.0,0.0,0.0,0.0,0.0,0.0,0.0,0.0,0.0,0.0,0.0,0.0,0.0,0.0,0.0,0.0,0.0,0.0,0.0,0.0,0.0,0.0,0.0,0.0,0.0,0.0,0.0,0.0,0.0,0.0,0.0,0.0,0.0,0.0,0.0,0.0,0.0,0.0,0.0,0.0,0.0,0.0,0.0,0.0,0.0,0.0,0.0,0.0,0.0,0.0,0.0,0.0,0.0,0.0,0.0,0.0,0.0,0.0,0.0,0.0,0.0,0.0,0.0,0.0,0.0,0.0,0.0,0.0,0.0,0.0,0.0,0.0,0.0,0.0,0.0,0.0,0.0,0.0,0.0,0.0,0.0,0.0,0.0,0.0,0.0,0.0,0.0,0.0,0.0,0.0,0.0,0.0,0.0,0.0,0.0,0.0,0.0,0.0,0.0,0.0,0.0,0.0,0.0,0.0,0.0,0.0,0.0,0.0,0.0,0.0,0.0,0.0,0.0,0.0,0.0,0.0,0.0,0.0,0.0,0.0,0.0,0.0,0.0,0.0,0.0,0.0,0.0,0.0,0.0,0.0,0.0,0.0,0.0,0.0,0.0,0.0,0.0,0.0,0.0,0.0,0.0,0.0,0.0,0.0,0.0,0.0,0.0,0.0,0.0,0.0,0.0,0.0,0.0,0.0,0.0,0.0,0.0,0.0,0.0,0.0,0.0,0.0,0.0,0.0,0.0,0.0,0.0,0.0,0.0,0.0,0.0,0.0,0.0,0.0,0.0,0.0,0.0,0.0,0.0,0.0,0.0,0.0,0.0,0.0,0.0,0.0,0.0,0.0,0.0,0.0,0.0,0.0,0.0,0.0,0.0,0.0,0.0,0.0,0.0,0.0,0.0,0.0,0.0,0.0,0.0,0.0,0.0,0.0,0.0,0.0,0.0,0.0,0.0,0.0,0.0,0.0,0.0,0.0,0.0,0.0,0.0,0.0,0.0,0.0,0.0,0.0,0.0,0.0,0.0,0.0,0.0,0.0,0.0,0.0,0.0,0.0,0.0,0.0,0.0,0.0,0.0,0.0,0.0,0.0,0.0,0.0,0.0,0.0,0.0,0.0,0.0,0.0,0.0,0.0,0.0,0.0,0.0,0.0,0.0,0.0,0.0,0.0,0.0,0.0,0.0,0.0,0.0,0.0,0.0,0.0,0.0,0.0,0.0,0.0,0.0,0.0,0.0,0.0,0.0,0.0,0.0,0.0,0.0,0.0,0.0,0.0,0.0,0.0,0.0,0.0,0.0,0.0,0.0,0.0,0.0,0.0,0.0,0.0,0.0,0.0,0.0,0.0,0.0,0.0,0.0,0.0,0.0,0.0,0.0,0.0,0.0,0.0,0.0,0.0,0.0,0.0,0.0,0.0,0.0,0.0,0.0,0.0,0.0,0.0,0.0,0.0,0.0,0.0,0.0,0.0,0.0,0.0,0.0,0.0,0.0,0.0,0.0,0.0,0.0,0.0,0.0,0.0,0.0,0.0,0.0,0.0,0.0,0.0,0.0,0.0,0.0,0.0,0.0,0.0,0.0,0.0,0.0,0.0,0.0,0.0,0.0,0.0,0.0,0.0,0.0,0.0,0.0,0.0,0.0,0.0,0.0,0.0,0.0,0.0,0.0,0.0,0.0,0.0,0.0,0.0,0.0,0.0,0.0,0.0,0.0,0.0,0.0,0.0,0.0,0.0,0.0,0.0,0.0,0.0,0.0,0.0,0.0,0.0,0.0,0.0,0.0,0.0,0.0,0.0,0.0,0.0,0.0,0.0,0.0,0.0,0.0,0.0,0.0,0.0,0.0,0.0,0.0,0.0,0.0,0.0,0.0,0.0,0.0,0.0,0.0,0.0,0.0,0.0,0.0,0.0,0.0,0.0,0.0,0.0,0.0,0.0,0.0,0.0,0.0,0.0,0.0,0.0,0.0,0.0,0.0,0.0,0.0,0.0,0.0,0.0,0.0,0.0,0.0,0.0,0.0,0.0,0.0,0.0,0.0,0.0,0.0,0.0,0.0,0.0,0.0,0.0,0.0,0.0,0.0,0.0,0.0,0.0,0.0,0.0,0.0,0.0,0.0,0.0,0.0,0.0,0.0,0.0,0.0,0.0,0.0,0.0,0.0,0.0,0.0,0.0,0.0,0.0,0.0,0.0,0.0,0.0,0.0,0.0,0.0,0.0,0.0,0.0,0.0,0.0,0.0,0.0,0.0,0.0,0.0,0.0,0.0,0.0,0.0,0.0,0.0,0.0,0.0,0.0,0.0,0.0,0.0,0.0,0.0,0.0,0.0,0.0,0.0,0.0,0.0,0.0,0.0,0.0,0.0,0.0,0.0,0.0,0.0,0.0,0.0,0.0,0.0,0.0,0.0,0.0,0.0,0.0,0.0,0.0,0.0,0.0,0.0,0.0,0.0,0.0,0.0,0.0,0.0,0.0,0.0,0.0,0.0,0.0,0.0,0.0,0.0,0.0,0.0,0.0,0.0,0.0,0.0,0.0,0.0,0.0,0.0,0.0,0.0,0.0,0.0,0.0,0.0,0.0,0.0,0.0,0.0,0.0,0.0,0.0,0.0,0.0,0.0,0.0,0.0,0.0,0.0,0.0,0.0,0.0,0.0,0.0,0.0,0.0,0.0,0.0,0.0,0.0,0.0,0.0,0.0,0.0,0.0,0.0,0.0,0.0,0.0,0.0,0.0,0.0,0.0,0.0,0.0,0.0,0.0,0.0,0.0,0.0,0.0,0.0,0.0,0.0,0.0,0.0,0.0,0.0,0.0,0.0,0.0,0.0,0.0,0.0,0.0,0.0,0.0,0.0,0.0,0.0,0.0,0.0,0.0,0.0,0.0,0.0,0.0,0.0,0.0,0.0,0.0,0.0,0.0,0.0,0.0,0.0,0.0,0.0,0.0,0.0,0.0,0.0,0.0,0.0,0.0,0.0,0.0,0.0,0.0,0.0,0.0,0.0,0.0,0.0,0.0,0.0,0.0,0.0,0.0,0.0,0.0,0.0,0.0,0.0,0.0,0.0,0.0,0.0,0.0,0.0,0.0,0.0,0.0,0.0,0.0,0.0,0.0,0.0,0.0,0.0,0.0,0.0,0.0,0.0,0.0,0.0,0.0,0.0,0.0,0.0,0.0,0.0,0.0,0.0,0.0,0.0,0.0,0.0,0.0,0.0,0.0,0.0,0.0,0.0,0.0,0.0,0.0,0.0,0.0,0.0,0.0,0.0,0.0,0.0,0.0,0.0,0.0,0.0,0.0,0.0,0.0,0.0,0.0,0.0,0.0,0.0,0.0,0.0,0.0,0.0,0.0,0.0,0.0,0.0,0.0,0.0,0.0,0.0,0.0,0.0,0.0,0.0,0.0,0.0,0.0,0.0,0.0,0.0,0.0,0.0,0.0,0.0,0.0,0.0,0.0,0.0,0.0,0.0,0.0,0.0,0.0,0.0,0.0,0.0,0.0,0.0,0.0,0.0,0.0,0.0,0.0,0.0,0.0,0.0,0.0,0.0,0.0,0.0,0.0,0.0,0.0,0.0,0.0,0.0,0.0,0.0,0.0,0.0,0.0,0.0,0.0,0.0,0.0,0.0,0.0,0.0,0.0,0.0,0.0,0.0,0.0,0.0,0.0,0.0,0.0,0.0,0.0,0.0,0.0,0.0,0.0,0.0,0.0,0.0,0.0,0.0,0.0,0.0,0.0,0.0,0.0,0.0,0.0,0.0,0.0,0.0,0.0,0.0,0.0,0.0,0.0,0.0,0.0,0.0,0.0,0.0,0.0,0.0,0.0,0.0,0.0,0.0,0.0,0.0,0.0,0.0,0.0,0.0,0.0,0.0,0.0,0.0,0.0,0.0,0.0,0.0,0.0,0.0,0.0,0.0,0.0,0.0,0.0,0.0,0.0,0.0,0.0,0.0,0.0,0.0,0.0,0.0,0.0,0.0,0.0,0.0,0.0,0.0,0.0,0.0,0.0,0.0,0.0,0.0,0.0,0.0,0.0,0.0,0.0,0.0,0.0,0.0,0.0,0.0,0.0,0.0,0.0,0.0,0.0,0.0,0.0,0.0,0.0,0.0,0.0,0.0,0.0,0.0,0.0,0.0,0.0,0.0,0.0,0.0,0.0,0.0,0.0,0.0,0.0,0.0,0.0,0.0,0.0,0.0,0.0,0.0,0.0,0.0,0.0,0.0,0.0,0.0,0.0,0.0,0.0,0.0,0.0,0.0,0.0,0.0,0.0,0.0,0.0,0.0,0.0,-5.8486,0.0,0.0,0.0,0.0,0.0,0.0,0.0,0.0,0.0,0.0,0.0,0.0,0.0,0.0,0.0,0.0,0.0,0.0,0.0,0.0,0.0,0.0,0.0,0.0,0.0,0.0,0.0,0.0,0.0,0.0,0.0,0.0,0.0,0.0,0.0,0.0,0.0,0.0,0.0,-5.7997,-5.7997,-5.7997,-5.7997,-5.7997,-5.7997,0.0,0.0,0.0,0.0,0.0,0.0,0.0,0.0,0.0,0.0,0.0,0.0,0.0,0.0,0.0,0.0,0.0,0.0,0.0,0.0,0.0,0.0,0.0,0.0,0.0,0.0,0.0,0.0,0.0,0.0,0.0,0.0,0.0,0.0,0.0,0.0,0.0,0.0,0.0,0.0,0.0,0.0,0.0,0.0,0.0,0.0,0.0,0.0,0.0,0.0,0.0,0.0,0.0,0.0,0.0,0.0,0.0,0.0,0.0,0.0,0.0,0.0,0.0,0.0,0.0,0.0,0.0,0.0,0.0,0.0,0.0,-5.8415,0.0,0.0,0.0,0.0,0.0,0.0,0.0,0.0,0.0,0.0,0.0,0.0,0.0,0.0,0.0,0.0,0.0,0.0,0.0,0.0,0.0,0.0,0.0,0.0,-5.8111,-5.7997,-5.7997,0.0,0.0,0.0,0.0,0.0,0.0,0.0,0.0,-5.7997,-5.7997,-5.7997,-5.7997,-5.7997,-5.7997,-5.7997,-5.7997,-5.7997,-5.7997,0.0,0.0,0.0,0.0,0.0,0.0,0.0,0.0,0.0,0.0,0.0,0.0,0.0,0.0,0.0,0.0,0.0,0.0,0.0,0.0,0.0,0.0,0.0,0.0,0.0,0.0,0.0,0.0,0.0,0.0,0.0,0.0,0.0,0.0,0.0,0.0,0.0,0.0,0.0,0.0,0.0,0.0,0.0,0.0,0.0,0.0,0.0,0.0,0.0,0.0,0.0,0.0,0.0,0.0,0.0,0.0,0.0,0.0,0.0,0.0,0.0,0.0,0.0,-5.8156,-5.8201,-5.826,-5.8349,-5.8349,-5.826,-5.8349,-5.8327,-5.8156,-5.8179,0.0,0.0,0.0,0.0,0.0,0.0,0.0,0.0,0.0,0.0,0.0,0.0,0.0,0.0,0.0,0.0,0.0,0.0,0.0,0.0,0.0,-5.802,-5.802,-5.7997,-5.7997,-5.7997,0.0,0.0,0.0,0.0,0.0,0.0,-5.7997,-5.7997,-5.7997,-5.7997,-5.7997,-5.7997,-5.7997,-5.7997,-5.7997,-5.7997,-5.7997,-5.7997,-5.7997,0.0,0.0,0.0,0.0,0.0,0.0,0.0,0.0,0.0,0.0,0.0,0.0,0.0,0.0,0.0,0.0,0.0,0.0,0.0,0.0,0.0,0.0,0.0,0.0,0.0,0.0,0.0,0.0,0.0,0.0,0.0,0.0,0.0,0.0,0.0,0.0,0.0,0.0,0.0,0.0,0.0,-5.8371,-5.8393,0.0,0.0,0.0,0.0,0.0,0.0,0.0,0.0,0.0,0.0,0.0,0.0,0.0,-5.826,-5.8371,-5.826,-5.8238,-5.8349,-5.826,-5.8282,-5.8371,-5.8393,-5.8393,-5.8371,-5.8393,0.0,-5.8042,-5.8133,0.0,0.0,0.0,0.0,0.0,0.0,0.0,0.0,0.0,0.0,0.0,0.0,0.0,0.0,0.0,0.0,0.0,0.0,0.0,0.0,0.0,-5.7997,-5.7997,-5.7997,-5.7997,-5.7997,-5.7997,0.0,0.0,0.0,0.0,-5.7997,-5.7997,-5.7997,-5.7997,-5.7997,-5.7997,-5.7997,-5.7997,-5.7997,-5.7997,-5.7997,-5.7997,-5.7997,-5.7997,-5.7997,0.0,0.0,0.0,0.0,0.0,0.0,0.0,0.0,0.0,0.0,0.0,0.0,0.0,0.0,0.0,0.0,0.0,0.0,0.0,0.0,0.0,0.0,0.0,0.0,0.0,0.0,0.0,0.0,0.0,0.0,0.0,0.0,0.0,0.0,0.0,0.0,0.0,0.0,0.0,-5.8305,-5.8305,-5.8305,-5.8305,-5.826,0.0,0.0,0.0,0.0,0.0,0.0,0.0,0.0,0.0,-5.8215,-5.8111,-5.8133,-5.8305,-5.8133,-5.8111,-5.8156,-5.8111,-5.8111,-5.8193,-5.8193,-5.8193,-5.8193,-5.8193,-5.8088,-5.802,-5.8133,-5.8133,-5.8088,0.0,0.0,0.0,0.0,-5.8201,-5.8282,0.0,0.0,0.0,0.0,0.0,0.0,0.0,0.0,0.0,0.0,0.0,0.0,-5.7997,-5.7997,-5.7997,-5.7997,-5.7997,-5.7997,-5.7997,-5.7997,0.0,0.0,0.0,-5.7997,-5.7997,-5.7997,-5.7997,-5.7997,-5.7997,-5.7997,-5.7997,-5.7997,-5.7997,-5.7997,-5.7997,-5.7997,-5.7997,-5.7997,-5.7997,-5.7997,0.0,0.0,0.0,0.0,0.0,0.0,0.0,0.0,0.0,0.0,0.0,0.0,0.0,0.0,0.0,0.0,0.0,0.0,0.0,0.0,0.0,0.0,0.0,0.0,0.0,0.0,0.0,0.0,0.0,0.0,0.0,0.0,0.0,0.0,0.0,0.0,0.0,-5.8238,-5.826,-5.826,-5.8238,-5.8156,0.0,0.0,0.0,0.0,0.0,0.0,-5.8133,-5.8042,-5.8042,-5.8133,-5.8042,-5.8042,-5.8133,-5.8042,-5.7997,-5.7997,-5.7997,-5.7997,-5.7997,-5.7997,-5.7997,-5.7997,-5.7997,-5.7997,-5.7997,-5.8088,-5.8088,-5.7997,-5.7997,-5.7997,-5.7997,-5.7997,-5.8065,-5.8133,0.0,0.0,0.0,0.0,0.0,0.0,0.0,0.0,0.0,0.0,0.0,-5.7997,-5.7997,-5.7997,-5.7997,-5.7997,-5.7997,-5.7997,-5.7997,-5.7997,-5.7997,-5.7997,-5.7997,-5.7997,-5.7997,-5.7997,-5.7997,-5.7997,-5.7997,-5.7997,-5.7997,-5.7997,-5.7997,-5.7997,-5.7997,-5.7997,-5.7997,-5.7997,-5.7997,-5.7997,-5.7997,0.0,0.0,0.0,0.0,0.0,0.0,0.0,0.0,0.0,0.0,0.0,0.0,0.0,0.0,0.0,0.0,0.0,0.0,0.0,0.0,0.0,0.0,0.0,0.0,0.0,0.0,0.0,0.0,0.0,0.0,0.0,0.0,0.0,0.0,0.0,0.0,0.0,0.0,-5.8393,-5.8282,0.0,0.0,0.0,0.0,-5.7997,-5.7997,-5.7997,-5.7997,-5.7997,-5.7997,-5.7997,-5.7997,-5.7997,-5.7997,-5.7997,-5.7997,-5.7997,-5.7997,-5.7997,-5.7997,-5.7997,-5.7997,-5.7997,-5.7997,-5.7997,-5.7997,-5.7997,-5.7997,-5.7997,-5.7997,-5.7997,-5.7997,-5.7997,-5.7997,-5.7997,0.0,0.0,0.0,0.0,0.0,0.0,0.0,0.0,0.0,-5.7997,-5.7997,-5.7997,-5.7997,-5.7997,-5.7997,-5.7997,-5.7997,-5.7997,-5.7997,-5.7997,-5.7997,-5.7997,-5.7997,-5.7997,-5.7997,-5.7997,-5.7997,-5.7997,-5.7997,-5.7997,-5.7997,-5.7997,-5.7997,-5.7973,-5.757,-5.7425,-5.7449,-5.7821,-5.7997,-5.7997,-5.7997,-5.7997,0.0,0.0,0.0,0.0,0.0,0.0,0.0,0.0,0.0,0.0,0.0,0.0,0.0,0.0,0.0,0.0,0.0,0.0,0.0,0.0,0.0,0.0,0.0,0.0,0.0,0.0,0.0,0.0,0.0,0.0,0.0,0.0,0.0,0.0,0.0,0.0,0.0,-5.8282,-5.8133,0.0,-5.8065,-5.802,-5.7997,-5.7997,-5.7997,-5.7997,-5.7997,-5.7997,-5.7997,-5.7997,-5.7997,-5.7997,-5.7997,-5.7997,-5.7997,-5.7997,-5.7997,-5.7997,-5.7997,-5.7997,-5.7997,-5.7997,-5.7997,-5.7997,-5.7997,-5.7997,-5.7997,-5.7997,-5.7997,-5.7997,-5.7997,-5.7997,-5.7997,-5.7997,0.0,0.0,0.0,0.0,0.0,0.0,0.0,0.0,-5.7997,-5.7997,-5.7997,-5.7997,-5.7997,-5.7997,-5.7997,-5.7997,-5.7997,-5.7997,-5.7997,-5.7997,-5.7997,-5.7997,-5.7997,-5.7997,-5.7997,-5.7997,-5.7997,-5.7997,-5.7997,-5.7997,-5.7997,-5.7997,-5.7997,-5.7973,-5.757,-5.7401,-5.7425,-5.7594,-5.757,-5.7425,-5.7594,-5.7703,-5.7726,0.0,0.0,0.0,0.0,0.0,0.0,0.0,0.0,0.0,0.0,0.0,0.0,0.0,0.0,0.0,0.0,0.0,0.0,0.0,0.0,0.0,0.0,0.0,0.0,0.0,0.0,0.0,0.0,0.0,0.0,0.0,0.0,0.0,0.0,0.0,-5.8065,-5.8111,-5.8042,-5.7997,-5.7997,-5.7997,-5.7997,-5.7997,-5.7997,-5.7997,-5.7997,-5.7997,-5.7997,-5.7997,-5.7997,-5.7997,-5.7997,-5.7997,-5.7997,-5.7997,-5.7997,-5.7997,-5.7997,-5.7997,-5.7997,-5.7997,-5.7997,-5.7997,-5.7997,-5.7997,-5.7997,-5.7997,-5.7997,-5.7997,-5.7997,-5.7997,-5.7997,-5.7997,0.0,0.0,0.0,0.0,0.0,0.0,0.0,-5.7997,-5.7997,-5.7997,-5.7997,-5.7997,-5.7997,-5.7997,-5.7997,-5.7997,-5.7997,-5.7997,-5.7997,-5.7997,-5.7997,-5.7997,-5.7997,-5.7997,-5.7997,-5.7997,-5.7997,-5.7997,-5.7997,-5.7997,-5.7997,-5.7997,-5.7997,-5.7997,-5.7973,-5.7973,-5.795,-5.7315,-5.6783,-5.6357,-5.6887,-5.7091,-5.7141,0.0,0.0,0.0,0.0,0.0,0.0,0.0,0.0,0.0,0.0,0.0,0.0,0.0,0.0,0.0,0.0,0.0,0.0,0.0,0.0,0.0,0.0,0.0,0.0,0.0,0.0,0.0,0.0,0.0,0.0,0.0,0.0,0.0,-5.8179,-5.8179,-5.8133,-5.802,-5.7997,-5.7997,-5.7997,-5.7997,-5.7997,-5.7997,-5.7997,-5.7997,-5.7997,-5.7997,-5.7997,-5.7997,-5.7997,-5.7997,-5.7997,-5.7997,-5.7997,-5.7997,-5.7997,-5.7997,-5.8033,-5.8033,-5.8033,-5.807,-5.807,-5.807,-5.807,-5.807,-5.807,-5.807,-5.8033,-5.7997,-5.7997,-5.7997,-5.7997,-5.7997,0.0,0.0,0.0,0.0,0.0,0.0,0.0,-5.7997,-5.7997,-5.7997,-5.7997,-5.7997,-5.7997,-5.7997,-5.7997,-5.7997,-5.7997,-5.7997,-5.7997,-5.7997,-5.7997,-5.7997,-5.7997,-5.7997,-5.7997,-5.7997,-5.7997,-5.7997,-5.7997,-5.7997,-5.7997,-5.7997,-5.7997,-5.7973,-5.7546,-5.7376,-5.729,-5.6757,-5.6438,-5.6303,-5.6465,-5.6519,-5.6599,0.0,0.0,0.0,0.0,0.0,0.0,0.0,0.0,0.0,0.0,0.0,0.0,0.0,0.0,0.0,0.0,0.0,0.0,0.0,0.0,0.0,0.0,0.0,0.0,0.0,0.0,0.0,0.0,0.0,0.0,0.0,0.0,-5.8156,-5.8065,-5.8042,-5.8042,-5.7997,-5.7997,-5.7997,-5.7997,-5.7997,-5.7997,-5.7997,-5.7997,-5.7997,-5.7997,-5.7997,-5.7997,-5.7997,-5.7997,-5.7997,-5.7997,-5.7997,-5.7997,-5.7997,-5.7997,-5.8327,-5.8877,-5.8877,-5.9208,-5.9758,-5.9758,-5.9758,-5.9758,-5.9758,-5.9758,-5.9612,-5.8474,-5.7997,-5.7997,-5.7997,-5.7997,-5.7997,0.0,0.0,0.0,0.0,0.0,0.0,0.0,-5.7997,-5.7997,-5.7997,-5.7997,-5.7997,-5.7997,-5.7997,-5.7997,-5.7997,-5.7997,-5.7997,-5.7997,-5.7997,-5.7997,-5.7997,-5.7997,-5.7997,-5.7997,-5.7997,-5.7997,-5.7997,-5.7997,-5.7997,-5.7997,-5.7997,-5.7997,-5.7997,-5.7618,-5.7474,-5.7449,-5.6887,-5.6652,-5.6625,-5.6384,-5.6438,-5.6678,-5.6989,-5.7241,-5.7522,-5.7867,-5.7997,-5.7997,-5.7997,0.0,0.0,0.0,0.0,0.0,0.0,0.0,0.0,0.0,0.0,0.0,0.0,0.0,0.0,0.0,0.0,0.0,0.0,0.0,0.0,0.0,0.0,0.0,0.0,-5.8111,-5.8088,-5.802,-5.8042,-5.8065,-5.7997,-5.7997,-5.7997,-5.7997,-5.7997,-5.7997,-5.7997,-5.7997,-5.7997,-5.7997,-5.7997,-5.8143,-5.851,-5.851,-5.8657,-5.8988,-5.9024,-5.9024,-5.9024,-5.9024,-5.9245,-5.9698,-5.9698,-5.9979,-6.0419,-6.0419,-6.0419,-6.0419,-6.0419,-6.0419,0.0,0.0,0.0,0.0,0.0,-5.9024,-5.9024,0.0,0.0,0.0,0.0,0.0,0.0,0.0,-5.7997,-5.7997,-5.7997,-5.7997,-5.7997,-5.7997,-5.7997,-5.7997,-5.7997,-5.7997,-5.7997,-5.7997,-5.7997,-5.7997,-5.7997,-5.7997,-5.7997,-5.7997,-5.7997,-5.7997,-5.7997,-5.7997,-5.7997,-5.7997,-5.7997,-5.7997,-5.7997,-5.7997,-5.7997,-5.7973,-5.7425,-5.7191,-5.7141,-5.6625,-5.6652,-5.7015,-5.7091,-5.7449,-5.7927,-5.7973,-5.7997,-5.7997,-5.7997,0.0,0.0,0.0,0.0,0.0,0.0,0.0,0.0,0.0,0.0,0.0,0.0,0.0,0.0,0.0,0.0,0.0,0.0,0.0,0.0,0.0,0.0,0.0,0.0,-5.802,-5.802,-5.7997,-5.8111,-5.8133,-5.802,-5.7997,-5.7997,-5.7997,-5.7997,-5.7997,-5.7997,-5.807,-5.8143,-5.8143,0.0,0.0,0.0,0.0,-5.9661,-6.0382,-6.0419,-6.0419,-6.0419,-6.0419,-6.0456,-6.0529,-6.0529,-6.0603,-6.0676,-6.0676,-6.0676,-6.0676,-6.0676,-6.0676,-6.0639,-6.0493,-6.0419,-6.0419,-6.0419,-6.0419,-6.0419,0.0,0.0,0.0,0.0,0.0,0.0,0.0,-5.7997,-5.7997,-5.7997,-5.7997,-5.7997,-5.7997,-5.7997,-5.7997,-5.7997,-5.7997,-5.7997,-5.7997,-5.7997,-5.7997,-5.7997,-5.7997,-5.7997,-5.7997,-5.7997,-5.7997,-5.7997,-5.7997,-5.7997,-5.7997,-5.7997,-5.7997,-5.7997,-5.7997,-5.7997,-5.7997,-5.7904,-5.7821,-5.7774,-5.7166,-5.6757,-5.6519,-5.6938,-5.7166,-5.7351,-5.7821,-5.7997,-5.7997,-5.7997,-5.7997,-5.7997,-5.7997,0.0,0.0,0.0,0.0,0.0,0.0,0.0,0.0,0.0,0.0,0.0,0.0,0.0,0.0,0.0,0.0,0.0,0.0,0.0,0.0,-5.7997,-5.8088,-5.8111,-5.802,-5.8111,-5.8133,-5.802,-5.7997,-5.7997,-5.7997,-5.7997,-5.7997,-5.7997,-5.8621,-5.8964,-5.8964,-5.9575,-6.0015,-6.0162,-6.0162,-6.0236,-6.0419,-6.0419,-6.0419,-6.0419,0.0,0.0,-6.1374,-6.1374,-6.1704,-6.234,-6.234,-6.234,-6.234,-6.234,-6.234,-6.2218,-6.0933,-6.0419,-6.0419,-6.0419,-6.0419,-6.0419,0.0,0.0,0.0,0.0,0.0,0.0,0.0,-5.7997,-5.7997,-5.7997,-5.7997,-5.7997,-5.7997,-5.7997,-5.7997,-5.7997,-5.7997,-5.7997,-5.7997,-5.7997,-5.7997,-5.7997,-5.7997,-5.7997,-5.7997,-5.7997,-5.7997,-5.7997,-5.7997,-5.7997,-5.7997,-5.7997,-5.7997,-5.7997,-5.7997,-5.7997,-5.7973,-5.7679,-5.7726,-5.795,-5.7315,-5.7116,-5.7177,-5.7116,-5.7266,-5.757,-5.7867,-5.7997,-5.7997,-5.7997,-5.7997,-5.7997,-5.7997,-5.7997,-5.7997,0.0,0.0,0.0,0.0,0.0,0.0,0.0,0.0,0.0,0.0,0.0,0.0,0.0,0.0,-5.802,0.0,0.0,-5.802,-5.8088,-5.8456,-5.8713,-5.8676,-5.9044,-5.8984,-5.8107,-5.7997,-5.8143,-5.8547,-5.8621,-5.8767,-5.9171,-5.9575,-5.9795,-5.9795,-6.0199,-6.0566,-6.1006,-6.1006,-6.119,-6.1594,-6.1594,-6.1594,-6.1594,-6.1594,-6.1814,-6.2218,-6.2218,-6.2438,-6.278,-6.278,-6.278,-6.278,-6.278,-6.278,-6.2707,-6.1924,-6.1594,-6.1594,-6.1594,-6.1594,-6.1594,0.0,0.0,0.0,0.0,0.0,0.0,0.0,0.0,-5.7997,-5.7997,-5.7997,-5.7997,-5.7997,-5.7997,-5.7997,-5.7997,-5.7997,-5.7997,-5.7997,-5.7997,-5.7997,-5.7997,-5.7997,-5.7997,-5.7997,-5.7997,-5.7997,-5.7997,-5.7997,-5.7997,-5.7997,-5.7997,-5.7997,-5.7997,-5.7997,-5.7997,-5.7973,-5.7474,-5.7546,-5.7973,-5.7474,-5.757,-5.795,-5.7474,-5.757,-5.7997,-5.7997,-5.7997,-5.7997,-5.7997,-5.7997,-5.7997,-5.7997,-5.7997,-5.7997,-5.7997,-5.7997,0.0,0.0,0.0,0.0,0.0,0.0,0.0,0.0,0.0,-5.8088,-5.8156,-5.8235,-5.8263,-5.8414,-5.8479,-5.8543,-5.8657,-5.9117,-5.9475,-5.9568,-6.005,-5.9905,-5.8621,-5.8474,-5.8731,-5.9368,-5.9404,-5.9698,-6.0346,-6.0529,-6.0639,-6.0639,-6.0786,-6.1153,-6.1814,-6.1814,-6.2218,-6.3062,-6.3062,-6.3135,-6.3319,-6.3319,-6.3319,-6.3319,-6.3319,-6.3319,-6.3319,-6.3319,-6.3319,-6.3319,-6.3319,-6.3319,-6.3319,-6.3319,-6.3319,-6.3246,-6.289,-6.278,-6.278,0.0,0.0,0.0,0.0,0.0,0.0,0.0,0.0,0.0,-5.7997,-5.7997,-5.7997,-5.7997,-5.7997,-5.7997,-5.7997,-5.7997,-5.7997,-5.7997,-5.7997,-5.7997,-5.7997,-5.7997,-5.7997,-5.7997,-5.7997,-5.7997,-5.7997,-5.7997,-5.7997,-5.7997,-5.7997,-5.7997,-5.7997,-5.7997,-5.7997,-5.7997,-5.795,-5.795,-5.7997,-5.795,-5.795,-5.7997,-5.7927,-5.795,-5.7997,-5.7997,-5.7997,-5.7997,-5.7997,-5.7997,-5.7997,-5.7997,-5.7997,-5.7997,-5.7997,0.0,-5.7997,-5.7997,-5.7997,-5.7997,-5.7997,-5.8156,-5.8327,0.0,0.0,-5.8327,-5.8238,-5.8653,-5.9121,-5.9223,-5.9836,-6.0314,-6.0337,-6.0388,-6.0415,-6.0296,-6.0346,-6.0346,-6.0162,-6.0126,-6.0162,-6.0272,-6.0272,-6.0309,-6.0382,-6.1043,-6.1484,-6.1484,-6.2144,-6.2585,-6.2658,-6.2695,-6.3099,-6.3943,-6.3943,-6.431,-6.5044,-6.5044,-6.5044,-6.5044,-6.5044,-6.5044,-6.5044,-6.5044,-6.5044,-6.5044,-6.5044,-6.5044,-6.5044,-6.5044,-6.5044,-6.4861,-6.333,-6.278,-6.278,0.0,0.0,0.0,0.0,0.0,0.0,0.0,0.0,0.0,0.0,-5.7997,-5.7997,-5.7997,-5.7997,-5.7997,-5.7997,-5.7997,-5.7997,-5.7997,-5.7997,-5.7997,-5.7997,-5.7997,-5.7997,-5.7997,-5.7997,-5.7997,-5.7997,-5.7997,-5.7997,-5.7997,-5.7997,-5.7997,-5.7997,-5.7997,-5.7997,-5.7973,-5.7655,-5.7703,-5.7973,-5.7594,-5.7703,-5.7997,-5.7997,-5.7997,-5.7997,-5.7997,-5.7997,0.0,0.0,-5.7997,-5.7997,-5.7997,-5.7997,-5.7997,-5.7997,-5.7997,0.0,-5.7997,-5.8042,-5.8111,0.0,-5.8179,-5.8282,-5.8201,-5.8561,-5.8892,-5.8878,-5.9495,-6.007,-6.0186,-6.0421,-6.0619,0.0,-6.0977,-6.1176,-6.1213,-6.1569,-6.1814,-6.1814,-6.1814,-6.163,-6.1153,-6.108,-6.13,-6.1777,-6.2108,-6.2291,-6.2291,-6.3099,-6.3576,-6.3576,-6.4016,-6.4457,-6.4787,-6.4787,-6.4971,-6.5301,-6.5301,-6.5301,-6.5301,-6.5301,-6.5301,-6.5301,-6.5301,-6.5301,-6.5301,-6.5301,-6.5301,-6.5301,-6.5301,-6.5301,-6.5228,-6.4505,-6.4273,-6.4273,0.0,0.0,0.0,0.0,0.0,0.0,0.0,0.0,0.0,0.0,0.0,-5.7997,-5.7997,-5.7997,-5.7997,-5.7997,-5.7997,-5.7997,-5.7997,-5.7997,-5.7997,-5.7997,-5.7997,-5.7997,-5.7997,-5.7997,-5.7997,-5.7997,-5.7997,-5.7997,-5.7997,-5.7997,-5.7997,-5.7997,-5.7997,-5.7997,-5.7973,-5.7522,-5.7594,-5.7973,-5.7522,-5.7594,-5.7997,-5.7997,-5.7997,-5.7997,-5.7997,-5.7997,0.0,0.0,-5.7997,-5.7997,-5.7997,-5.7997,-5.7997,-5.7997,-5.7997,-5.7997,-5.7997,0.0,0.0,-5.8133,-5.8156,-5.8252,-5.8473,-5.892,-5.9352,-5.9711,-6.0397,-6.095,-6.1103,-6.1205,-6.1342,-6.1412,-6.1726,-6.1998,-6.2046,-6.2487,-6.278,-6.278,-6.278,-6.2658,-6.2328,-6.2071,-6.2254,-6.3099,-6.3172,-6.3282,-6.3503,-6.409,-6.442,-6.442,-6.5007,-6.5411,-6.5632,-6.5632,-6.5742,-6.5962,-6.5962,-6.5962,-6.5962,-6.5962,-6.5962,-6.5962,-6.5962,-6.5962,-6.5962,-6.5962,-6.5962,-6.5962,-6.5962,-6.5962,-6.5962,-6.5962,-6.5705,-6.5301,0.0,0.0,0.0,0.0,0.0,0.0,0.0,0.0,0.0,0.0,0.0,0.0,0.0,0.0,-5.7997,-5.7997,-5.7997,-5.7997,-5.7997,-5.7997,-5.7997,-5.7997,-5.7997,-5.7997,-5.7997,-5.7997,-5.7997,-5.7997,-5.7997,-5.7997,-5.7997,-5.7997,-5.7997,-5.7997,-5.7997,-5.7997,-5.7997,-5.7973,-5.7973,-5.7997,-5.7973,-5.7973,-5.7997,-5.7997,-5.7997,-5.7997,-5.7997,0.0,0.0,0.0,-5.7997,-5.7997,-5.7997,-5.7997,0.0,-5.7997,-5.7997,0.0,0.0,0.0,-5.7997,-5.7997,-5.8088,-5.8399,-5.9173,-5.9357,-5.966,-6.0549,-6.1292,-6.1798,-6.1939,-6.2604,-6.3073,-6.2953,-6.2929,-6.2917,-6.2768,-6.2805,-6.278,-6.278,-6.278,-6.3135,0.0,-6.3282,-6.3135,-6.398,-6.4053,-6.4383,-6.5191,-6.5264,-6.5264,-6.5264,-6.5301,-6.5668,-6.6476,-6.6476,-6.6843,-6.7614,-6.7614,-6.7614,-6.7614,-6.7614,-6.7614,-6.7614,-6.7614,-6.7614,-6.7614,-6.7614,-6.7614,-6.7614,-6.7614,-6.7614,-6.7614,-6.7614,-6.6623,-6.5301,0.0,0.0,0.0,0.0,0.0,0.0,0.0,0.0,0.0,0.0,0.0,0.0,0.0,0.0,0.0,0.0,-5.7997,-5.7997,-5.7997,-5.7997,-5.7997,-5.7997,-5.7997,-5.7997,-5.7997,-5.7997,-5.7997,-5.7997,-5.7997,-5.7997,-5.7997,-5.7997,-5.7997,-5.7997,-5.7997,-5.7997,-5.7997,-5.7997,-5.7997,-5.7997,-5.7997,-5.7997,-5.7997,-5.7997,-5.7997,-5.7997,0.0,0.0,0.0,0.0,0.0,0.0,-5.8111,0.0,0.0,-5.802,0.0,0.0,0.0,0.0,-5.826,-5.8133,-5.8561,-5.9085,-5.9471,-6.031,-6.1134,-6.1509,-6.2281,-6.2835,-6.2788,-6.301,-6.3208,-6.3123,-6.2978,-6.288,-6.2929,-6.2855,-6.278,-6.278,-6.3319,0.0,0.0,0.0,0.0,-6.4824,-6.4897,-6.5007,-6.5301,-6.5815,-6.6109,-6.6109,-6.6623,-6.7026,-6.7283,-6.7283,-6.743,-6.7687,-6.7687,-6.7687,-6.7687,-6.7687,-6.7687,-6.7687,-6.7687,-6.7687,-6.7687,-6.7687,-6.7687,-6.7687,-6.7687,-6.7687,-6.7687,-6.7687,-6.7357,-6.688,0.0,0.0,0.0,0.0,0.0,0.0,0.0,0.0,0.0,0.0,0.0,0.0,0.0,0.0,0.0,0.0,0.0,0.0,-5.7997,-5.8042,-5.8065,-5.8065,-5.8065,-5.8065,-5.8065,-5.8065,-5.8065,-5.8065,-5.8065,-5.8065,-5.8065,-5.802,-5.7997,-5.7997,-5.7997,-5.7997,-5.7997,-5.7997,-5.7997,-5.7997,-5.7997,-5.7997,-5.7997,-5.7997,-5.7997,0.0,0.0,0.0,0.0,0.0,0.0,0.0,0.0,0.0,0.0,0.0,0.0,0.0,0.0,-5.8215,-5.8401,-5.8569,-5.9071,-5.9632,-6.0314,-6.1191,-6.1993,-6.2322,-6.2979,-6.3336,-6.3147,-6.3194,-6.3218,-6.3075,-6.2953,-6.288,-6.2929,-6.2855,-6.289,-6.3246,-6.3759,-6.431,0.0,0.0,0.0,-6.5705,-6.5742,-6.5852,-6.6145,-6.6659,-6.6916,-6.6916,-6.743,-6.7687,-6.7687,-6.7687,-6.7687,-6.7687,-6.7687,-6.7687,-6.7687,-6.7687,-6.7687,-6.7687,-6.7687,-6.7687,-6.7687,-6.7687,-6.7687,-6.7687,-6.7687,-6.7687,-6.7687,-6.7687,-6.7687,-6.7687,0.0,0.0,0.0,0.0,0.0,0.0,0.0,0.0,0.0,0.0,0.0,0.0,0.0,0.0,0.0,0.0,0.0,0.0,-5.7997,-5.8111,-5.8179,-5.8179,-5.8179,-5.8179,-5.8201,-5.8179,-5.8179,-5.8179,-5.8179,-5.8179,-5.8215,-5.8065,-5.802,-5.7997,-5.7997,-5.7997,-5.7997,-5.7997,-5.7997,-5.7997,-5.7997,-5.7997,-5.7997,-5.7997,0.0,0.0,0.0,0.0,0.0,0.0,0.0,0.0,0.0,0.0,0.0,0.0,0.0,-5.8042,-5.8193,-5.8215,-5.8459,-5.9232,-5.9581,-6.0092,-6.1666,-6.2036,-6.2294,-6.3047,-6.3312,-6.3312,0.0,0.0,-6.3242,-6.2855,-6.2904,-6.2953,-6.283,-6.2842,-6.3172,0.0,0.0,0.0,0.0,0.0,0.0,-6.6549,0.0,-6.688,-6.765,-6.7687,-6.7687,-6.7687,-6.7687,-6.7687,-6.7687,-6.7687,-6.7687,-6.7687,-6.7687,-6.7687,-6.7687,-6.7687,-6.7687,-6.7687,-6.7687,-6.7687,-6.7687,-6.7687,-6.7687,-6.7687,-6.7687,-6.7687,-6.7687,-6.7687,-6.7687,-6.7687,0.0,0.0,0.0,0.0,0.0,0.0,0.0,0.0,0.0,0.0,0.0,0.0,0.0,0.0,0.0,0.0,0.0,0.0,-5.7997,-5.802,-5.8088,-5.8215,-5.8179,0.0,0.0,0.0,0.0,-5.8179,-5.8179,-5.8179,-5.8179,-5.8193,-5.8133,-5.8133,-5.8042,-5.7997,-5.7997,-5.7997,-5.7997,-5.7997,0.0,-5.7997,-5.7997,0.0,0.0,0.0,0.0,0.0,0.0,0.0,0.0,0.0,0.0,0.0,-5.802,0.0,0.0,-5.8133,-5.8179,-5.8688,-5.9272,-5.9493,-6.0498,-6.1542,-6.2017,-6.2595,-6.3137,-6.3451,-6.3534,-6.3465,0.0,0.0,0.0,-6.2978,-6.288,0.0,-6.2953,-6.3431,0.0,-6.4053,0.0,-6.6035,-6.6476,-6.7026,0.0,0.0,-6.7393,-6.7467,-6.7687,-6.7687,-6.7687,-6.7687,-6.7687,-6.7687,-6.7687,-6.7687,-6.7687,-6.7687,-6.7687,-6.7687,-6.7687,-6.7687,-6.7687,-6.7687,-6.7687,-6.7687,-6.7687,-6.7687,-6.7687,-6.7687,-6.7687,-6.7687,-6.7687,-6.7687,-6.7687,-6.7687,0.0,0.0,0.0,0.0,0.0,0.0,0.0,0.0,0.0,0.0,0.0,0.0,0.0,0.0,0.0,0.0,0.0,0.0,0.0,-5.8042,-5.8133,-5.8282,-5.8305,0.0,0.0,0.0,0.0,0.0,0.0,0.0,-5.8179,-5.8133,-5.8111,-5.8088,-5.802,-5.7997,-5.7997,-5.7997,0.0,0.0,0.0,0.0,0.0,0.0,0.0,0.0,0.0,0.0,0.0,0.0,0.0,-5.8327,-5.8327,-5.8215,-5.8111,-5.826,0.0,-5.8311,-5.8688,-5.9198,-5.9782,-6.0529,-6.1485,-6.2308,-6.2709,-6.3154,-6.3488,-6.3442,-6.3488,0.0,0.0,0.0,0.0,0.0,0.0,0.0,-6.2904,-6.359,-6.4237,0.0,-6.5742,0.0,-6.699,-6.743,-6.7687,0.0,-6.7687,-6.7687,-6.7687,-6.7687,-6.7687,-6.7687,-6.7687,-6.7687,-6.7687,-6.7687,-6.7871,-6.8238,-6.8238,-6.8421,-6.8752,-6.8752,-6.8752,-6.8752,0.0,-6.8752,-6.8752,-6.8752,-6.8752,-6.8752,-6.8752,-6.8752,-6.8752,-6.8752,-6.8531,-6.8238,0.0,0.0,0.0,0.0,0.0,0.0,0.0,0.0,0.0,0.0,0.0,0.0,0.0,0.0,0.0,0.0,0.0,0.0,0.0,0.0,0.0,0.0,-5.8393,0.0,0.0,0.0,0.0,0.0,0.0,0.0,0.0,0.0,0.0,0.0,0.0,0.0,0.0,0.0,0.0,0.0,0.0,0.0,0.0,0.0,0.0,0.0,0.0,0.0,0.0,0.0,-5.8088,-5.8179,-5.8238,-5.8201,-5.8238,-5.8482,-5.8452,-5.8569,-5.9516,-5.9833,-6.0285,-6.1863,-6.2398,-6.2747,-6.3453,-6.3579,-6.3511,-6.3265,0.0,-6.3242,-6.288,-6.3002,-6.3075,-6.283,0.0,-6.2966,-6.2952,-6.3723,-6.4567,-6.5375,-6.6182,-6.6916,-6.7614,-6.7687,-6.7687,-6.7687,-6.7687,-6.7687,-6.7687,-6.7687,-6.7724,-6.7834,-6.7834,-6.7907,-6.8017,-6.8017,-6.8348,-6.9082,-6.9082,-6.9412,-7.011,-7.011,-7.011,-7.011,-7.011,-7.011,-7.011,-7.011,-7.011,-7.011,-7.011,-7.011,-7.011,-7.011,-6.9669,-6.9082,0.0,0.0,0.0,0.0,0.0,0.0,0.0,0.0,0.0,0.0,-5.7997,-5.7997,0.0,0.0,0.0,0.0,0.0,0.0,0.0,0.0,0.0,0.0,0.0,0.0,0.0,0.0,0.0,0.0,0.0,0.0,0.0,0.0,0.0,0.0,0.0,0.0,0.0,0.0,0.0,0.0,0.0,0.0,0.0,0.0,0.0,0.0,0.0,0.0,0.0,0.0,-5.8088,-5.8238,-5.8327,-5.8305,-5.8348,-5.9183,-5.9323,-5.9403,-6.0328,-6.1075,-6.1712,-6.2213,-6.2874,-6.3453,-6.3565,-6.3511,0.0,0.0,-6.3289,-6.3171,-6.3002,-6.3002,-6.2978,-6.2805,0.0,0.0,0.0,0.0,-6.5411,0.0,0.0,0.0,0.0,0.0,0.0,0.0,-6.7687,-6.7687,-6.7687,-6.7687,-6.7981,-6.8678,-6.8678,-6.9009,-6.9669,-6.9669,-6.9743,-6.9889,-6.9889,-6.9963,-7.011,-7.011,-7.011,-7.011,-7.011,0.0,-7.011,-7.011,-7.011,-7.011,-7.011,-7.011,-7.011,-7.011,-7.0,-6.9889,0.0,0.0,0.0,0.0,0.0,0.0,0.0,-5.7997,-5.7997,-5.7997,-5.7997,-5.7997,-5.7997,-5.7997,0.0,0.0,0.0,0.0,0.0,0.0,0.0,0.0,0.0,0.0,0.0,0.0,0.0,0.0,0.0,0.0,0.0,0.0,0.0,0.0,0.0,0.0,0.0,0.0,0.0,0.0,0.0,0.0,0.0,0.0,0.0,0.0,0.0,0.0,0.0,0.0,-5.8088,-5.8201,-5.8349,-5.86,-5.8938,-5.9442,-5.978,-6.0227,-6.1177,-6.1703,-6.2156,-6.2829,-6.326,-6.3511,-6.3511,0.0,0.0,0.0,-6.3147,-6.3051,-6.2929,0.0,0.0,0.0,0.0,0.0,0.0,0.0,0.0,0.0,0.0,0.0,0.0,0.0,0.0,0.0,0.0,-6.8128,-6.7724,-6.8091,-6.8678,-6.9486,-6.9522,-6.9706,-7.011,-7.011,-7.0293,-7.0734,-7.0734,-7.0954,-7.1358,-7.1358,-7.1358,-7.1358,-7.1358,-7.1358,-7.1358,-7.1358,-7.1358,-7.1358,-7.1358,-7.1358,-7.1358,-7.1358,-7.1101,-7.0734,0.0,0.0,0.0,0.0,0.0,0.0,0.0,-5.7997,-5.7997,-5.7997,-5.7997,-5.7997,-5.7997,-5.7997,-5.7997,0.0,0.0,0.0,0.0,0.0,0.0,0.0,0.0,0.0,0.0,0.0,0.0,0.0,0.0,0.0,0.0,0.0,0.0,0.0,0.0,0.0,0.0,0.0,0.0,0.0,0.0,0.0,0.0,0.0,0.0,0.0,0.0,0.0,0.0,0.0,-5.8198,-5.8496,-5.8585,-5.9005,-5.9453,-5.9774,-6.0356,-6.1098,-6.1989,-6.2258,-6.2512,-6.3363,-6.3488,-6.3382,-6.3359,-6.3242,0.0,0.0,-6.2978,-6.2929,-6.2805,0.0,0.0,0.0,0.0,0.0,0.0,0.0,0.0,0.0,0.0,0.0,0.0,0.0,0.0,0.0,0.0,-6.8862,-6.8238,-6.8825,-6.9522,-7.033,-7.0367,-7.044,-7.0624,-7.0624,-7.0917,-7.155,-7.155,-7.1908,-7.2496,-7.2496,-7.2496,-7.2496,-7.2496,-7.2496,-7.2496,-7.2496,-7.2496,-7.2496,-7.2496,-7.2496,-7.2496,-7.2496,-7.2092,-7.155,0.0,0.0,0.0,0.0,0.0,0.0,0.0,-5.7997,-5.7997,-5.7997,-5.7997,-5.7997,-5.7997,-5.7997,-5.7997,0.0,0.0,0.0,0.0,0.0,0.0,0.0,0.0,0.0,0.0,0.0,0.0,0.0,0.0,0.0,0.0,0.0,0.0,0.0,0.0,0.0,0.0,0.0,0.0,0.0,0.0,0.0,0.0,0.0,0.0,0.0,0.0,0.0,0.0,0.0,0.0,-5.9283,-5.9306,-5.9343,-5.9564,-6.0453,0.0,0.0,-6.2875,-6.3154,-6.3308,-6.3405,-6.3382,-6.3359,-6.3279,0.0,0.0,-6.3002,-6.2904,-6.2805,-6.2805,-6.278,-6.278,0.0,0.0,0.0,0.0,0.0,0.0,0.0,0.0,0.0,0.0,0.0,0.0,0.0,0.0,-6.9963,-6.9889,-6.9963,-7.0367,-7.1174,-7.1211,-7.1541,-7.2275,-7.2275,-7.2312,-7.2386,-7.2386,-7.2422,-7.2496,-7.2496,-7.2496,-7.2496,-7.2496,-7.2496,0.0,-7.2496,-7.2496,-7.2496,-7.2496,-7.2496,-7.2496,-7.2496,-7.2459,-7.2386,0.0,0.0,0.0,0.0,0.0,0.0,-5.7997,-5.7997,-5.7997,-5.7997,-5.7997,-5.7997,-5.7997,-5.7997,-5.7997,0.0,0.0,0.0,0.0,0.0,0.0,0.0,0.0,0.0,0.0,0.0,0.0,0.0,0.0,0.0,0.0,0.0,0.0,0.0,0.0,0.0,0.0,0.0,0.0,0.0,0.0,0.0,0.0,0.0,0.0,0.0,0.0,0.0,0.0,0.0,0.0,0.0,-6.013,-6.0415,0.0,0.0,-6.2016,-6.2765,-6.3097,-6.3289,-6.3382,-6.3382,-6.3336,-6.3218,-6.3099,0.0,0.0,-6.288,-6.283,-6.278,-6.278,-6.278,-6.278,0.0,0.0,0.0,0.0,0.0,0.0,0.0,0.0,0.0,0.0,0.0,0.0,0.0,-7.066,-7.1027,-7.1505,-7.1101,-7.1211,-7.2018,-7.2018,-7.2202,-7.2496,-7.2496,-7.2496,-7.2496,-7.2496,-7.2496,-7.2496,-7.2496,-7.2496,-7.2496,-7.2496,-7.2496,0.0,-7.2496,-7.2496,-7.2496,-7.2496,-7.2496,-7.2496,-7.2496,-7.2496,-7.2496,0.0,0.0,0.0,0.0,0.0,-5.7997,-5.7997,-5.7997,-5.7997,-5.7997,-5.7997,-5.7997,-5.7997,-5.7997,-5.7997,-5.7997,0.0,0.0,0.0,0.0,0.0,0.0,0.0,0.0,0.0,0.0,-5.8088,-5.7997,-5.7997,0.0,0.0,0.0,0.0,0.0,0.0,0.0,0.0,0.0,0.0,0.0,0.0,0.0,0.0,0.0,0.0,0.0,0.0,0.0,0.0,0.0,0.0,0.0,0.0,0.0,0.0,0.0,-6.2472,-6.3194,-6.3194,-6.3289,-6.3382,-6.3336,-6.3218,-6.3099,0.0,0.0,-6.278,-6.278,-6.278,-6.278,-6.278,-6.278,-6.278,0.0,0.0,0.0,0.0,0.0,0.0,0.0,0.0,0.0,0.0,0.0,0.0,0.0,-7.1541,-7.1908,-7.2459,-7.1982,-7.1908,-7.2496,-7.2496,-7.2496,-7.2496,-7.2496,-7.2496,-7.2496,-7.2496,-7.2496,-7.2496,-7.2496,-7.2496,-7.2496,-7.2496,-7.2496,0.0,-7.2496,-7.2496,-7.2496,-7.2496,-7.2496,-7.2496,-7.2496,-7.2496,-7.2496,0.0,0.0,0.0,0.0,0.0,0.0,-5.7997,-5.7997,-5.7997,-5.7997,-5.7997,-5.7997,-5.7997,-5.7997,-5.7997,-5.7997,0.0,0.0,0.0,0.0,0.0,0.0,0.0,0.0,0.0,0.0,-5.7997,-5.7997,-5.7997,-5.7997,-5.7997,0.0,0.0,0.0,0.0,0.0,0.0,0.0,0.0,0.0,0.0,0.0,0.0,0.0,0.0,0.0,0.0,0.0,0.0,0.0,0.0,0.0,0.0,0.0,0.0,0.0,-6.2472,-6.3194,-6.3194,-6.3289,-6.3359,-6.3255,-6.3099,-6.2978,0.0,0.0,-6.278,-6.278,-6.278,-6.278,-6.278,-6.278,-6.278,-6.278,0.0,0.0,0.0,0.0,0.0,0.0,0.0,0.0,0.0,0.0,0.0,0.0,-7.2055,0.0,-7.2496,-7.2496,-7.2496,-7.2496,-7.2496,-7.2496,-7.2496,-7.2496,-7.2496,-7.2496,-7.2496,-7.2496,-7.2496,-7.2496,-7.2496,-7.2496,-7.2496,-7.2496,0.0,-7.2496,-7.2496,-7.2496,-7.2496,-7.2496,-7.2496,-7.2496,-7.2496,-7.2496,0.0,0.0,0.0,0.0,0.0,0.0,0.0,-5.7997,-5.7997,-5.7997,-5.7997,-5.7997,-5.7997,-5.7997,-5.7997,-5.7997,0.0,0.0,0.0,0.0,0.0,0.0,0.0,0.0,0.0,0.0,-5.7997,-5.7997,-5.7997,-5.7997,-5.7997,-5.7997,-5.7997,0.0,0.0,0.0,0.0,0.0,0.0,0.0,0.0,0.0,0.0,0.0,0.0,0.0,0.0,0.0,0.0,0.0,0.0,0.0,0.0,0.0,0.0,0.0,0.0,0.0,-6.3194,-6.3218,-6.3242,-6.3194,-6.3099,-6.2978,-6.283,0.0,-6.278,-6.278,-6.278,-6.278,-6.278,-6.278,-6.278,-6.278,0.0,0.0,0.0,0.0,0.0,0.0,0.0,0.0,0.0,0.0,0.0,-7.2018,-7.2349,-7.2496,-7.2496,-7.2496,-7.2496,-7.2496,-7.2496,-7.2496,-7.2496,-7.2496,-7.2496,-7.2496,-7.2496,-7.2496,-7.2496,-7.2496,-7.2496,-7.2496,-7.2496,-7.2496,-7.2496,-7.2496,-7.2496,-7.2496,-7.2496,-7.2496,-7.2496,-7.2496,-7.2496,-7.2569,0.0,0.0,0.0,0.0,0.0,0.0,0.0,-5.7997,-5.7997,-5.7997,-5.7997,-5.7997,-5.7997,-5.7997,-5.7997,-5.7997,0.0,0.0,0.0,0.0,0.0,0.0,0.0,0.0,-5.7997,-5.7997,-5.7997,-5.7997,-5.7997,-5.7997,-5.7997,-5.7997,-5.7997,-5.7997,-5.7997,0.0,0.0,0.0,0.0,0.0,0.0,0.0,-5.7997,0.0,0.0,0.0,0.0,0.0,0.0,0.0,0.0,0.0,0.0,0.0,0.0,0.0,0.0,0.0,0.0,-6.3123,-6.3123,-6.3123,-6.3026,0.0,0.0,0.0,-6.278,-6.278,-6.278,-6.278,-6.278,-6.278,-6.278,-6.278,0.0,0.0,0.0,0.0,0.0,0.0,0.0,0.0,0.0,0.0,-7.1101,-7.2386,-7.2496,-7.2496,-7.2496,-7.2496,-7.2496,-7.2496,-7.2496,-7.2496,-7.2496,-7.2496,-7.2496,-7.2496,-7.2496,-7.2496,-7.2496,-7.2496,-7.2496,-7.2496,-7.2496,-7.2496,0.0,-7.2496,-7.2496,-7.2496,-7.2496,-7.2496,-7.2496,-7.2496,-7.2679,-7.301,0.0,0.0,0.0,0.0,0.0,0.0,0.0,0.0,-5.7997,-5.7997,-5.7997,-5.7997,-5.7997,-5.7997,-5.7997,-5.7997,0.0,0.0,0.0,0.0,0.0,0.0,0.0,0.0,-5.7997,-5.7997,-5.7997,-5.7997,-5.7997,-5.7997,-5.7997,-5.7997,-5.7997,-5.7997,-5.7997,-5.7997,-5.7997,-5.7997,-5.7997,-5.7997,-5.7997,-5.7997,0.0,0.0,0.0,0.0,0.0,0.0,0.0,0.0,0.0,0.0,0.0,0.0,0.0,0.0,0.0,0.0,0.0,0.0,0.0,0.0,0.0,0.0,0.0,0.0,0.0,-6.278,-6.278,-6.278,-6.278,-6.278,-6.2817,-6.2853,0.0,0.0,0.0,0.0,0.0,0.0,0.0,0.0,0.0,0.0,-7.1651,-7.2459,-7.2496,-7.2496,-7.2496,-7.2496,-7.2496,-7.2496,-7.2496,-7.2496,-7.2496,-7.2496,-7.2496,-7.2496,-7.2496,-7.2496,-7.2496,-7.2496,-7.2496,0.0,-7.2496,-7.2496,-7.2496,-7.2496,-7.2496,-7.2496,-7.2496,-7.2496,-7.2496,-7.2569,-7.3046,-7.3707,0.0,0.0,0.0,0.0,0.0,0.0,0.0,0.0,0.0,0.0,-5.7997,-5.7997,-5.7997,-5.7997,-5.7997,0.0,0.0,0.0,0.0,0.0,0.0,0.0,0.0,0.0,-5.7997,-5.7997,-5.7997,-5.7997,-5.7997,-5.7997,-5.7997,-5.7997,-5.7997,-5.7997,-5.7997,-5.7997,-5.7997,-5.7997,-5.7997,-5.7997,-5.7997,-5.7997,0.0,0.0,0.0,0.0,-6.0603,-6.1263,0.0,0.0,0.0,0.0,0.0,0.0,0.0,0.0,-6.278,0.0,-6.283,0.0,-6.2855,-6.2978,-6.2904,0.0,0.0,0.0,0.0,0.0,0.0,0.0,0.0,0.0,0.0,0.0,0.0,0.0,0.0,0.0,0.0,0.0,0.0,0.0,0.0,0.0,-7.1651,-7.2459,-7.2496,-7.2496,-7.2496,-7.2496,-7.2496,-7.2496,-7.2496,-7.2496,-7.2496,-7.2496,-7.2496,-7.2496,-7.2496,-7.2496,-7.2496,-7.2496,-7.2496,-7.2496,-7.2496,-7.2496,-7.2496,-7.2496,-7.2496,-7.2496,-7.2496,-7.2496,-7.2569,-7.3193,-7.3523,-7.3891,0.0,0.0,0.0,0.0,0.0,0.0,0.0,0.0,0.0,0.0,0.0,0.0,0.0,0.0,0.0,0.0,0.0,0.0,0.0,0.0,0.0,0.0,0.0,-5.7997,-5.7997,-5.7997,-5.7997,-5.7997,-5.7997,-5.7997,-5.7997,-5.7997,-5.7997,-5.7997,-5.7997,-5.7997,-5.7997,-5.7997,-5.7997,-5.7997,-5.7997,0.0,0.0,0.0,0.0,0.0,-6.13,-6.1851,0.0,-6.2658,-6.278,-6.278,0.0,0.0,0.0,0.0,-6.278,-6.278,-6.278,-6.278,-6.2805,-6.288,-6.2855,-6.278,0.0,0.0,0.0,0.0,0.0,0.0,0.0,0.0,0.0,0.0,0.0,0.0,0.0,0.0,0.0,0.0,0.0,0.0,0.0,0.0,-7.2055,-7.2459,-7.2496,-7.2496,-7.2496,-7.2496,-7.2496,-7.2496,-7.2496,-7.2496,-7.2496,-7.2496,-7.2496,-7.2496,-7.2496,-7.2496,-7.2496,-7.2496,-7.2496,-7.2496,-7.2496,-7.2496,-7.2496,-7.2496,-7.2496,-7.2496,-7.2496,-7.2716,-7.3083,-7.3523,-7.4147,-7.4918,0.0,0.0,0.0,0.0,0.0,0.0,0.0,0.0,0.0,0.0,0.0,0.0,0.0,0.0,0.0,0.0,0.0,0.0,0.0,0.0,0.0,0.0,-5.7997,-5.7997,-5.7997,-5.7997,-5.7997,-5.7997,-5.7997,-5.7997,-5.7997,-5.7997,-5.7997,-5.7997,-5.7997,-5.7997,-5.7997,-5.7997,-5.7997,-5.7997,-5.8143,0.0,0.0,0.0,0.0,0.0,0.0,0.0,0.0,-6.278,-6.278,-6.278,-6.278,0.0,0.0,0.0,0.0,0.0,-6.278,-6.278,-6.278,-6.278,-6.278,-6.278,-6.278,0.0,0.0,0.0,0.0,0.0,0.0,-6.2915,0.0,0.0,0.0,0.0,0.0,0.0,0.0,0.0,0.0,0.0,-7.0257,-7.1615,-7.2496,-7.2496,-7.2496,-7.2496,-7.2496,-7.2496,-7.2496,-7.2496,-7.2496,-7.2496,-7.2496,-7.2496,-7.2496,-7.2496,-7.2496,-7.2496,-7.2496,-7.2496,-7.2496,-7.2496,0.0,0.0,-7.2496,-7.2496,-7.2496,-7.2496,-7.2642,-7.3083,-7.3707,-7.3964,-7.4918,-7.613,0.0,0.0,0.0,0.0,0.0,0.0,0.0,0.0,0.0,0.0,0.0,0.0,0.0,0.0,0.0,0.0,0.0,0.0,0.0,0.0,0.0,-5.7997,-5.7997,-5.7997,-5.7997,-5.7997,-5.7997,-5.7997,-5.7997,-5.7997,-5.7997,-5.7997,-5.7997,-5.7997,-5.7997,-5.7997,-5.7997,-5.7997,-5.7997,-5.807,-5.8767,0.0,0.0,0.0,0.0,0.0,0.0,0.0,0.0,-6.278,-6.278,-6.278,-6.278,0.0,0.0,0.0,0.0,0.0,-6.278,-6.278,-6.278,-6.278,-6.278,-6.278,-6.278,0.0,0.0,0.0,0.0,0.0,0.0,-6.3392,-6.4163,0.0,0.0,0.0,0.0,0.0,0.0,0.0,0.0,0.0,-7.1064,-7.1982,-7.2496,-7.2496,-7.2496,-7.2496,-7.2496,-7.2496,-7.2496,-7.2496,-7.2496,-7.2496,-7.2496,-7.2496,-7.2496,-7.2496,-7.2496,-7.2496,-7.2496,-7.2496,-7.2496,-7.2496,0.0,-7.2496,-7.2496,-7.2496,-7.2496,-7.2569,-7.323,-7.3597,-7.3854,-7.5212,-7.5873,-7.6203,0.0,0.0,0.0,0.0,0.0,0.0,0.0,0.0,0.0,0.0,0.0,0.0,0.0,0.0,0.0,0.0,0.0,0.0,0.0,0.0,-5.7997,-5.7997,-5.7997,-5.7997,-5.7997,-5.7997,-5.7997,-5.7997,-5.7997,-5.7997,-5.7997,-5.7997,-5.7997,-5.7997,-5.7679,-5.7522,-5.7559,-5.7996,-5.8178,-5.8276,0.0,0.0,0.0,0.0,0.0,0.0,0.0,0.0,0.0,0.0,-6.2567,-6.2386,-6.2705,0.0,0.0,0.0,0.0,0.0,-6.278,-6.278,-6.278,-6.278,-6.278,-6.278,0.0,0.0,0.0,0.0,0.0,0.0,0.0,0.0,0.0,0.0,0.0,0.0,0.0,0.0,0.0,0.0,0.0,-7.0257,-7.0624,-7.1762,-7.2496,-7.2496,-7.2496,-7.2496,-7.2496,-7.2496,-7.2496,-7.2496,-7.2496,-7.2496,-7.2496,-7.2496,-7.2496,-7.2496,-7.2496,-7.2496,-7.2496,-7.2496,-7.2496,-7.2496,0.0,-7.2496,-7.2496,-7.2496,-7.2496,-7.2569,-7.3377,-7.3964,-7.4551,-7.6166,-7.6754,-7.6827,0.0,0.0,0.0,0.0,0.0,0.0,0.0,0.0,0.0,0.0,0.0,0.0,0.0,0.0,0.0,0.0,0.0,0.0,0.0,0.0,-5.7997,-5.7997,-5.7997,-5.7997,-5.7997,-5.7997,-5.7997,-5.7997,-5.7997,-5.7997,-5.7997,-5.7997,-5.7997,-5.7973,-5.7522,-5.7399,-5.7617,-5.8109,-5.842,-5.8663,0.0,0.0,0.0,0.0,0.0,0.0,0.0,0.0,0.0,0.0,0.0,0.0,0.0,0.0,0.0,-6.2755,-6.278,-6.278,-6.278,-6.278,-6.278,-6.278,0.0,0.0,0.0,0.0,0.0,0.0,0.0,0.0,0.0,0.0,0.0,0.0,0.0,0.0,-6.7687,-6.7687,-6.7687,-6.7687,-6.9119,-7.011,-7.011,-7.1578,-7.2496,-7.2496,-7.2496,-7.2496,-7.2496,-7.2496,-7.2496,-7.2496,-7.2496,-7.2496,-7.2496,-7.2496,-7.2496,-7.2496,-7.2496,-7.2496,-7.2496,-7.2496,-7.2496,-7.2496,-7.2496,-7.2496,-7.2496,-7.2496,-7.2606,-7.2863,-7.367,-7.4588,-7.5586,-7.6833,-7.7273,-7.7273,0.0,0.0,0.0,0.0,0.0,0.0,0.0,0.0,0.0,0.0,0.0,0.0,0.0,0.0,0.0,0.0,0.0,0.0,0.0,0.0,-5.7997,-5.7997,-5.7997,-5.7997,-5.7997,-5.7997,-5.7997,-5.7997,-5.7997,-5.7997,-5.7997,-5.7997,-5.7997,-5.7997,-5.795,-5.833,-5.904,-5.8526,-5.8756,-5.9454,-5.9657,0.0,0.0,0.0,0.0,0.0,0.0,0.0,0.0,0.0,0.0,0.0,0.0,0.0,-6.2059,-6.2654,-6.278,-6.278,-6.278,-6.278,-6.278,-6.278,-6.278,0.0,-6.278,-6.278,0.0,-6.278,0.0,0.0,0.0,0.0,0.0,0.0,0.0,0.0,0.0,0.0,-6.7687,-6.7687,-6.9119,-7.011,-7.011,-7.1578,-7.2496,-7.2496,-7.2496,-7.2496,-7.2496,-7.2496,-7.2496,-7.2496,-7.2496,-7.2496,-7.2496,-7.2496,-7.2496,-7.2496,-7.2496,-7.2496,-7.2496,-7.2496,-7.2496,-7.2496,-7.2496,-7.2496,-7.2496,-7.2496,-7.2936,-7.367,-7.4515,-7.5763,-7.7127,-7.7237,-7.7273,-7.7273,0.0,0.0,0.0,0.0,0.0,0.0,0.0,0.0,0.0,0.0,0.0,0.0,0.0,0.0,0.0,0.0,0.0,0.0,0.0,-5.7997,-5.7997,-5.7997,-5.7997,-5.7997,-5.7997,-5.7997,-5.7997,-5.7997,-5.7997,-5.7997,-5.7997,-5.7594,-5.7655,-5.7973,-5.776,-5.7815,-5.8123,-5.8906,-5.9398,-5.9785,-6.0716,-6.1096,0.0,0.0,0.0,0.0,0.0,0.0,0.0,0.0,-6.1358,-6.0891,-6.1924,-6.1778,-6.1464,-6.249,-6.2515,-6.2334,-6.2705,-6.278,-6.278,-6.278,-6.278,0.0,0.0,-6.278,-6.278,-6.278,-6.3246,0.0,0.0,0.0,0.0,0.0,0.0,0.0,0.0,-6.7687,-6.7871,-6.8385,-6.9412,-7.0293,-7.0807,-7.1872,-7.2496,-7.2496,-7.2496,-7.2496,-7.2496,-7.2496,-7.2496,-7.2496,-7.2496,-7.2496,-7.2496,-7.2496,-7.2496,-7.2496,-7.2496,-7.2496,-7.2496,-7.2496,-7.2496,-7.2496,-7.2496,-7.2496,-7.2496,-7.2496,-7.2973,-7.3817,-7.5139,-7.635,-7.7273,-7.7273,-7.7273,-7.7273,0.0,0.0,0.0,0.0,0.0,0.0,0.0,0.0,0.0,0.0,0.0,0.0,0.0,0.0,0.0,0.0,0.0,0.0,-5.7997,-5.7997,-5.7997,-5.7997,-5.7997,-5.7997,-5.7997,-5.7997,-5.7997,-5.7997,-5.7997,-5.7997,-5.7997,-5.7862,-5.7996,-5.8354,-5.8218,-5.8231,-5.8498,-5.9193,-5.9651,-5.9935,-6.0671,-6.0974,0.0,0.0,0.0,0.0,0.0,0.0,0.0,0.0,-6.0861,-6.0437,-6.1329,-6.1265,-6.112,-6.2192,-6.2229,-6.2032,-6.2654,-6.278,-6.2755,-6.2541,0.0,0.0,-6.2541,-6.2679,-6.278,-6.278,-6.3723,0.0,0.0,0.0,0.0,0.0,0.0,0.0,0.0,-6.7687,-6.7907,-6.8458,-6.9449,-7.033,-7.0881,-7.1872,-7.2496,-7.2496,-7.2496,-7.2496,-7.2496,-7.2496,-7.2496,-7.2496,-7.2496,-7.2496,-7.2496,-7.2496,-7.2496,-7.2496,-7.2496,-7.2496,-7.2496,-7.2496,-7.2496,-7.2496,-7.2496,-7.2496,-7.2532,-7.2789,-7.3487,-7.4588,-7.5946,-7.6827,-7.7273,-7.7273,-7.7273,-7.7273,0.0,0.0,0.0,0.0,0.0,0.0,0.0,0.0,0.0,0.0,0.0,0.0,0.0,0.0,0.0,0.0,0.0,0.0,-5.7997,-5.7997,-5.7997,-5.7997,-5.7997,-5.7997,-5.7997,-5.7997,-5.7997,-5.7997,-5.7997,-5.7997,-5.8033,-5.8817,-5.9161,-5.9197,-5.9423,-5.9951,-6.0594,-5.9365,-5.9268,-5.9937,-5.9249,-5.9012,-5.9081,0.0,0.0,0.0,0.0,0.0,0.0,0.0,-6.0406,-6.0879,-6.0915,-6.0915,-6.1033,-6.1668,-6.1897,-6.2005,-6.2629,-6.278,-6.2654,0.0,0.0,0.0,-6.2032,-6.2386,-6.278,-6.2817,0.0,-6.5558,-6.6366,0.0,0.0,-6.7687,-6.7687,-6.7687,-6.7687,-6.7687,-6.7687,-6.7714,-6.9119,-7.011,-7.011,-7.1578,-7.2496,-7.2496,-7.2496,-7.2496,-7.2496,-7.2496,-7.2496,-7.2496,-7.2496,-7.2496,-7.2496,-7.2496,-7.2496,-7.2496,-7.2496,-7.2496,-7.2496,-7.2496,-7.2496,-7.2496,-7.2496,-7.2496,-7.2569,-7.3377,-7.4661,-7.6166,-7.698,-7.7273,-7.7273,-7.7273,-7.7273,-7.7273,0.0,0.0,0.0,0.0,0.0,0.0,0.0,0.0,0.0,0.0,0.0,0.0,0.0,0.0,0.0,0.0,0.0,0.0,-5.7997,-5.7997,-5.7997,-5.7997,-5.7997,-5.7997,-5.7997,-5.8547,-5.8584,-5.7997,-5.757,-5.7862,-5.8794,-5.7774,-5.807,-5.9397,-5.9181,-5.9182,-5.94,-5.9566,-5.9759,-5.9969,-5.9776,-5.9714,-5.9746,0.0,0.0,0.0,0.0,0.0,0.0,0.0,0.0,0.0,-6.0093,0.0,-5.9774,-6.0885,-6.0921,-6.0802,-6.1869,-6.1806,0.0,-6.2324,0.0,0.0,0.0,-6.2679,0.0,0.0,-6.5411,-6.6402,-6.7173,0.0,0.0,-6.7687,-6.7687,-6.7687,-6.7687,-6.7687,-6.7907,-6.8495,-6.9449,-7.033,-7.0881,-7.1908,-7.2496,-7.2496,-7.2496,-7.2496,-7.2496,-7.2496,-7.2496,-7.2496,-7.2496,-7.2496,-7.2496,-7.2496,-7.2496,-7.2496,-7.2496,-7.2496,-7.2496,-7.2496,-7.2496,-7.2496,-7.2496,-7.2826,-7.345,-7.4808,-7.5652,-7.6166,-7.698,-7.7273,-7.7273,-7.7273,-7.7273,-7.7273,0.0,0.0,0.0,0.0,0.0,0.0,0.0,0.0,0.0,0.0,-5.7997,0.0,0.0,0.0,0.0,0.0,0.0,0.0,0.0,-5.8951,-5.8951,-5.8951,-5.8951,-5.8951,-5.8951,-5.9428,-5.9465,-5.8951,-5.8604,-5.886,-5.9637,-5.8619,-5.8829,-5.9934,-5.9531,-5.9334,-5.9271,-5.9504,-5.9615,-5.9615,-5.9615,-5.9615,-5.9615,0.0,0.0,0.0,0.0,0.0,0.0,0.0,0.0,0.0,-5.9549,0.0,-5.9549,-6.0344,-6.0282,-6.0223,-6.1243,-6.1207,0.0,-6.186,-6.1778,-6.1612,-6.1942,0.0,0.0,0.0,0.0,-6.6733,-6.754,-6.7488,0.0,-6.766,-6.746,-6.7405,-6.766,-6.7687,-6.7871,-6.8385,-6.9412,-7.0209,-7.0362,-7.1691,-7.238,-7.2108,-7.2314,-7.2496,-7.2496,-7.2496,-7.2496,-7.2496,-7.2496,-7.2496,-7.2496,-7.2496,-7.2496,-7.2496,-7.2496,-7.2496,-7.2496,-7.2496,-7.2496,-7.2532,-7.2826,-7.3413,-7.4294,-7.5579,-7.6276,-7.6644,-7.709,-7.7273,-7.7273,-7.7273,-7.7273,-7.7273,0.0,0.0,0.0,0.0,0.0,0.0,0.0,0.0,0.0,0.0,-5.807,-5.8107,0.0,0.0,0.0,0.0,0.0,0.0,0.0,0.0,-6.0419,-6.0419,-6.0419,-6.0419,-6.0419,-6.0456,-6.0469,-6.042,-6.0347,-6.0347,-6.0433,-6.0481,-6.0548,-6.0602,-6.0123,-5.9905,-5.9876,-5.9249,-5.9012,-5.9012,-5.9012,-5.9012,-5.9012,-5.9012,0.0,0.0,0.0,0.0,0.0,0.0,0.0,0.0,-5.9217,-5.9417,-5.9905,-5.9905,-5.9905,-6.0033,-6.0646,0.0,0.0,-6.0938,-6.1003,0.0,-6.1016,0.0,-6.414,-6.4283,0.0,-6.6806,-6.7486,-6.7117,-6.6917,-6.7488,-6.7089,-6.6946,-6.7606,-6.7687,-6.7687,-6.7687,-6.9018,-6.9652,-6.9062,-7.0996,-7.2064,-7.1453,-7.2108,-7.2496,-7.2496,-7.2496,-7.2496,-7.2496,-7.2496,-7.2496,-7.2496,-7.2496,-7.2496,-7.2496,-7.2496,-7.2496,-7.2496,-7.2496,-7.2532,-7.2642,-7.345,-7.4258,-7.5065,-7.5873,-7.6644,-7.7273,-7.7273,-7.7273,-7.7273,-7.7273,-7.7273,-7.7273,0.0,0.0,0.0,0.0,0.0,0.0,0.0,0.0,0.0,0.0,0.0,0.0,0.0,0.0,0.0,0.0,0.0,0.0,0.0,0.0,-6.0419,-6.0419,-6.0419,-6.0419,-6.0419,-6.1006,-6.1103,-6.0643,-6.0051,-6.0051,-6.0617,-5.9708,-5.9628,-6.0132,-5.9478,-5.925,-5.9217,-5.9081,-5.9012,-5.9012,-5.9012,-5.9012,-5.9012,-5.9012,-5.9012,0.0,0.0,0.0,0.0,0.0,0.0,0.0,-5.9047,-5.9115,-5.925,-5.925,-5.925,-5.935,0.0,-6.0223,0.0,0.0,0.0,0.0,0.0,-6.3142,-6.4274,-6.4307,-6.5989,-6.7332,-6.6996,-6.6794,-6.6736,-6.6881,-6.6794,-6.6946,-6.7606,-6.7687,-6.7687,-6.7687,-6.8078,-6.8529,-6.8965,-7.009,-7.0956,-7.1386,-7.2108,-7.2496,-7.2496,-7.2496,-7.2496,-7.2496,-7.2496,-7.2496,-7.2496,-7.2496,-7.2496,-7.2496,-7.2496,-7.2496,-7.2496,-7.2496,-7.2826,-7.3487,-7.4294,-7.5102,-7.5909,-7.6717,-7.7127,-7.7273,-7.7273,-7.7273,-7.7273,-7.7273,-7.7273,-7.72,0.0,0.0,0.0,0.0,0.0,0.0,0.0,0.0,0.0,0.0,0.0,0.0,0.0,0.0,0.0,0.0,0.0,0.0,0.0,0.0,-6.112,-6.112,-6.1372,-6.1557,-6.1557,-6.1675,-6.1574,-6.1281,-6.0575,-6.0575,-6.1254,-6.0022,-5.9773,-6.0406,-5.945,-5.9012,-5.9012,-5.9012,-5.9012,-5.9012,-5.9012,-5.9012,-5.9012,-5.9012,-5.9012,-5.9012,-5.9012,0.0,0.0,0.0,0.0,0.0,0.0,0.0,-5.9012,-5.9012,-5.9012,-5.9081,0.0,0.0,0.0,0.0,0.0,0.0,0.0,0.0,0.0,0.0,0.0,0.0,0.0,-6.6156,-6.6283,-6.6648,-6.6707,-6.6946,-6.7606,-6.7433,-6.7202,-6.7202,-6.7306,-6.7541,-6.7942,-6.9056,-7.0073,-7.08,-7.1547,-7.2137,-7.2467,-7.2496,-7.2496,-7.2496,-7.2496,-7.2496,-7.2496,-7.2496,-7.2496,-7.2496,-7.2496,-7.2496,-7.2496,-7.2496,-7.2936,-7.3744,-7.4551,-7.5359,-7.6166,-7.6974,-7.7273,-7.7273,-7.7273,-7.7273,-7.7273,-7.7273,-7.7273,-7.7163,0.0,0.0,0.0,0.0,0.0,0.0,0.0,0.0,0.0,0.0,0.0,0.0,0.0,0.0,0.0,0.0,0.0,0.0,0.0,0.0,0.0,-6.2059,-6.2438,-6.2654,-6.2654,-6.2032,-6.1723,-6.1723,-6.1062,-6.1091,-6.1696,-6.0529,-6.0188,-6.0524,-5.9482,-5.9012,-5.9012,-5.9012,-5.9012,-5.9012,-5.9012,-5.9012,-5.9012,-5.9012,-5.9012,-5.9012,-5.9012,0.0,-5.9012,-5.9012,0.0,0.0,0.0,0.0,-5.9012,-5.9012,-5.9012,-5.9012,0.0,0.0,0.0,0.0,0.0,0.0,0.0,0.0,0.0,0.0,0.0,0.0,0.0,0.0,0.0,-6.6374,-6.6529,-6.6794,-6.7606,-6.7202,-6.6823,-6.6707,-6.6643,-6.6647,-6.6672,-6.8007,-6.9164,-7.005,-7.093,-7.1738,-7.2467,-7.2496,-7.2496,-7.2496,-7.2496,-7.2496,-7.2496,-7.2496,-7.2496,-7.2496,-7.2496,-7.2569,-7.2716,-7.2716,-7.3156,-7.3927,-7.4771,-7.5579,-7.635,-7.7017,-7.7273,-7.7273,-7.7273,-7.7273,-7.7273,-7.7273,-7.72,-7.698,0.0,0.0,0.0,0.0,0.0,0.0,0.0,0.0,0.0,0.0,0.0,0.0,0.0,0.0,0.0,0.0,0.0,0.0,0.0,0.0,0.0,-6.2679,-6.2281,-6.2005,-6.2005,-6.135,-6.1033,-6.1033,-6.0437,-6.0437,-6.1033,-6.0313,-5.9711,-5.9249,-5.9081,-5.9012,-5.9012,-5.9012,-5.9012,-5.9012,-5.9012,-5.9012,-5.9012,-5.9012,-5.9012,-5.9012,-5.9012,-5.9012,-5.9012,-5.9012,-5.9012,0.0,0.0,0.0,-5.9012,-5.9012,-5.9012,-5.9012,0.0,0.0,0.0,0.0,0.0,0.0,0.0,0.0,0.0,0.0,0.0,0.0,0.0,0.0,0.0,0.0,0.0,0.0,0.0,-6.7633,-6.735,-6.6765,-6.6141,-6.5762,-6.5829,-6.6743,-6.7869,-6.9265,-7.0606,-7.1738,-7.2467,-7.2496,-7.2496,-7.2496,-7.2496,-7.2496,-7.2496,-7.2496,-7.2496,-7.2496,-7.2496,-7.2863,-7.3523,-7.3523,-7.3964,-7.4808,-7.5579,-7.6423,-7.7127,-7.7237,-7.7273,-7.7273,-7.7273,-7.7273,-7.7273,-7.7273,-7.6864,-7.6166,0.0,0.0,0.0,0.0,0.0,0.0,0.0,0.0,0.0,0.0,0.0,0.0,0.0,0.0,0.0,0.0,0.0,0.0,0.0,0.0,0.0,-6.1778,-6.1464,-6.1528,-6.1897,-6.0921,-6.0555,-6.0879,-5.9902,-5.958,-5.9838,-5.9547,-5.9483,-5.9549,-5.9183,-5.9012,-5.9012,-5.9012,-5.9012,-5.9012,-5.9012,-5.9012,-5.9012,-5.9012,-5.9012,-5.9012,-5.9012,-5.9012,-5.9012,-5.9012,-5.9012,-5.9012,-5.9012,0.0,0.0,0.0,0.0,0.0,-5.9012,0.0,0.0,0.0,0.0,0.0,0.0,0.0,0.0,0.0,0.0,0.0,0.0,0.0,0.0,0.0,0.0,0.0,0.0,0.0,0.0,-6.5593,-6.4907,-6.4638,-6.5118,-6.5465,-6.6526,-6.8434,-6.958,-7.0662,-7.1824,-7.2255,-7.2496,-7.2496,-7.2496,-7.2496,-7.2496,-7.2496,-7.2496,-7.2496,-7.2496,-7.2936,-7.3707,-7.3721,-7.4223,-7.5019,-7.5794,-7.6318,-7.6733,-7.7118,-7.7273,-7.7273,-7.7273,-7.7273,-7.7237,-7.679,-7.6423,-7.5909,0.0,0.0,0.0,0.0,0.0,0.0,0.0,0.0,0.0,0.0,0.0,0.0,0.0,0.0,0.0,0.0,0.0,0.0,0.0,0.0,0.0,-6.1178,-6.1003,-6.1149,-6.164,-6.056,-6.0219,-6.0676,-5.9547,-5.9081,-5.9249,-5.9081,-5.9249,-5.9746,-5.9216,-5.9012,-5.9012,-5.9012,-5.9012,-5.9012,-5.9012,-5.9012,-5.9012,-5.9012,-5.9012,-5.9012,-5.9012,-5.9012,0.0,0.0,0.0,0.0,0.0,0.0,0.0,0.0,0.0,0.0,0.0,0.0,0.0,0.0,0.0,0.0,0.0,0.0,0.0,0.0,0.0,0.0,0.0,0.0,0.0,0.0,0.0,0.0,0.0,0.0,0.0,0.0,-6.4147,-6.3993,-6.4396,-6.46,-6.5489,-6.7373,-6.8398,-6.9475,-7.0775,-7.1531,-7.2011,-7.2197,-7.2011,-7.2011,-7.2226,-7.2226,-7.2314,-7.2496,-7.2496,-7.2922,-7.3733,-7.3784,-7.4124,-7.4753,-7.5495,-7.5822,-7.5929,-7.6733,-7.7024,-7.7056,-7.7212,-7.7273,-7.72,-7.6387,-7.5983,-7.5579,0.0,0.0,0.0,0.0,0.0,0.0,0.0,0.0,0.0,0.0,0.0,0.0,-6.273,-6.278,-6.278,-6.278,0.0,0.0,0.0,0.0,0.0,-6.1842,-6.1236,0.0,-6.0938,-6.0313,-6.0001,-6.0033,-5.935,-5.9317,-5.9905,-5.9283,-5.9012,-5.9047,-5.9012,-5.9012,-5.9012,-5.9012,-5.9012,-5.9012,-5.9012,-5.9012,-5.9012,-5.9012,-5.9012,-5.9012,-5.9012,0.0,0.0,0.0,0.0,0.0,0.0,0.0,0.0,0.0,0.0,0.0,0.0,0.0,0.0,0.0,0.0,0.0,0.0,0.0,0.0,0.0,0.0,0.0,0.0,0.0,0.0,0.0,0.0,0.0,0.0,0.0,0.0,0.0,0.0,-6.4288,-6.3708,-6.4289,-6.5038,-6.5865,-6.734,-6.8505,-6.9297,-7.0009,-7.0704,-7.1422,-7.0806,-7.0737,-7.1453,-7.1448,-7.1794,-7.2496,-7.2496,-7.2941,-7.3809,-7.3812,-7.3829,-7.3885,-7.4719,-7.5084,-7.5119,-7.5929,-7.627,-7.6336,-7.7024,-7.7273,-7.72,-7.6387,-7.5616,-7.4845,0.0,0.0,0.0,0.0,0.0,0.0,0.0,0.0,0.0,0.0,0.0,0.0,0.0,-6.278,-6.278,-6.278,-6.278,0.0,0.0,0.0,0.0,-6.1265,-6.0681,-6.0313,-6.0313,-5.9679,-5.9582,-6.0001,-5.9317,-5.9149,-5.935,-5.9115,-5.9012,-5.9012,-5.9012,-5.9012,-5.9012,-5.9012,-5.9012,-5.9012,-5.9012,-5.9012,-5.9012,-5.9012,0.0,0.0,0.0,0.0,0.0,0.0,0.0,0.0,0.0,0.0,0.0,0.0,0.0,0.0,0.0,0.0,0.0,0.0,0.0,0.0,0.0,0.0,0.0,0.0,0.0,0.0,0.0,0.0,0.0,0.0,0.0,0.0,0.0,0.0,0.0,0.0,0.0,0.0,0.0,-6.3841,-6.4297,-6.5042,-6.6037,-6.7165,-6.8435,-6.917,-6.9935,-7.0671,-7.0436,-7.0436,-7.0671,-7.1163,-7.1547,-7.1799,-7.2314,-7.2989,-7.3783,-7.3261,-7.3312,-7.3799,-7.3597,-7.3795,-7.434,-7.5653,-7.6203,-7.627,-7.7024,-7.698,-7.6423,-7.5652,-7.4808,-7.4001,0.0,0.0,0.0,0.0,0.0,0.0,0.0,0.0,0.0,-6.2464,0.0,0.0,0.0,0.0,-6.273,-6.2515,-6.2271,-6.2086,-6.186,-6.1472,-6.1156,-6.0879,-6.0529,-6.0313,-6.0313,-5.9625,-5.9402,-5.9681,-5.8973,-5.8771,-5.9012,-5.9012,-5.9012,-5.9012,-5.9012,-5.9012,-5.9012,-5.9012,0.0,-5.9012,0.0,0.0,-5.9012,0.0,0.0,0.0,0.0,0.0,0.0,0.0,0.0,0.0,0.0,0.0,0.0,0.0,0.0,0.0,0.0,0.0,0.0,0.0,0.0,0.0,0.0,0.0,0.0,0.0,0.0,0.0,0.0,0.0,0.0,0.0,0.0,0.0,0.0,0.0,0.0,0.0,0.0,0.0,0.0,0.0,0.0,-6.4289,-6.5013,0.0,-6.6907,-6.7939,-6.8788,-6.9565,-6.9778,-6.9919,-6.9919,-7.0438,-7.0806,-7.1035,-7.1831,-7.249,-7.3041,-7.2707,-7.2902,-7.3432,-7.2929,-7.3012,-7.3517,-7.4864,-7.5547,-7.5825,-7.634,-7.6318,-7.5983,-7.4882,-7.4147,-7.356,0.0,0.0,0.0,0.0,0.0,0.0,0.0,0.0,-6.1178,-6.1842,0.0,0.0,0.0,0.0,0.0,-6.1951,-6.1293,-6.0676,-6.0065,-6.0001,-6.0282,-6.0855,0.0,0.0,-6.082,-6.0136,-5.9505,-5.9012,-5.8288,-5.8323,-5.9012,-5.9012,-5.9012,-5.9012,-5.9012,-5.9012,-5.9012,0.0,-5.9012,-5.9012,0.0,-5.9012,-5.9012,0.0,0.0,0.0,-5.9012,-5.9012,0.0,-5.9012,0.0,0.0,0.0,0.0,0.0,0.0,0.0,0.0,0.0,0.0,0.0,0.0,0.0,0.0,0.0,0.0,0.0,0.0,0.0,0.0,0.0,0.0,0.0,0.0,0.0,0.0,0.0,0.0,0.0,0.0,0.0,0.0,0.0,0.0,0.0,-6.3634,-6.4289,-6.4703,-6.4738,-6.6186,-6.7325,-6.8083,-6.8787,-6.9198,-6.9198,-6.9198,-6.9564,-7.0266,-7.1122,-7.148,-7.1549,-7.2283,-7.2654,-7.2713,-7.2713,-7.2713,-7.2755,-7.3517,-7.4302,-7.5012,-7.5029,-7.5462,-7.5873,-7.4258,-7.367,-7.356,0.0,0.0,0.0,0.0,0.0,0.0,0.0,0.0,-6.2192,0.0,0.0,0.0,-6.1464,-6.186,-6.2059,-6.1924,-6.1723,-6.1358,-6.0676,-6.0646,-6.0524,-6.0251,-6.0251,-5.9998,-5.9547,-5.9338,-5.9175,-5.9012,-5.8806,-5.8806,-5.9012,-5.9012,-5.9012,-5.9012,-5.9012,-5.9012,-5.9012,-5.9012,0.0,-5.9012,-5.9012,-5.9012,0.0,0.0,0.0,0.0,0.0,-5.9012,-5.9012,0.0,-5.9012,-5.9012,0.0,0.0,0.0,0.0,0.0,0.0,-5.9012,0.0,0.0,0.0,0.0,0.0,0.0,0.0,0.0,0.0,0.0,0.0,0.0,0.0,0.0,0.0,0.0,0.0,0.0,0.0,0.0,0.0,0.0,0.0,0.0,0.0,0.0,0.0,-6.4083,-6.4393,-6.5497,-6.6462,-6.7325,-6.8083,-6.8319,-6.8401,-6.8401,-6.8938,-6.9273,-6.9492,-7.0867,-7.1493,-7.1511,-7.2284,-7.268,-7.2713,-7.2713,-7.2713,-7.2797,-7.4111,-7.4827,-7.5084,-7.5592,-7.5574,-7.5102,-7.4074,-7.334,-7.2789,0.0,0.0,0.0,0.0,0.0,0.0,0.0,0.0,-6.1584,0.0,0.0,0.0,-6.0938,-6.1003,-6.1098,-6.1098,-6.1098,-6.0831,-6.0153,-6.0371,-6.0375,-6.0001,-6.0001,-5.9844,-5.9417,-5.9104,-5.8971,-5.9012,-5.8702,-5.8702,-5.9012,-5.9012,-5.9012,-5.9012,0.0,0.0,0.0,0.0,0.0,0.0,-5.9012,0.0,0.0,-5.9012,-5.9012,0.0,0.0,0.0,-5.9461,-5.9116,-5.9012,0.0,0.0,0.0,0.0,0.0,0.0,0.0,0.0,0.0,0.0,0.0,0.0,0.0,-6.0944,-6.1289,-6.1737,0.0,0.0,0.0,0.0,0.0,0.0,0.0,0.0,0.0,0.0,0.0,0.0,0.0,0.0,0.0,0.0,-6.36,-6.3772,-6.422,-6.4117,-6.46,-6.5807,-6.629,-6.6876,-6.7601,-6.7945,-6.8083,-6.8083,-6.8517,-6.8886,-6.9234,-7.0453,-7.122,-7.1494,-7.2334,-7.2713,-7.2713,-7.2713,-7.2713,-7.2762,-7.3678,-7.4033,-7.4074,-7.4488,-7.4352,-7.3897,-7.3399,-7.2688,-7.2108,0.0,0.0,0.0,0.0,0.0,0.0,0.0,0.0,0.0,0.0,-6.0766,-6.0736,-6.0796,-6.0313,-6.0001,-6.0001,-6.0001,-5.9714,-5.9047,-5.9549,-5.9873,-5.9873,-5.9873,-5.9873,-5.9873,-5.9243,-5.8953,-5.9012,-5.8357,-5.8357,-5.9012,-5.9012,-5.9012,-5.9012,0.0,0.0,0.0,0.0,0.0,-5.9254,-5.9185,-5.9185,0.0,0.0,-5.9254,-5.9254,-5.9254,-5.9737,-6.022,-5.9495,-5.9254,0.0,0.0,0.0,0.0,0.0,-5.9081,0.0,0.0,0.0,0.0,0.0,0.0,0.0,-6.1116,-6.1427,-6.1841,-6.3289,0.0,0.0,0.0,0.0,0.0,0.0,0.0,0.0,0.0,0.0,0.0,0.0,0.0,0.0,-6.36,-6.36,-6.3634,-6.3703,-6.4324,-6.5048,-6.5842,-6.5807,-6.6083,-6.6842,-6.7566,-6.798,-6.798,-6.8049,-6.8497,-6.9331,-7.0049,-7.0774,-7.1532,-7.2326,-7.2713,-7.2713,-7.2713,-7.2678,-7.2582,-7.2559,-7.2598,-7.2686,-7.2619,-7.2602,-7.2604,-7.243,-7.1951,-7.1485,0.0,0.0,0.0,0.0,0.0,0.0,0.0,0.0,-6.1214,-6.0282,-5.9711,-5.958,-6.0129,-6.0065,-6.0001,-6.0001,-6.0001,-5.9714,-5.9047,-5.9149,-5.9217,-5.9217,-5.9217,-5.9217,-5.9217,-5.9044,-5.9011,-5.9012,-5.8875,-5.8875,-5.9012,-5.9012,-5.9012,-5.9012,0.0,0.0,0.0,0.0,0.0,-6.0806,-6.0185,0.0,-6.084,-6.084,-6.084,-6.084,-6.084,-6.0944,-6.1047,-6.0909,-6.084,-6.084,0.0,0.0,0.0,0.0,0.0,0.0,0.0,0.0,0.0,0.0,0.0,0.0,-6.2048,-6.2255,-6.2496,0.0,0.0,0.0,0.0,0.0,0.0,0.0,0.0,0.0,0.0,0.0,0.0,0.0,0.0,0.0,-6.36,-6.36,-6.3841,-6.4427,-6.4634,-6.5048,-6.5842,-6.529,-6.529,-6.6083,-6.6807,-6.7187,-6.7187,-6.7807,-6.8497,-6.9331,-7.0049,-7.0774,-7.1532,-7.2326,-7.2713,-7.2713,-7.2713,-7.2326,-7.1746,-7.1739,-7.2121,-7.2689,-7.2609,-7.2597,-7.254,-7.1837,-7.1516,-7.1359,0.0,0.0,0.0,0.0,0.0,0.0,0.0,0.0,-6.0344,-6.0033,-5.9714,-5.9516,-5.9516,-5.9516,-5.9516,-5.9516,-5.9811,-5.9714,0.0,-5.9317,-5.935,-5.9012,-5.9012,-5.9012,-5.9012,-5.9012,-5.9012,-5.9012,-5.9012,-5.9012,-5.9012,-5.9426,-5.9599,-5.9599,0.0,0.0,0.0,0.0,-6.1185,-6.1806,-6.1047,0.0,-6.1289,-6.1289,-6.1289,-6.1289,-6.1289,-6.1289,-6.1358,-6.1772,-6.1634,0.0,0.0,-6.1047,-6.0737,0.0,-6.0461,-6.0151,0.0,0.0,0.0,-6.0737,0.0,0.0,0.0,-6.2496,-6.2703,-6.3427,0.0,0.0,0.0,0.0,0.0,0.0,0.0,0.0,0.0,0.0,0.0,0.0,0.0,0.0,-6.36,-6.36,-6.4048,-6.5186,-6.491,-6.5048,-6.5842,-6.5497,-6.529,-6.529,-6.6048,-6.6635,-6.698,-6.7359,-6.8325,-6.9842,-7.0222,-7.0981,-7.2084,-7.2498,-7.2713,-7.2713,-7.2257,-7.1843,-7.1429,-7.0705,-7.0643,-7.1054,-7.1338,-7.1264,-7.087,-7.0847,-7.064,-7.03,0.0,0.0,0.0,0.0,0.0,0.0,0.0,0.0,0.0,-5.9779,-5.9905,-5.9746,-5.9081,-5.9115,-5.9149,0.0,0.0,0.0,0.0,-5.976,-5.9861,-5.9461,-5.9461,-5.9461,-5.9461,-5.9461,-5.9461,-5.9461,-5.9461,-5.9461,-5.9461,-6.0116,-6.0427,0.0,0.0,0.0,0.0,0.0,0.0,-6.2634,0.0,-6.1737,-6.1737,-6.1737,-6.1737,-6.1737,-6.1737,-6.1737,-6.1841,-6.2496,-6.2289,-6.1737,-6.1737,-6.1634,0.0,0.0,0.0,0.0,0.0,0.0,0.0,0.0,0.0,-6.191,0.0,0.0,0.0,0.0,0.0,0.0,0.0,0.0,0.0,0.0,0.0,0.0,0.0,0.0,0.0,0.0,0.0,0.0,-6.36,-6.36,-6.422,-6.5773,-6.5152,-6.5048,-6.5842,-6.5738,-6.529,-6.4496,-6.5255,-6.5945,-6.6531,-6.6842,-6.8049,-7.0187,-7.0325,-7.1187,-7.2713,-7.2713,-7.2644,-7.2429,-7.1774,-7.1325,-7.0981,-6.9773,-6.9227,-6.9169,-6.9879,-6.976,-6.9273,-6.9849,-6.9743,-6.9237,-5.9216,-5.9148,0.0,0.0,0.0,0.0,0.0,0.0,0.0,-5.9183,-5.9648,-5.9746,-5.9081,0.0,0.0,0.0,0.0,0.0,-6.0013,0.0,0.0,-6.1013,-6.1047,-6.1047,-6.1047,-6.1047,-6.1047,-6.1047,-6.1047,-6.1047,-6.1047,-6.1116,-6.1185,0.0,-6.1254,0.0,0.0,0.0,-6.2772,0.0,-6.3358,-6.3324,0.0,-6.3324,-6.3324,-6.3324,-6.3324,-6.3324,-6.3358,0.0,-6.3393,-6.3324,0.0,-6.2875,-6.2358,0.0,0.0,0.0,0.0,0.0,0.0,0.0,-6.2841,0.0,0.0,0.0,-6.3496,-6.3565,0.0,0.0,0.0,0.0,0.0,0.0,0.0,0.0,0.0,0.0,0.0,0.0,0.0,0.0,0.0,-6.36,-6.422,-6.5773,-6.5152,-6.5048,-6.5842,-6.5221,-6.4496,-6.3738,-6.4462,-6.4876,-6.4945,-6.6324,-6.7807,-6.9394,-7.0084,-7.1187,-7.2713,-7.2713,-7.2291,-7.1636,-7.1532,-7.0739,-6.9532,-6.936,-6.8877,-6.83,-6.904,-6.9268,-6.9235,-6.9273,-6.9273,-6.9124,-5.9012,-5.9012,0.0,0.0,0.0,0.0,0.0,0.0,0.0,-5.9047,-5.925,0.0,0.0,0.0,0.0,0.0,0.0,-6.0496,0.0,0.0,0.0,0.0,-6.1289,-6.1289,-6.1289,-6.1289,-6.1289,-6.1289,-6.1289,-6.1289,-6.1323,-6.1772,0.0,0.0,-6.2427,0.0,-6.3117,0.0,-6.3324,0.0,0.0,0.0,0.0,-6.36,-6.36,-6.36,-6.36,-6.36,-6.36,0.0,-6.36,0.0,0.0,0.0,0.0,0.0,0.0,0.0,0.0,0.0,0.0,0.0,0.0,0.0,-6.36,0.0,-6.36,0.0,0.0,0.0,0.0,0.0,0.0,0.0,0.0,0.0,0.0,0.0,0.0,0.0,0.0,0.0,0.0,0.0,0.0,-6.5773,-6.5566,-6.5704,-6.6497,-6.5807,-6.5014,-6.4255,-6.4117,-6.4255,-6.4703,-6.5324,-6.6635,-6.8601,-6.8911,-6.9877,-7.136,-7.136,-7.1153,-7.0843,-7.0394,-6.9842,-6.9256,-6.8773,-6.8394,-6.8123,-6.844,-6.8555,-6.8555,-6.8555,-6.8555,-6.8517,-5.9012,0.0,0.0,0.0,0.0,0.0,-5.9012,-5.9012,-5.9012,-5.9012,-5.9356,0.0,-6.0151,-6.0532,0.0,0.0,-6.1289,-6.1392,0.0,0.0,-6.1703,0.0,0.0,0.0,0.0,-6.1944,-6.1944,-6.1944,-6.1944,-6.1944,-6.1944,-6.253,0.0,0.0,0.0,-6.36,-6.36,0.0,-6.36,-6.36,-6.36,-6.36,-6.36,-6.36,-6.36,-6.36,-6.36,-6.36,-6.36,-6.36,-6.36,0.0,-6.36,0.0,0.0,0.0,0.0,0.0,-6.36,0.0,0.0,0.0,0.0,0.0,0.0,0.0,0.0,0.0,0.0,0.0,0.0,0.0,0.0,0.0,0.0,0.0,0.0,0.0,0.0,0.0,0.0,0.0,0.0,0.0,0.0,-6.5773,-6.5876,-6.6221,-6.6945,-6.629,-6.5531,-6.4738,-6.3979,-6.3841,-6.4393,-6.46,-6.5738,-6.7807,-6.8014,-6.8911,-7.0394,-7.0394,-7.0291,-7.0049,-6.9497,-6.9153,-6.8911,-6.8325,-6.8083,-6.8083,-6.8083,-6.8083,-6.8083,-6.8083,-6.8083,-6.8083,-5.9012,-5.9012,0.0,0.0,0.0,0.0,-5.9012,-5.9012,-5.9012,-5.9012,-6.0176,0.0,0.0,0.0,0.0,0.0,0.0,-6.1634,-6.2393,0.0,-6.2772,0.0,0.0,-6.3531,0.0,0.0,0.0,-6.3531,-6.3531,-6.3531,-6.3531,0.0,0.0,0.0,-6.3565,-6.36,-6.36,-6.36,-6.36,-6.36,-6.36,-6.36,-6.36,0.0,-6.36,-6.36,-6.36,0.0,0.0,-6.36,-6.36,0.0,0.0,0.0,0.0,0.0,0.0,0.0,0.0,0.0,0.0,-6.36,0.0,0.0,0.0,0.0,-6.36,0.0,0.0,0.0,0.0,0.0,0.0,0.0,0.0,0.0,0.0,0.0,0.0,0.0,0.0,0.0,0.0,0.0,-6.422,-6.5773,-6.5876,-6.6221,-6.6945,-6.629,-6.5531,-6.4738,-6.3979,-6.36,-6.3634,-6.4324,-6.5497,-6.7014,-6.7738,-6.8911,-7.0394,-7.0394,-6.998,-6.9325,-6.9291,-6.8842,-6.8152,-6.8118,-6.8083,-6.8083,-6.8083,-6.8083,-6.8083,-6.8083,-6.8083,-6.8083,0.0,0.0,0.0,0.0,0.0,-5.9012,-5.9012,-5.9461,-5.9806,0.0,-6.0636,0.0,0.0,-6.2124,-6.2541,0.0,0.0,-6.2944,-6.3186,-6.322,0.0,0.0,0.0,-6.36,0.0,0.0,0.0,0.0,0.0,0.0,0.0,0.0,0.0,0.0,0.0,-6.36,0.0,0.0,0.0,0.0,0.0,-6.36,-6.36,0.0,-6.36,-6.36,-6.36,-6.36,0.0,-6.36,-6.36,-6.36,-6.36,-6.36,-6.36,-6.36,-6.36,0.0,0.0,0.0,-6.36,-6.36,0.0,0.0,0.0,0.0,0.0,0.0,0.0,0.0,0.0,0.0,0.0,0.0,0.0,0.0,0.0,0.0,0.0,0.0,0.0,0.0,0.0,0.0,0.0,-6.5773,-6.5876,-6.6428,-6.7669,-6.6566,-6.5773,-6.5497,-6.4255,-6.36,-6.36,-6.4324,-6.5221,-6.6255,-6.7014,-6.7876,-6.8877,-6.8877,-6.8739,-6.8497,-6.8497,-6.8359,-6.8083,-6.8083,-6.8083,-6.8083,-6.8083,-6.8083,-6.8083,-6.8083,-6.8083,-6.8083,-5.9012,0.0,0.0,0.0,0.0,-5.9116,-5.9392,-5.9875,-6.0289,0.0,-6.1254,0.0,-6.2427,0.0,-6.3082,0.0,-6.36,-6.36,-6.36,-6.36,0.0,-6.36,-6.36,0.0,0.0,0.0,0.0,0.0,0.0,-6.36,0.0,0.0,0.0,0.0,0.0,-6.36,-6.36,0.0,-6.36,0.0,0.0,-6.36,0.0,0.0,-6.36,-6.36,0.0,-6.36,-6.36,-6.36,-6.36,-6.36,-6.36,-6.36,-6.36,-6.36,-6.36,-6.36,-6.36,-6.36,0.0,-6.36,-6.36,0.0,-6.36,0.0,0.0,0.0,0.0,0.0,0.0,0.0,0.0,0.0,0.0,0.0,0.0,0.0,0.0,0.0,0.0,0.0,0.0,0.0,-6.422,-6.5773,-6.5876,-6.6531,0.0,-6.6945,-6.6152,-6.5876,-6.4634,-6.3876,-6.36,-6.4324,-6.5083,-6.5876,-6.6635,-6.7394,-6.8083,-6.8083,-6.8083,-6.8083,-6.8083,-6.8083,-6.8083,-6.8083,-6.8083,-6.8083,-6.8083,-6.8083,-6.8083,-6.8083,-6.8083,-6.8083,-5.9012,0.0,0.0,0.0,-5.9081,0.0,0.0,0.0,-6.0565,0.0,-6.2048,-6.253,-6.253,-6.3186,-6.36,-6.36,-6.36,-6.36,-6.36,-6.36,0.0,0.0,-6.36,-6.36,-6.36,0.0,0.0,0.0,0.0,0.0,0.0,0.0,0.0,0.0,-6.36,0.0,-6.36,-6.36,-6.36,-6.36,-6.36,-6.36,-6.3634,-6.3634,-6.3669,-6.3703,-6.3669,-6.3669,-6.3703,-6.3703,-6.3703,-6.3703,-6.3703,-6.3703,-6.3703,-6.3703,-6.3703,-6.3703,-6.3703,-6.3703,-6.3703,-6.3703,-6.3669,0.0,0.0,0.0,-6.36,0.0,0.0,0.0,0.0,0.0,0.0,0.0,0.0,0.0,0.0,0.0,0.0,0.0,0.0,0.0,0.0,-6.3634,-6.4289,-6.5773,-6.5911,0.0,0.0,0.0,-6.6635,-6.5911,-6.5117,-6.4358,-6.36,-6.4358,-6.5117,-6.5911,-6.6669,-6.7428,-6.8083,-6.8083,-6.8083,-6.8083,-6.8083,-6.8083,-6.8083,-6.8083,-6.8083,-6.8083,-6.8083,-6.8083,-6.8083,-6.8083,-6.8083,-6.8083,-5.9012,-5.9495,-5.9909,0.0,-5.9909,-5.9944,0.0,0.0,0.0,0.0,-6.2841,-6.3324,-6.3324,-6.3496,-6.36,-6.36,-6.36,0.0,0.0,0.0,0.0,-6.36,-6.36,-6.36,-6.36,-6.36,0.0,-6.36,0.0,0.0,-6.36,0.0,0.0,0.0,0.0,0.0,-6.36,-6.36,-6.36,-6.36,-6.36,-6.391,-6.4427,0.0,-6.4772,-6.5221,-6.4634,-6.4807,-6.529,-6.529,-6.529,-6.529,-6.529,-6.529,-6.529,-6.529,-6.529,-6.529,-6.529,-6.529,-6.529,-6.529,-6.4841,-6.4427,0.0,0.0,0.0,0.0,0.0,0.0,0.0,0.0,0.0,0.0,0.0,0.0,0.0,0.0,0.0,0.0,0.0,0.0,0.0,-6.4083,-6.4841,-6.5807,-6.6393,0.0,0.0,0.0,0.0,-6.5911,-6.5117,-6.4358,-6.36,-6.491,-6.5669,-6.5911,-6.7187,-6.7911,-6.8083,-6.8083,-6.8083,-6.8083,-6.8083,-6.8083,-6.8083,-6.8083,-6.8083,-6.8083,-6.8083,-6.8083,-6.8083,-6.8083,-6.8083,-6.8083,-5.953,-6.0151,0.0,-6.0668,0.0,0.0,-6.1185,-6.1944,0.0,-6.2944,-6.3324,0.0,-6.36,-6.36,-6.36,-6.36,-6.36,0.0,-6.36,0.0,0.0,-6.36,-6.36,-6.36,-6.36,-6.36,0.0,-6.36,0.0,0.0,-6.36,0.0,0.0,0.0,0.0,-6.36,0.0,-6.36,-6.3772,-6.4083,-6.4083,-6.4531,0.0,-6.5221,-6.5704,-6.629,-6.5876,-6.5773,-6.5876,-6.5876,-6.5876,-6.5876,-6.5876,-6.5876,-6.5876,-6.5876,-6.5876,-6.5876,-6.5876,-6.5876,-6.5876,-6.5876,-6.5531,-6.5221,-6.5221,-6.4876,-6.46,0.0,-6.46,-6.46,0.0,0.0,0.0,0.0,0.0,0.0,0.0,0.0,0.0,0.0,0.0,0.0,0.0,0.0,-6.5014,-6.5807,0.0,0.0,0.0,0.0,0.0,-6.5911,-6.5117,-6.4358,-6.36,-6.5117,-6.5876,-6.5911,-6.7394,-6.8083,-6.8083,-6.8083,-6.8083,-6.8083,-6.8083,-6.8083,-6.8083,-6.8083,-6.8083,-6.8083,-6.8083,-6.8083,-6.8083,-6.8083,-6.8083,-6.8083,-6.0323,0.0,0.0,0.0,0.0,0.0,0.0,-6.2634,0.0,-6.3496,0.0,-6.36,-6.36,-6.36,-6.36,-6.36,0.0,-6.36,-6.36,-6.36,-6.36,-6.36,-6.36,-6.36,-6.36,-6.36,-6.36,0.0,0.0,0.0,0.0,0.0,0.0,0.0,0.0,0.0,0.0,-6.3738,-6.4152,-6.4841,-6.4841,-6.5324,-6.6014,-6.6014,-6.6497,-6.7118,-6.7118,-6.6704,-6.6186,-6.6186,-6.6186,-6.6186,-6.6186,-6.6186,-6.6186,-6.6186,-6.6186,-6.6186,-6.6186,-6.6186,-6.6186,-6.6186,-6.6117,-6.6014,-6.6014,-6.5945,-6.5876,-6.5876,-6.5876,-6.5876,0.0,0.0,0.0,0.0,0.0,0.0,0.0,0.0,0.0,0.0,0.0,0.0,0.0,0.0,0.0,0.0,0.0,0.0,0.0,0.0,0.0,-6.5911,-6.5117,-6.4358,-6.36,-6.5117,-6.5876,-6.5911,-6.7394,-6.8083,-6.8083,-6.8083,-6.8083,-6.8083,-6.8083,-6.8083,-6.8083,-6.8083,-6.8083,-6.8083,-6.8083,-6.8083,-6.8083,-6.8083,-6.8083,-6.8083,-6.1116,0.0,0.0,0.0,0.0,-6.3393,-6.3393,-6.3393,-6.3427,-6.3565,-6.36,-6.36,-6.36,-6.36,-6.36,-6.36,-6.36,0.0,0.0,0.0,0.0,-6.36,-6.36,-6.36,-6.36,-6.36,-6.36,0.0,0.0,0.0,0.0,0.0,0.0,0.0,0.0,0.0,-6.4496,-6.4496,0.0,-6.5669,-6.5669,-6.6117,-6.6807,-6.6807,-6.7256,-6.7911,-6.7911,-6.7807,-6.7704,-6.7704,-6.7704,-6.7704,-6.7704,-6.7704,-6.7704,-6.7704,-6.7704,-6.7704,-6.7704,-6.7704,-6.7704,-6.7704,-6.7256,-6.6807,-6.6807,-6.6324,-6.5876,-6.5876,-6.5876,-6.5876,-6.5876,0.0,0.0,0.0,0.0,0.0,0.0,0.0,0.0,0.0,0.0,0.0,0.0,0.0,0.0,0.0,0.0,0.0,0.0,0.0,0.0,0.0,-6.5117,0.0,0.0,0.0,-6.5876,-6.5911,-6.7394,-6.8083,-6.8083,-6.8083,-6.8083,-6.8083,-6.8083,-6.8083,-6.8083,-6.8083,-6.8083,-6.8083,-6.8083,-6.8083,-6.8083,-6.8083,-6.8083,-6.8083,-6.2427,0.0,0.0,0.0,0.0,0.0,0.0,-6.4146,-6.4003,-6.3673,-6.36,-6.3738,-6.4117,-6.4152,-6.4324,-6.4738,-6.4772,-6.4772,-6.4772,-6.4772,-6.4772,-6.4772,-6.4772,0.0,-6.4186,-6.4152,-6.3979,-6.36,0.0,0.0,0.0,0.0,0.0,0.0,0.0,-6.4979,0.0,0.0,0.0,-6.6462,-6.6462,-6.6911,-6.7566,-6.7566,-6.7773,-6.8083,-6.8083,-6.8083,-6.8083,-6.8083,-6.8083,-6.8083,-6.8083,-6.8083,-6.8083,-6.8083,-6.8083,-6.8083,-6.8083,-6.8083,-6.8083,-6.8083,-6.7807,-6.7566,-6.7566,-6.729,-6.7014,-6.7014,-6.7014,-6.6911,-6.6531,-6.6462,0.0,0.0,0.0,0.0,0.0,0.0,0.0,0.0,0.0,0.0,0.0,0.0,0.0,0.0,0.0,0.0,0.0,0.0,0.0,0.0,0.0,0.0,-6.4152,0.0,-6.6083,-6.6462,-6.7566,-6.8083,-6.8083,-6.8083,-6.8083,-6.8083,-6.8083,-6.8083,-6.8083,-6.8083,-6.8083,-6.8083,-6.8083,-6.8083,-6.8083,-6.8083,-6.8083,-6.8083,0.0,-6.3821,0.0,0.0,-6.4703,-6.4636,-6.4811,-6.4708,-6.4426,-6.388,-6.3841,-6.4117,-6.4876,-6.4945,-6.5221,-6.5807,-6.5876,-6.5876,-6.5876,-6.5876,-6.5876,-6.5876,-6.5876,-6.56,-6.4979,-6.4945,-6.4669,0.0,0.0,0.0,0.0,0.0,0.0,0.0,0.0,0.0,0.0,0.0,-6.6531,-6.7221,-6.7221,-6.7566,-6.8083,-6.8083,-6.8083,-6.8083,-6.8083,-6.8083,-6.8083,-6.8083,-6.8083,-6.8083,-6.8083,-6.8083,-6.8083,-6.8083,-6.8083,-6.8083,-6.8083,-6.8083,-6.8083,-6.8083,-6.8083,-6.8083,-6.8083,-6.8083,-6.8083,-6.8083,-6.8083,-6.7911,-6.7325,-6.7221,0.0,0.0,0.0,0.0,0.0,0.0,0.0,0.0,0.0,0.0,0.0,0.0,0.0,0.0,0.0,0.0,0.0,0.0,0.0,0.0,0.0,-6.3945,-6.4703,0.0,-6.6255,-6.7014,-6.7738,-6.8083,-6.8083,-6.8083,-6.8083,-6.8083,-6.8083,-6.8083,-6.8083,-6.8083,-6.8083,-6.8083,-6.8083,-6.8083,-6.8083,-6.8083,-6.8083,-6.8083,0.0,0.0,0.0,0.0,0.0,-6.4846,-6.5479,-6.5084,-6.4675,-6.46,-6.46,-6.491,-6.5669,-6.5773,-6.5807,-6.5876,-6.5876,-6.5876,-6.5876,-6.5876,-6.5876,-6.5876,-6.5876,-6.5842,-6.5773,-6.5773,-6.5738,0.0,0.0,-6.4945,0.0,0.0,0.0,0.0,0.0,0.0,0.0,-6.6876,-6.7325,-6.798,-6.798,-6.8049,-6.8083,-6.8083,-6.8083,-6.8083,-6.8083,-6.8083,-6.8083,-6.8083,-6.8083,-6.8083,-6.8083,-6.8083,-6.8083,-6.8083,-6.8083,-6.8083,-6.8083,-6.8083,-6.8083,-6.8083,-6.8083,-6.8083,-6.8083,-6.8083,-6.8083,-6.8083,-6.8083,-6.8083,-6.8014,-6.798,-6.7738,0.0,0.0,0.0,0.0,0.0,0.0,0.0,0.0,0.0,0.0,-6.6945,0.0,0.0,0.0,0.0,0.0,0.0,0.0,-6.4841,-6.4014,-6.3945,-6.4703,-6.5497,-6.6255,-6.7014,-6.7738,-6.8083,-6.8083,-6.8083,-6.8083,-6.8083,-6.8083,-6.8083,-6.8083,-6.8083,-6.8083,-6.8083,-6.8083,-6.8083,-6.8083,-6.8083,-6.8083,-6.8083,0.0,0.0,0.0,0.0,0.0,0.0,0.0,-6.6176,-6.6021,-6.609,-6.5704,-6.5704,-6.6462,-6.6531,-6.6738,-6.7187,-6.7221,-6.7221,-6.7221,-6.7221,-6.7221,-6.7221,-6.7221,-6.7014,-6.6566,-6.6531,-6.6324,0.0,0.0,0.0,0.0,0.0,0.0,0.0,0.0,-6.7359,-6.7669,-6.7669,-6.7807,-6.8083,-6.8083,-6.8083,-6.8083,-6.8083,-6.8083,-6.8083,-6.8083,-6.8083,-6.8083,-6.8083,-6.8083,-6.8083,-6.8083,-6.8083,-6.8083,-6.8083,-6.8083,-6.8083,-6.8083,-6.8083,-6.8083,-6.8083,-6.8083,-6.8083,-6.8083,-6.8083,-6.8083,-6.8083,-6.8083,-6.7945,-6.7497,-6.7807,-6.7842,-6.7118,0.0,0.0,0.0,0.0,0.0,0.0,0.0,0.0,0.0,0.0,0.0,0.0,0.0,0.0,0.0,0.0,0.0,-6.4703,0.0,-6.4634,-6.5393,-6.6152,-6.6911,-6.7669,-6.7945,-6.8083,-6.8083,-6.8083,-6.8083,-6.8083,-6.8083,-6.8083,-6.8083,-6.8083,-6.8083,-6.8083,-6.8083,-6.8083,-6.8083,-6.8083,-6.8083,-6.8083,-6.6008,0.0,-6.6592,0.0,-6.7325,-6.7306,-6.7517,-6.7376,-6.726,-6.7338,-6.6876,-6.6738,-6.7256,-6.7325,-6.7532,-6.8049,-6.8083,-6.8083,-6.8083,-6.8083,-6.8083,-6.8083,-6.8083,0.0,-6.7325,-6.7325,-6.7049,-6.6531,-6.6531,0.0,0.0,0.0,0.0,0.0,-6.7876,-6.8083,-6.8083,-6.8083,-6.8083,-6.8083,-6.8083,-6.8083,-6.8083,-6.8083,-6.8083,-6.8083,-6.8083,-6.8083,-6.8083,-6.8083,-6.8083,-6.8083,-6.8083,-6.8083,-6.8083,-6.8083,-6.8083,-6.8083,-6.8083,-6.8083,-6.8083,-6.8083,-6.8083,-6.8083,-6.8083,-6.8083,-6.8083,-6.8083,-6.8083,-6.7945,-6.7428,-6.7738,-6.7842,-6.7118,0.0,0.0,0.0,0.0,0.0,0.0,-6.5876,-6.5876,-6.5876,-6.6359,0.0,0.0,0.0,0.0,0.0,0.0,0.0,0.0,0.0,0.0,-6.6186,-6.6738,-6.7359,-6.8083,-6.8083,-6.8083,-6.8083,-6.8083,-6.8083,-6.8083,-6.8083,-6.8083,-6.8083,-6.8083,-6.8083,-6.8083,-6.8083,-6.8083,-6.8083,-6.8083,-6.8083,-6.8083,-6.6884,-6.7476,-6.8177,-6.8878,-6.8439,-6.8233,-6.8948,-6.8505,-6.8064,-6.8098,-6.8083,-6.8083,-6.8083,-6.8083,-6.8083,-6.8083,-6.8083,-6.8083,-6.8083,-6.8083,-6.8083,0.0,0.0,-6.8083,-6.8083,-6.8083,-6.8083,-6.8083,0.0,0.0,-6.5876,0.0,-6.6669,-6.8083,-6.8083,-6.8083,-6.8083,-6.8083,-6.8083,-6.8083,-6.8083,-6.8083,-6.8083,-6.8083,-6.8083,-6.8083,-6.8083,-6.8083,-6.8083,-6.8083,-6.8083,-6.8083,-6.8083,-6.8083,-6.8083,-6.8083,-6.8083,-6.8083,-6.8083,-6.8083,-6.8083,-6.8083,-6.8083,-6.8083,-6.8083,-6.8083,-6.8083,-6.8083,-6.8083,-6.8083,-6.8083,-6.8083,-6.7842,-6.7118,0.0,0.0,0.0,0.0,0.0,0.0,-6.5876,-6.5876,-6.5876,-6.5876,0.0,0.0,0.0,0.0,0.0,0.0,0.0,-6.4703,-6.4703,0.0,-6.6945,-6.698,-6.7359,-6.8083,-6.8083,-6.8083,-6.8083,-6.8083,-6.8083,-6.8083,-6.8083,-6.8083,-6.8083,-6.8083,-6.8083,-6.8083,-6.8083,-6.8083,-6.8083,-6.8083,-6.8083,-6.8083,-6.9086,-6.9312,-6.958,-6.9767,-6.9263,-6.8893,-6.9105,-6.8588,-6.8119,-6.8088,-6.8083,-6.8083,-6.8083,-6.8083,-6.8083,0.0,-6.8083,-6.8083,0.0,-6.8083,-6.8083,-6.8083,-6.8083,-6.8083,-6.8083,-6.8083,-6.8083,-6.8083,0.0,0.0,0.0,-6.7394,-6.7635,-6.8083,-6.8083,-6.8083,-6.8083,-6.8083,-6.8083,-6.8083,-6.8083,-6.8083,-6.8083,-6.8083,-6.8083,-6.8083,-6.8083,-6.8083,-6.8083,-6.8083,-6.8083,-6.8083,-6.8083,-6.8083,-6.8083,-6.8083,-6.8083,-6.8083,-6.8083,-6.8083,-6.8083,-6.8083,-6.8083,-6.8083,-6.8083,-6.8083,-6.8083,-6.8083,-6.8083,-6.8083,-6.8083,-6.8083,-6.8014,-6.7773,-6.7532,0.0,0.0,0.0,0.0,0.0,-6.5083,-6.4876,-6.4358,-6.4772,0.0,0.0,0.0,0.0,0.0,0.0,0.0,0.0,-6.5221,0.0,-6.698,-6.7497,-6.7876,-6.8083,-6.8083,-6.8083,-6.8083,-6.8083,-6.8083,-6.8083,-6.8083,-6.8083,-6.8083,-6.8083,-6.8083,-6.8083,-6.8083,-6.8083,-6.8083,-6.8083,-6.8083,-6.8083,-7.0235,-7.0428,-7.0568,-7.0278,-6.9877,-6.9528,-6.9237,-6.8787,-6.8401,-6.8123,-6.8083,-6.8083,-6.8083,-6.8083,0.0,-6.8083,-6.8083,-6.8083,-6.8083,-6.8083,-6.8083,-6.8083,-6.8083,-6.8083,-6.8083,-6.8083,0.0,-6.8083,-6.8083,-6.8083,-6.8083,-6.8083,-6.8083,-6.8083,-6.8083,-6.8083,-6.8083,-6.8083,-6.8083,-6.8083,-6.8083,-6.8083,-6.8083,-6.8083,-6.8083,-6.8083,-6.8083,-6.8083,-6.8083,-6.8083,-6.8083,-6.8083,-6.8083,-6.8083,-6.8083,-6.8083,-6.8083,-6.8083,-6.8083,-6.8083,-6.8083,-6.8083,-6.8083,-6.8083,-6.8083,-6.8083,-6.8083,-6.8083,-6.8083,-6.8083,-6.8083,-6.8083,-6.8083,-6.8083,-6.7704,-6.7325,-6.7014,0.0,0.0,0.0,0.0,0.0,0.0,-6.4186,-6.4083,0.0,0.0,0.0,0.0,0.0,0.0,-6.5531,-6.6048,-6.6669,-6.7394,-6.7876,-6.8083,-6.8083,-6.8083,-6.8083,-6.8083,-6.8083,-6.8083,-6.8083,-6.8083,-6.8083,-6.8083,-6.8083,-6.8083,-6.8083,-6.8083,-6.8083,-6.8083,-6.8083,-6.8083,-6.8083,-7.056,-7.097,-7.1163,-7.0503,-7.03,-6.9989,-6.931,-6.9161,-6.8863,-6.8201,-6.8083,-6.8083,-6.8083,-6.8083,-6.8083,-6.8083,0.0,0.0,-6.8083,-6.8083,-6.8083,-6.8083,-6.8083,-6.8083,-6.8083,-6.8083,-6.8083,-6.8083,-6.8083,-6.8083,-6.8083,-6.8083,-6.8083,-6.8083,-6.8083,-6.8083,-6.8083,-6.8083,-6.8083,-6.8083,-6.8083,-6.8083,-6.8083,-6.8083,-6.8083,-6.8083,-6.8083,-6.8083,-6.8083,-6.8083,-6.8083,-6.8083,-6.8083,-6.8083,-6.8083,-6.8083,-6.8083,-6.8083,-6.8083,-6.8083,-6.8118,-6.8152,-6.8221,-6.8256,-6.8256,-6.8256,-6.8256,-6.8256,-6.8256,-6.8256,-6.8256,-6.8256,-6.8256,-6.8256,-6.8256,-6.8014,-6.7325,0.0,0.0,0.0,0.0,0.0,-6.4945,-6.4255,-6.3841,0.0,0.0,0.0,0.0,0.0,-6.5531,-6.6945,-6.698,-6.7325,-6.8083,-6.8083,-6.8083,-6.8083,-6.8083,-6.8083,-6.8083,-6.8083,-6.8083,-6.8083,-6.8083,-6.8083,-6.8083,-6.8083,-6.8083,-6.8083,-6.8083,-6.8083,-6.8083,-6.8083,-6.8083,-6.8083,0.0,0.0,-7.1359,-7.1163,-7.0197,-6.9383,-6.9235,-6.8711,-6.8319,-6.8123,-6.8083,-6.8083,-6.8083,-6.8083,-6.8083,-6.8083,-6.8083,-6.8083,-6.8083,-6.8083,-6.8083,-6.8083,-6.8083,-6.8083,-6.8083,-6.8083,-6.8083,-6.8083,-6.8083,-6.8083,-6.8083,-6.8083,-6.8083,-6.8083,-6.8083,-6.8083,-6.8083,-6.8083,-6.8083,-6.8083,-6.8083,-6.8083,-6.8083,-6.8083,-6.8083,-6.8083,-6.8083,-6.8083,-6.8083,-6.8083,-6.8083,-6.8083,-6.8083,-6.8083,-6.8083,-6.8083,-6.8083,-6.8083,-6.8083,-6.8083,-6.8256,-6.8842,-6.9428,-6.9842,-6.9842,-6.9842,-6.9842,-6.9842,-6.9842,-6.9842,-6.9842,-6.9842,-6.9842,-6.9842,-6.9842,-6.9773,-6.9601,-6.9601,-6.9291,0.0,-6.8325,-6.7945,-6.7359,-6.6635,-6.6186,0.0,0.0,0.0,-6.6428,-6.6462,-6.66,-6.698,-6.698,-6.7325,-6.8083,-6.8083,-6.8083,-6.8083,-6.8083,-6.8083,-6.8083,-6.8083,-6.8083,-6.8083,-6.8083,-6.8083,-6.8083,-6.8083,-6.8083,-6.8083,-6.8083,-6.8083,-6.8083,-6.8083,-6.8083,-6.8083,-7.2496,-7.1891,-7.1295,-7.097,-6.999,-6.9087,-6.8749,-6.8358,-6.8083,-6.8083,-6.8083,-6.8083,-6.8083,-6.8083,-6.8083,-6.8083,-6.8083,-6.8083,-6.8083,-6.8083,-6.8083,-6.8083,-6.8083,-6.8083,-6.8083,-6.8083,-6.8083,-6.8083,-6.8083,-6.8083,-6.8083,-6.8083,-6.8083,-6.8083,-6.8083,-6.8083,-6.8083,-6.8083,-6.8083,-6.8083,-6.8083,-6.8083,-6.8083,-6.8083,-6.8083,-6.8083,-6.8083,-6.8083,-6.8083,-6.8083,-6.8083,-6.8152,-6.8532,-6.8635,-6.8704,-6.9049,-6.8911,-6.8704,-6.9049,-6.9153,-6.9256,-6.967,-7.0084,-7.0394,-7.0394,-7.0394,-7.0394,-7.0394,-7.0394,-7.0394,-7.0394,-7.0394,-7.0394,-7.0394,-7.0394,-7.0394,-7.0394,-7.0394,-7.0222,-6.9842,-6.9538,-6.9118,-6.867,-6.7945,-6.7359,-6.7014,-6.6945,0.0,-6.698,-6.7325,-6.7497,-6.7497,-6.7497,-6.7704,-6.8083,-6.8083,-6.8083,-6.8083,-6.8083,-6.8083,-6.8083,-6.8083,-6.8083,-6.8083,-6.8083,-6.8083,-6.8083,-6.8083,-6.8083,-6.8083,-6.8083,-6.8083,-6.8083,-6.8083,-6.8083,-6.8083,-7.2314,-7.164,-7.0872,-7.0232,-6.9636,-6.8975,-6.8362,-6.828,-6.828,-6.828,-6.8162,-6.8083,-6.8083,-6.8083,-6.8083,-6.8083,-6.8083,-6.8083,-6.8083,-6.8083,-6.8083,-6.8083,-6.8083,-6.8083,-6.8083,-6.8083,-6.8083,-6.8083,-6.8083,-6.8083,-6.8083,-6.8083,-6.8083,-6.8083,-6.8083,-6.8083,-6.8083,-6.8083,-6.8083,-6.8083,-6.8083,-6.8083,-6.8083,-6.8083,-6.8083,-6.8083,-6.8083,-6.8083,-6.8118,-6.8221,-6.829,-6.8428,-6.9187,-6.9463,-6.9601,-7.0325,-7.0118,-6.9739,-7.0256,-7.0463,-7.0567,-7.0567,-7.0636,-7.0739,-7.0739,-7.0739,-7.0739,-7.0739,-7.0739,-7.0739,-7.0739,-7.0739,-7.0739,-7.0739,-7.0739,-7.0739,-7.0739,0.0,-7.0739,-7.0739,-7.0187,-6.9773,-6.9773,-6.9084,-6.8359,-6.7704,-6.8049,-6.8014,-6.7359,-6.7807,-6.8083,-6.8083,-6.8083,-6.8083,-6.8083,-6.8083,-6.8083,-6.8083,-6.8083,-6.8083,-6.8083,-6.8083,-6.8083,-6.8083,-6.8083,-6.8083,-6.8083,-6.8083,-6.8083,-6.8083,-6.8083,-6.8083,-6.8083,-6.8083,-6.8083,-6.8083,-7.1547,-7.0505,-6.9492,-6.9383,-6.9273,-6.9161,-6.905,-6.905,-6.905,-6.905,-6.8478,-6.8083,-6.8083,-6.8083,-6.8083,-6.8083,-6.8083,-6.8083,-6.8083,-6.8083,-6.8083,-6.8083,-6.8083,-6.8083,-6.8083,-6.8083,-6.8083,-6.8083,-6.8083,-6.8083,-6.8083,-6.8083,-6.8083,-6.8083,-6.8083,-6.8083,-6.8083,-6.8083,-6.8083,-6.8083,-6.8083,-6.8083,-6.8083,-6.8083,-6.8083,-6.8083,-6.8083,-6.8083,-6.8187,-6.8877,-6.9084,-6.9222,-6.998,-7.0222,-7.036,-7.1118,-7.1256,-7.105,-7.0532,-7.0843,-7.1325,-7.1325,-7.1808,-7.2368,-7.2368,-7.2368,-7.2368,-7.2368,-7.2368,-7.2368,-7.2368,-7.2368,-7.2368,-7.2368,-7.2368,-7.2368,-7.2368,0.0,-7.2368,-7.2368,-7.2264,-7.2195,-7.2195,-7.1429,-7.0912,-7.0808,-6.9739,-6.9049,-6.8946,-6.8394,-6.8083,-6.8083,-6.8083,-6.8083,-6.8083,-6.8083,-6.8083,-6.8083,-6.8083,-6.8083,-6.8083,-6.8083,-6.8083,-6.8083,-6.8083,-6.8083,-6.8083,-6.8083,-6.8083,-6.8083,-6.8083,-6.8083,-6.8083,-6.8083,-6.8083,-6.8083,-7.139,-7.0233,-6.931,-6.9708,-6.9456,-6.9198,-6.9198,-6.9198,-6.905,-6.867,-6.8319,-6.8083,-6.8083,-6.8083,-6.8083,-6.8083,-6.8083,-6.8083,-6.8083,-6.8083,-6.8083,-6.8083,-6.8083,-6.8083,-6.8083,-6.8083,-6.8083,-6.8083,-6.8083,-6.8083,-6.8083,-6.8083,-6.8083,-6.8083,-6.8083,-6.8083,-6.8083,-6.8083,-6.8083,-6.8083,-6.8083,-6.8083,-6.8083,-6.8083,-6.8083,-6.8152,-6.8566,-6.8739,-6.8842,-6.9601,-6.9877,-7.0015,-7.0739,-7.0981,-7.1118,-7.1912,-7.2119,-7.205,-7.1705,-7.1877,-7.2119,-7.2119,-7.2437,-7.2713,-7.2713,-7.2713,-7.2713,-7.2713,-7.2713,-7.2713,-7.2713,-7.2713,-7.2713,-7.2713,-7.2713,0.0,-7.2713,-7.2713,-7.2713,-7.2713,-7.2713,-7.2713,-7.2713,-7.2326,-7.1774,-7.0946,-7.0256,-6.9497,-6.8704,-6.829,-6.8083,-6.8083,-6.8083,-6.8083,-6.8083,-6.8083,-6.8083,-6.8083,-6.8083,-6.8083,-6.8083,-6.8083,-6.8083,-6.8083,-6.8083,-6.8083,-6.8083,-6.8083,-6.8083,-6.8083,-6.8083,-6.8083,-6.8083,-6.8083,-6.8083,-6.8083,-7.139,-7.0334,-6.9636,-7.0197,-6.9814,-6.9456,-6.9456,-6.931,-6.9013,-6.844,-6.8201,-6.8083,-6.8083,-6.8083,-6.8083,-6.8083,-6.8083,-6.8083,-6.8083,-6.8083,-6.8083,-6.8083,-6.8083,-6.8083,-6.8083,-6.8083,-6.8083,-6.8083,-6.8083,-6.8083,-6.8083,-6.8083,-6.8083,-6.8083,-6.8083,-6.8083,-6.8083,-6.8083,-6.8083,-6.8083,-6.8083,-6.8083,-6.8083,-6.8083,-6.8083,-6.8187,-6.898,-6.9291,-6.9428,-7.0325,-7.0636,-7.0774,-7.1532,-7.1774,-7.1877,-7.2498,-7.2713,-7.2713,-7.2713,-7.2713,-7.2713,-7.2713,-7.2713,-7.2713,-7.2713,-7.2713,-7.2713,-7.2713,-7.2713,-7.2713,-7.2713,-7.2713,-7.2713,-7.2713,0.0,-7.2713,-7.2713,-7.2713,-7.2713,-7.2713,-7.2713,-7.2644,-7.2429,-7.2395,-7.1843,-7.0498,-7.0222,-6.9601,-6.8428,-6.8187,-6.8083,-6.8083,-6.8083,-6.8083,-6.8083,-6.8083,-6.8083,-6.8083,-6.8083,-6.8083,-6.8083,-6.8083,-6.8083,-6.8083,-6.8083,-6.8083,-6.8083,-6.8083,-6.8083,-6.8083,-6.8083,-6.8083,-6.8083,-6.8083,-6.8083,-6.8083,-7.139,-7.0773,-7.0232,-7.03,-7.0266,-7.0232,-7.0232,-6.9636,-6.9198,-6.9124,-6.8517,-6.8083,-6.8083,-6.8083,-6.8083,-6.8083,-6.8083,-6.8083,-6.8083,-6.8083,-6.8083,-6.8083,-6.8083,-6.8083,-6.8083,-6.8083,-6.8083,-6.8083,-6.8083,-6.8083,-6.8083,-6.8083,-6.8083,-6.8083,-6.8083,-6.8083,-6.8083,-6.8083,-6.8083,-6.8083,-6.8083,-6.8083,-6.8083,-6.8083,-6.8083,-6.8187,-6.898,-6.9291,-6.9497,-7.0912,-7.1429,-7.1567,-7.2326,-7.2602,-7.2644,-7.2713,-7.2713,-7.2713,-7.2713,-7.2713,-7.2713,-7.2713,-7.2713,-7.2713,-7.2713,-7.2713,-7.2713,-7.2713,-7.2713,-7.2713,-7.2713,-7.2713,-7.2713,-7.2713,0.0,0.0,-7.2713,-7.2713,-7.2713,-7.2713,-7.2713,-7.2437,-7.1636,-7.1567,-7.1256,-7.0429,-6.9739,-6.9325,-6.9187,-6.8497,-6.8083,-6.8083,-6.8083,-6.8083,-6.8083,-6.8083,-6.8083,-6.8083,-6.8083,-6.8083,-6.8083,-6.8083,-6.8083,-6.8083,-6.8083,-6.8083,-6.8083,-6.8083,-6.8083,-6.8083,-6.8083,-6.8083,-6.8083,-6.8083,-6.8083,-6.8083,-7.139,-7.0806,-7.0436,-7.0904,-7.0604,-7.03,-7.03,-6.9636,-6.905,-6.8593,-6.828,-6.8083,-6.8083,-6.8083,-6.8083,-6.8083,-6.8083,-6.8083,-6.8083,-6.8083,-6.8083,-6.8083,-6.8083,-6.8083,-6.8083,-6.8083,-6.8083,-6.8083,-6.8083,-6.8083,-6.8083,-6.8083,-6.8083,-6.8083,-6.8083,-6.8083,-6.8083,-6.8083,-6.8083,-6.8083,-6.8083,-6.8083,-6.8083,-6.8083,-6.8394,-6.8911,-6.9704,-7.0256,-7.0808,-7.1877,-7.2222,-7.2291,-7.2609,-7.2713,-7.2713,-7.2713,-7.2713,-7.2713,-7.2713,-7.2713,-7.2713,-7.2713,-7.2713,-7.2713,-7.2713,-7.2713,-7.2713,-7.2713,-7.2713,-7.2713,-7.2713,-7.2713,-7.2713,-7.2713,0.0,-7.2713,-7.2713,-7.2713,-7.2498,-7.2015,-7.1946,-7.1636,-7.0877,-7.0808,-7.0498,-6.9739,-6.9428,-6.9049,-6.8566,-6.8256,-6.8083,-6.8083,-6.8083,-6.8083,-6.8083,-6.8083,-6.8083,-6.8083,-6.8083,-6.8083,-6.8083,-6.8083,-6.8083,-6.8083,-6.8083,-6.8083,-6.8083,-6.8083,-6.8083,-6.8083,-6.8083,-6.8083,-6.8083,-6.8083,-6.8083,-6.8083,-7.1769,-7.1323,-7.1067,-7.1359,-7.0806,-7.0232,-6.9989,-6.931,-6.867,-6.8162,-6.8083,-6.8083,-6.8083,-6.8083,-6.8083,-6.8083,-6.8083,-6.8083,-6.8083,-6.8083,-6.8083,-6.8083,-6.8083,-6.8083,-6.8083,-6.8083,-6.8083,-6.8083,-6.8083,-6.8083,-6.8083,-6.8083,-6.8083,-6.8083,-6.8083,-6.8083,-6.8083,-6.8083,-6.8083,-6.8083,-6.8083,-6.8083,-6.8083,-6.8083,-6.8601,-6.9434,-7.0118,-7.0877,-7.1601,-7.2437,-7.2713,-7.2713,-7.2713,-7.2713,-7.2713,-7.2713,-7.2713,-7.2713,-7.2713,-7.2713,-7.2713,-7.2713,-7.2713,-7.2713,-7.2713,-7.2713,-7.2713,-7.2713,-7.2713,-7.2713,-7.2713,-7.2713,-7.2713,-7.2713,-7.2713,-7.2602,-7.2326,-7.2291,-7.2015,-7.1256,-7.1153,-7.0843,-7.0118,-7.0049,-6.9739,-6.898,-6.8911,-6.867,-6.8118,-6.8083,-6.8083,-6.8083,-6.8083,-6.8044,-6.8039,-6.8044,-6.8083,-6.8083,-6.8083,-6.8083,-6.8083,-6.8004,-6.8039,-6.7999,-6.7959,-6.7919,-6.7919,-6.7919,-6.7919,-6.7919,-6.7919,-6.7919,-6.7919,-6.7919,-6.7919,-6.7919,-7.2496,-7.2496,-7.2255,-7.1516,-7.077,-7.0059,-6.931,-6.8593,-6.8083,-6.8083,-6.8083,-6.8083,-6.8083,-6.8083,-6.8083,-6.8083,-6.8083,-6.8083,-6.8083,-6.8083,-6.8083,-6.8083,-6.8083,-6.8083,-6.8083,-6.8083,-6.8083,-6.8083,-6.8083,-6.8083,-6.8083,-6.8083,-6.8083,-6.8083,-6.8083,-6.8083,-6.8083,-6.8083,-6.8083,-6.8083,-6.8083,-6.8083,-6.8083,-6.8118,-6.8601,-6.9394,-7.0118,-7.0877,-7.1636,-7.2429,-7.2713,-7.2713,-7.2713,-7.2713,-7.2713,-7.2713,-7.2713,-7.2713,-7.2713,-7.2713,-7.2713,-7.2713,-7.2713,-7.2713,-7.2713,-7.2713,-7.2713,-7.2713,-7.2713,-7.2713,-7.2713,-7.2713,-7.2713,-7.2671,-7.2671,-7.2437,-7.1601,-7.1498,-7.1222,-7.0463,-7.0394,-7.0084,-6.9365,-6.9256,-6.8946,-6.8152,-6.8083,-6.8083,-6.8083,-6.8083,-6.8083,-6.8083,-6.8083,-6.7999,-6.7799,-6.7999,-6.8083,-6.8083,-6.8083,-6.8083,-6.8083,-6.7919,-6.7799,-6.7799,-6.7557,-6.751,-6.751,-6.751,-6.751,-6.751,-6.751,-6.751,-6.751,-6.751,-6.751,-6.7516,-7.2496,-7.2496,-7.2438,-7.2197,-7.1131,-7.0232,-6.9989,-6.89,-6.8083,-6.8083,-6.8083,-6.8083,-6.8083,-6.8083,-6.8083,-6.8083,-6.8083,-6.8083,-6.8083,-6.8083,-6.8083,-6.8083,-6.8083,-6.8083,-6.8083,-6.8083,-6.8083,-6.8083,-6.8083,-6.8083,-6.8083,-6.8083,-6.8083,-6.8083,-6.8083,-6.8083,-6.8083,-6.8083,-6.8083,-6.8083,-6.8083,-6.8083,-6.8152,-6.8704,-6.9394,-7.0153,-7.0912,-7.167,-7.236,-7.2644,-7.2713,-7.2713,-7.2713,-7.2713,-7.2713,-7.2713,-7.2713,-7.2713,-7.2713,-7.2713,-7.2713,-7.2713,-7.2713,-7.2713,-7.2713,-7.2713,-7.2713,-7.2713,-7.2713,-7.2713,-7.2713,-7.2713,-7.2498,-7.1946,-7.1843,-7.1567,-7.0808,-7.0705,-7.0429,-6.9704,-6.9601,-6.9291,-6.8532,-6.8463,-6.8359,-6.8118,-6.8083,-6.8083,-6.8083,-6.8083,-6.8039,-6.7919,-6.7919,-6.7799,-6.7597,-6.7799,-6.7839,-6.7678,-6.7678,-6.7678,-6.7678,-6.7597,-6.7597,-6.7557,-6.755,-6.751,-6.751,-6.751,-6.751,-6.751,-6.751,-6.751,-6.751,-6.751,-6.751,-6.7475,-7.2496,-7.2255,-7.1951,-7.1671,-7.0637,-6.9743,-6.9457,-6.8673,-6.8083,-6.8083,-6.8083,-6.8083,-6.8083,-6.8083,-6.8083,-6.8083,-6.8083,-6.8083,-6.8083,-6.8083,-6.8083,-6.8083,-6.8083,-6.8083,-6.8083,-6.8083,-6.8083,-6.8083,-6.8083,-6.8083,-6.8083,-6.8083,-6.8083,-6.8083,-6.8083,-6.8083,-6.8083,-6.8083,-6.8083,-6.8083,-6.8083,-6.8083,-6.8187,-6.898,-6.9739,-7.0498,-7.1222,-7.2015,-7.2713,-7.2713,-7.2713,-7.2713,-7.2713,-7.2713,-7.2713,-7.2713,-7.2713,-7.2713,-7.2713,-7.2713,-7.2713,-7.2713,-7.2713,-7.2713,-7.2713,-7.2713,-7.2713,-7.2713,-7.2713,-7.2609,-7.2257,-7.2222,-7.1946,-7.1187,-7.105,-7.0808,-7.0049,-6.9946,-6.967,-6.8911,-6.8808,-6.8635,-6.8152,-6.8083,-6.8083,-6.8083,-6.8083,-6.8083,-6.8083,-6.8004,-6.7919,-6.7799,-6.7719,-6.7557,-6.7387,-6.751,-6.7516,-6.751,-6.751,-6.751,-6.751,-6.7428,-6.7387,-6.7387,-6.727,-6.7229,-6.7229,-6.7229,-6.7229,-6.7229,-6.7229,-6.7229,-6.7229,-6.7229,-6.7229,-6.7229,-7.2496,-7.1891,-7.1163,-7.0503,-6.9708,-6.8975,-6.8319,-6.8123,-6.8083,-6.8083,-6.8083,-6.8083,-6.8083,-6.8083,-6.8083,-6.8083,-6.8083,-6.8083,-6.8083,-6.8083,-6.8083,-6.8083,-6.8083,-6.8083,-6.8083,-6.8083,-6.8083,-6.8083,-6.8083,-6.8083,-6.8083,-6.8083,-6.8083,-6.8083,-6.8083,-6.8083,-6.8083,-6.8083,-6.8083,-6.8083,-6.8083,-6.8152,-6.829,-6.9084,-6.9842,-7.0601,-7.1325,-7.205,-7.2713,-7.2713,-7.2713,-7.2713,-7.2713,-7.2713,-7.2713,-7.2713,-7.2713,-7.2713,-7.2713,-7.2713,-7.2713,-7.2713,-7.2678,-7.2602,-7.2713,-7.2713,-7.2713,-7.2644,-7.2567,-7.2326,-7.1532,-7.1394,-7.1153,-7.0394,-7.0291,-7.0015,-6.9291,-6.9187,-6.8911,-6.8187,-6.8083,-6.8083,-6.8083,-6.8083,-6.8083,-6.8083,-6.8083,-6.8083,-6.8044,-6.7919,-6.7799,-6.7759,-6.7557,-6.7387,-6.718,-6.7139,-6.7263,-6.7469,-6.7469,-6.7469,-6.7435,-6.7263,-6.7139,-6.7139,-6.6896,-6.6812,-6.6812,-6.6812,-6.6812,-6.6812,-6.6812,-6.6812,-6.6812,-6.6812,-6.6812,-6.6812,-7.2496,-7.1891,-7.1359,-7.1163,-7.0059,-6.9161,-6.8975,-6.8478,-6.8083,-6.8083,-6.8083,-6.8083,-6.8083,-6.8083,-6.8083,-6.8083,-6.8083,-6.8083,-6.8083,-6.8083,-6.8083,-6.8083,-6.8083,-6.8083,-6.8083,-6.8083,-6.8083,-6.8083,-6.8083,-6.8083,-6.8083,-6.8083,-6.8083,-6.8083,-6.8083,-6.8083,-6.8083,-6.8083,-6.8083,-6.8083,-6.8083,-6.8463,-6.9118,-6.9877,-7.0601,-7.136,-7.2153,-7.2533,-7.2713,-7.2713,-7.2713,-7.2713,-7.2713,-7.2713,-7.2713,-7.2713,-7.2713,-7.2713,-7.2713,-7.2713,-7.2713,-7.2713,-7.2222,-7.1912,-7.2575,-7.2713,-7.2498,-7.1877,-7.1739,-7.1532,-7.0774,-7.0636,-7.0394,-6.9635,-6.9532,-6.9256,-6.8463,-6.8359,-6.829,-6.8118,-6.8083,-6.8083,-6.8083,-6.8083,-6.8083,-6.8083,-6.8083,-6.8004,-6.7879,-6.7839,-6.7638,-6.7346,-6.7304,-6.7139,-6.6896,-6.6896,-6.6896,-6.6938,-6.6938,-6.6938,-6.6938,-6.6896,-6.6896,-6.6854,-6.6812,-6.6812,-6.6812,-6.6812,-6.6812,-6.6812,-6.6812,-6.6812,-6.6812,-6.6812,-6.6812,-6.6812,-7.2496,-7.1609,-7.0904,-7.0904,-6.9672,-6.8708,-6.8708,-6.8358,-6.8083,-6.8083,-6.8083,-6.8083,-6.8083,-6.8083,-6.8083,-6.8083,-6.8083,-6.8083,-6.8083,-6.8083,-6.8083,-6.8083,-6.8083,-6.8083,-6.8083,-6.8083,-6.8083,-6.8083,-6.8083,-6.8083,-6.8083,-6.8083,-6.8083,-6.8083,-6.8083,-6.8083,-6.8083,-6.8083,-6.8083,-6.8118,-6.8497,-6.8911,-6.9434,-7.0498,-7.1153,-7.1601,-7.2395,-7.2713,-7.2713,-7.2713,-7.2713,-7.2713,-7.2713,-7.2713,-7.2713,-7.2713,-7.2713,-7.2713,-7.2713,-7.2395,-7.2119,-7.2119,-7.1532,-7.1153,-7.1946,-7.1843,-7.1463,-7.105,-7.0981,-7.0739,-6.998,-6.9877,-6.9601,-6.8842,-6.8704,-6.8566,-6.8152,-6.8083,-6.8083,-6.8083,-6.8083,-6.8083,-6.8083,-6.8083,-6.8083,-6.8083,-6.8004,-6.7919,-6.7799,-6.7597,-6.7428,-6.718,-6.7097,-6.6938,-6.6812,-6.6812,-6.6812,-6.6812,-6.6812,-6.6812,-6.6812,-6.6812,-6.6812,-6.6812,-6.6812,-6.6812,-6.6812,-6.6812,-6.6812,-6.6812,-6.6812,-6.6812,-6.6812,-6.6812,-6.6812,-6.6812,-7.2351,-7.1227,-7.0266,-7.0128,-6.9013,-6.8083,-6.8083,-6.8083,-6.8083,-6.8083,-6.8083,-6.8083,-6.8083,-6.8083,-6.8083,-6.8083,-6.8083,-6.8083,-6.8083,-6.8083,-6.8083,-6.8083,-6.8083,-6.8083,-6.8083,-6.8083,-6.8083,-6.8083,-6.8083,-6.8083,-6.8083,-6.8083,-6.8083,-6.8083,-6.8083,-6.8083,-6.8083,-6.8083,-6.8187,-6.8359,-6.9015,-6.9428,-6.9808,-7.1015,-7.1567,-7.1774,-7.2429,-7.2713,-7.2713,-7.2713,-7.2713,-7.2713,-7.2713,-7.2713,-7.2713,-7.2713,-7.2609,-7.2464,-7.2464,-7.1912,-7.1291,-7.1291,-7.0739,-7.036,-7.0981,-7.0739,-7.036,-7.0222,-7.0187,-6.998,-6.9222,-6.9084,-6.8877,-6.8187,-6.8083,-6.8083,-6.8083,-6.8083,-6.8083,-6.8083,-6.8083,-6.8083,-6.8083,-6.8044,-6.8044,-6.8044,-6.7879,-6.7719,-6.7678,-6.7387,-6.718,-6.7139,-6.693,-6.6812,-6.6812,-6.6812,-6.6812,-6.6812,-6.6812,-6.6812,-6.6812,-6.6812,-6.6812,-6.6812,-6.6812,-6.6812,-6.6812,-6.6812,-6.6812,-6.6812,-6.6812,-6.6812,-6.6812,-6.6812,-6.6812,-6.6812,-7.164,-7.0872,-7.0094,-6.9456,-6.867,-6.8083,-6.8083,-6.8083,-6.8083,-6.8083,-6.8083,-6.8083,-6.8083,-6.8083,-6.8083,-6.8083,-6.8083,-6.8083,-6.8083,-6.8083,-6.8083,-6.8083,-6.8083,-6.8083,-6.8083,-6.8083,-6.8083,-6.8083,-6.8083,-6.8083,-6.8083,-6.8083,-6.8083,-6.8083,-6.8083,-6.8083,-6.8083,-6.8083,-6.8497,-6.9118,-6.9256,-7.0049,-7.1222,-7.1429,-7.1912,-7.2533,-7.2678,-7.2713,-7.2713,-7.2713,-7.2713,-7.2713,-7.2713,-7.2713,-7.2713,-7.2713,-7.2188,-7.1636,-7.1636,-7.1118,-7.0532,-7.0532,-6.998,-6.9463,-6.9566,-6.998,-7.0222,-6.9566,-6.9428,-6.9187,-6.8394,-6.8256,-6.8221,-6.8118,-6.8083,-6.8083,-6.8083,-6.8083,-6.8083,-6.8083,-6.8083,-6.8083,-6.8083,-6.7925,-6.7839,-6.7839,-6.7638,-6.7435,-6.7304,-6.7222,-6.7097,-6.6854,-6.6812,-6.6812,-6.6812,-6.6812,-6.6812,-6.6812,-6.6812,-6.6812,-6.6812,-6.6812,-6.6812,-6.6812,-6.6812,-6.6812,-6.6812,-6.6812,-6.6812,-6.6812,-6.6812,-6.6812,-6.6812,-6.6812,-6.6812,-6.6812,-7.1453,-7.047,-6.96,-6.9237,-6.8593,-6.8083,-6.8083,-6.8083,-6.8083,-6.8083,-6.8083,-6.8083,-6.8083,-6.8083,-6.8083,-6.8083,-6.8083,-6.8083,-6.8083,-6.8083,-6.8083,-6.8083,-6.8083,-6.8083,-6.8083,-6.8083,-6.8083,-6.8083,-6.8083,-6.8083,-6.8083,-6.8083,-6.8083,-6.8083,-6.8083,-6.8083,-6.8083,-6.8083,-6.8566,-6.9365,-6.9739,-7.0532,-7.1532,-7.1981,-7.236,-7.2713,-7.2713,-7.2713,-7.2713,-7.2713,-7.2713,-7.2713,-7.2713,-7.236,-7.2015,-7.2015,-7.1463,-7.0877,-7.0877,-7.0325,-6.9773,-6.9773,-6.9187,-6.8601,-6.8601,-6.8877,-6.9015,-6.8704,-6.8601,-6.8497,-6.8152,-6.8083,-6.8083,-6.8083,-6.8083,-6.8083,-6.8083,-6.8083,-6.8083,-6.8083,-6.8083,-6.8078,-6.7925,-6.7839,-6.7759,-6.7638,-6.7469,-6.7304,-6.718,-6.7056,-6.6896,-6.6812,-6.6812,-6.6812,-6.6812,-6.6812,-6.6812,-6.6812,-6.6812,-6.6812,-6.6812,-6.6812,-6.6812,-6.6812,-6.6812,-6.6812,-6.6812,-6.6812,-6.6812,-6.6812,-6.6812,-6.6812,-6.6812,-6.6812,-6.6812,-6.6812]},{"header":{"parameterUnit":"m.s-1","parameterCategory":1,"la1":30.6,"la2":28.766,"lo1":-90.7593,"lo2":-88.6598,"dy":0.0162,"dx":0.0183,"nx":116,"ny":114,"refTime":"2023-03-18T18:00:00:Z","depth":0,"parameterNumber":3,"parameterNumberName":"V-component_of_WINDS"},"data":[0.0,0.0,0.0,0.0,0.0,0.0,0.0,0.0,0.0,0.0,0.0,0.0,0.0,0.0,0.0,0.0,0.0,0.0,0.0,0.0,0.0,0.0,0.0,0.0,0.0,0.0,0.0,0.0,0.0,0.0,0.0,0.0,0.0,0.0,0.0,0.0,0.0,0.0,0.0,0.0,0.0,0.0,0.0,0.0,0.0,0.0,0.0,0.0,0.0,0.0,0.0,0.0,0.0,0.0,0.0,0.0,0.0,0.0,0.0,0.0,0.0,0.0,0.0,0.0,0.0,0.0,0.0,0.0,0.0,0.0,0.0,0.0,0.0,0.0,0.0,0.0,0.0,0.0,0.0,0.0,0.0,0.0,0.0,0.0,0.0,0.0,0.0,0.0,0.0,0.0,0.0,0.0,0.0,0.0,0.0,0.0,0.0,0.0,0.0,0.0,0.0,0.0,0.0,0.0,0.0,0.0,0.0,0.0,0.0,0.0,0.0,0.0,0.0,0.0,0.0,0.0,0.0,0.0,0.0,0.0,0.0,0.0,0.0,0.0,0.0,0.0,0.0,0.0,0.0,0.0,0.0,0.0,0.0,0.0,0.0,0.0,0.0,0.0,0.0,0.0,0.0,0.0,0.0,0.0,0.0,0.0,0.0,0.0,0.0,0.0,0.0,0.0,0.0,0.0,0.0,0.0,0.0,0.0,0.0,0.0,0.0,0.0,0.0,0.0,0.0,0.0,0.0,0.0,0.0,0.0,0.0,0.0,0.0,0.0,0.0,0.0,0.0,0.0,0.0,0.0,0.0,0.0,0.0,0.0,0.0,0.0,0.0,0.0,0.0,0.0,0.0,0.0,0.0,0.0,0.0,0.0,0.0,0.0,0.0,0.0,0.0,0.0,0.0,0.0,0.0,0.0,0.0,0.0,0.0,0.0,0.0,0.0,0.0,0.0,0.0,0.0,0.0,0.0,0.0,0.0,0.0,0.0,0.0,0.0,0.0,0.0,0.0,0.0,0.0,0.0,0.0,0.0,0.0,0.0,0.0,0.0,0.0,0.0,0.0,0.0,0.0,0.0,0.0,0.0,0.0,0.0,0.0,0.0,0.0,0.0,0.0,0.0,0.0,0.0,0.0,0.0,0.0,0.0,0.0,0.0,0.0,0.0,0.0,0.0,0.0,0.0,0.0,0.0,0.0,0.0,0.0,0.0,0.0,0.0,0.0,0.0,0.0,0.0,0.0,0.0,0.0,0.0,0.0,0.0,0.0,0.0,0.0,0.0,0.0,0.0,0.0,0.0,0.0,0.0,0.0,0.0,0.0,0.0,0.0,0.0,0.0,0.0,0.0,0.0,0.0,0.0,0.0,0.0,0.0,0.0,0.0,0.0,0.0,0.0,0.0,0.0,0.0,0.0,0.0,0.0,0.0,0.0,0.0,0.0,0.0,0.0,0.0,0.0,0.0,0.0,0.0,0.0,0.0,0.0,0.0,0.0,0.0,0.0,0.0,0.0,0.0,0.0,0.0,0.0,0.0,0.0,0.0,0.0,0.0,0.0,0.0,0.0,0.0,0.0,0.0,0.0,0.0,0.0,0.0,0.0,0.0,0.0,0.0,0.0,0.0,0.0,0.0,0.0,0.0,0.0,0.0,0.0,0.0,0.0,0.0,0.0,0.0,0.0,0.0,0.0,0.0,0.0,0.0,0.0,0.0,0.0,0.0,0.0,0.0,0.0,0.0,0.0,0.0,0.0,0.0,0.0,0.0,0.0,0.0,0.0,0.0,0.0,0.0,0.0,0.0,0.0,0.0,0.0,0.0,0.0,0.0,0.0,0.0,0.0,0.0,0.0,0.0,0.0,0.0,0.0,0.0,0.0,0.0,0.0,0.0,0.0,0.0,0.0,0.0,0.0,0.0,0.0,0.0,0.0,0.0,0.0,0.0,0.0,0.0,0.0,0.0,0.0,0.0,0.0,0.0,0.0,0.0,0.0,0.0,0.0,0.0,0.0,0.0,0.0,0.0,0.0,0.0,0.0,0.0,0.0,0.0,0.0,0.0,0.0,0.0,0.0,0.0,0.0,0.0,0.0,0.0,0.0,0.0,0.0,0.0,0.0,0.0,0.0,0.0,0.0,0.0,0.0,0.0,0.0,0.0,0.0,0.0,0.0,0.0,0.0,0.0,0.0,0.0,0.0,0.0,0.0,0.0,0.0,0.0,0.0,0.0,0.0,0.0,0.0,0.0,0.0,0.0,0.0,0.0,0.0,0.0,0.0,0.0,0.0,0.0,0.0,0.0,0.0,0.0,0.0,0.0,0.0,0.0,0.0,0.0,0.0,0.0,0.0,0.0,0.0,0.0,0.0,0.0,0.0,0.0,0.0,0.0,0.0,0.0,0.0,0.0,0.0,0.0,0.0,0.0,0.0,0.0,0.0,0.0,0.0,0.0,0.0,0.0,0.0,0.0,0.0,0.0,0.0,0.0,0.0,0.0,0.0,0.0,0.0,0.0,0.0,0.0,0.0,0.0,0.0,0.0,0.0,0.0,0.0,0.0,0.0,0.0,0.0,0.0,0.0,0.0,0.0,0.0,0.0,0.0,0.0,0.0,0.0,0.0,0.0,0.0,0.0,0.0,0.0,0.0,0.0,0.0,0.0,0.0,0.0,0.0,0.0,0.0,0.0,0.0,0.0,0.0,0.0,0.0,0.0,0.0,0.0,0.0,0.0,0.0,0.0,0.0,0.0,0.0,0.0,0.0,0.0,0.0,0.0,0.0,0.0,0.0,0.0,0.0,0.0,0.0,0.0,0.0,0.0,0.0,0.0,0.0,0.0,0.0,0.0,0.0,0.0,0.0,0.0,0.0,0.0,0.0,0.0,0.0,0.0,0.0,0.0,0.0,0.0,0.0,0.0,0.0,0.0,0.0,0.0,0.0,0.0,0.0,0.0,0.0,0.0,0.0,0.0,0.0,0.0,0.0,0.0,0.0,0.0,0.0,0.0,0.0,0.0,0.0,0.0,0.0,0.0,0.0,0.0,0.0,0.0,0.0,0.0,0.0,0.0,0.0,0.0,0.0,0.0,0.0,0.0,0.0,0.0,0.0,0.0,0.0,0.0,0.0,0.0,0.0,0.0,0.0,0.0,0.0,0.0,0.0,0.0,0.0,0.0,0.0,0.0,0.0,0.0,0.0,0.0,0.0,0.0,0.0,0.0,0.0,0.0,0.0,0.0,0.0,0.0,0.0,0.0,0.0,0.0,0.0,0.0,0.0,0.0,0.0,0.0,0.0,0.0,0.0,0.0,0.0,0.0,0.0,0.0,0.0,0.0,0.0,0.0,0.0,0.0,0.0,0.0,0.0,0.0,0.0,0.0,0.0,0.0,0.0,0.0,0.0,0.0,0.0,0.0,0.0,0.0,0.0,0.0,0.0,0.0,0.0,0.0,0.0,0.0,0.0,0.0,0.0,0.0,0.0,0.0,0.0,0.0,0.0,0.0,0.0,0.0,0.0,0.0,0.0,0.0,0.0,0.0,0.0,0.0,0.0,0.0,0.0,0.0,0.0,0.0,0.0,0.0,0.0,0.0,0.0,0.0,0.0,0.0,0.0,0.0,0.0,0.0,0.0,0.0,0.0,0.0,0.0,0.0,0.0,0.0,0.0,0.0,0.0,0.0,0.0,0.0,0.0,0.0,0.0,0.0,0.0,0.0,0.0,0.0,0.0,0.0,0.0,0.0,0.0,0.0,0.0,0.0,0.0,0.0,0.0,0.0,0.0,0.0,0.0,0.0,0.0,0.0,0.0,0.0,0.0,0.0,0.0,0.0,0.0,0.0,0.0,0.0,0.0,0.0,0.0,0.0,0.0,0.0,0.0,0.0,0.0,0.0,0.0,0.0,0.0,0.0,0.0,0.0,0.0,0.0,0.0,0.0,0.0,0.0,0.0,0.0,0.0,0.0,0.0,0.0,0.0,0.0,0.0,0.0,0.0,0.0,0.0,0.0,0.0,0.0,0.0,0.0,0.0,0.0,0.0,0.0,0.0,0.0,0.0,0.0,0.0,0.0,0.0,0.0,0.0,0.0,0.0,0.0,0.0,0.0,0.0,0.0,0.0,0.0,0.0,0.0,0.0,0.0,0.0,0.0,0.0,0.0,0.0,0.0,0.0,0.0,0.0,0.0,0.0,0.0,0.0,0.0,0.0,0.0,0.0,0.0,0.0,0.0,0.0,0.0,0.0,0.0,0.0,0.0,0.0,0.0,0.0,0.0,0.0,0.0,0.0,0.0,0.0,0.0,0.0,0.0,0.0,0.0,0.0,0.0,0.0,0.0,0.0,0.0,0.0,0.0,0.0,0.0,0.0,0.0,0.0,0.0,0.0,0.0,0.0,0.0,0.0,0.0,0.0,0.0,0.0,0.0,0.0,0.0,0.0,0.0,0.0,0.0,0.0,0.0,0.0,0.0,0.0,0.0,0.0,0.0,0.0,0.0,0.0,0.0,0.0,0.0,0.0,0.0,0.0,0.0,0.0,0.0,0.0,0.0,0.0,0.0,0.0,0.0,0.0,0.0,0.0,0.0,0.0,0.0,0.0,0.0,0.0,0.0,0.0,0.0,0.0,0.0,0.0,0.0,0.0,0.0,0.0,0.0,0.0,0.0,0.0,0.0,0.0,0.0,0.0,0.0,0.0,0.0,0.0,0.0,0.0,0.0,0.0,0.0,0.0,0.0,0.0,0.0,0.0,0.0,0.0,0.0,0.0,0.0,0.0,0.0,0.0,0.0,0.0,0.0,0.0,0.0,0.0,0.0,0.0,0.0,0.0,0.0,0.0,0.0,0.0,0.0,0.0,0.0,0.0,0.0,0.0,0.0,0.0,0.0,0.0,0.0,0.0,0.0,0.0,0.0,0.0,0.0,0.0,0.0,0.0,0.0,0.0,0.0,0.0,0.0,0.0,0.0,0.0,0.0,0.0,0.0,0.0,0.0,0.0,0.0,0.0,0.0,0.0,0.0,0.0,0.0,0.0,0.0,0.0,0.0,0.0,0.0,0.0,0.0,0.0,0.0,0.0,0.0,0.0,0.0,0.0,0.0,0.0,0.0,0.0,0.0,0.0,0.0,0.0,0.0,0.0,0.0,0.0,0.0,0.0,0.0,0.0,0.0,0.0,0.0,0.0,0.0,0.0,0.0,0.0,0.0,0.0,0.0,0.0,0.0,0.0,0.0,0.0,0.0,0.0,0.0,0.0,0.0,0.0,0.0,0.0,0.0,0.0,0.0,0.0,0.0,0.0,0.0,0.0,0.0,0.0,0.0,0.0,0.0,0.0,0.0,0.0,0.0,0.0,0.0,0.0,0.0,0.0,0.0,0.0,0.0,0.0,0.0,0.0,0.0,0.0,0.0,0.0,0.0,0.0,0.0,0.0,0.0,0.0,0.0,0.0,0.0,0.0,0.0,0.0,0.0,0.0,0.0,0.0,0.0,0.0,0.0,0.0,0.0,0.0,0.0,0.0,0.0,0.0,0.0,0.0,0.0,0.0,0.0,0.0,0.0,0.0,0.0,0.0,0.0,0.0,0.0,0.0,0.0,0.0,0.0,0.0,0.0,0.0,0.0,0.0,0.0,0.0,0.0,0.0,0.0,0.0,0.0,0.0,0.0,0.0,0.0,0.0,0.0,0.0,0.0,0.0,0.0,0.0,0.0,0.0,0.0,0.0,0.0,0.0,0.0,0.0,0.0,0.0,0.0,0.0,0.0,0.0,0.0,0.0,0.0,0.0,0.0,0.0,0.0,0.0,0.0,0.0,0.0,0.0,0.0,0.0,0.0,0.0,0.0,0.0,0.0,0.0,0.0,0.0,0.0,0.0,0.0,0.0,0.0,0.0,0.0,0.0,0.0,0.0,0.0,0.0,0.0,0.0,0.0,0.0,0.0,0.0,0.0,0.0,0.0,0.0,0.0,0.0,0.0,0.0,0.0,0.0,0.0,0.0,0.0,0.0,0.0,0.0,0.0,0.0,0.0,0.0,0.0,0.0,0.0,0.0,0.0,0.0,0.0,0.0,0.0,0.0,0.0,0.0,0.0,0.0,0.0,0.0,0.0,0.0,0.0,0.0,0.0,1.9711,0.0,0.0,0.0,0.0,0.0,0.0,0.0,0.0,0.0,0.0,0.0,0.0,0.0,0.0,0.0,0.0,0.0,0.0,0.0,0.0,0.0,0.0,0.0,0.0,0.0,0.0,0.0,0.0,0.0,0.0,0.0,0.0,0.0,0.0,0.0,0.0,0.0,0.0,0.0,2.1109,2.1109,2.1109,2.1109,2.1109,2.1109,0.0,0.0,0.0,0.0,0.0,0.0,0.0,0.0,0.0,0.0,0.0,0.0,0.0,0.0,0.0,0.0,0.0,0.0,0.0,0.0,0.0,0.0,0.0,0.0,0.0,0.0,0.0,0.0,0.0,0.0,0.0,0.0,0.0,0.0,0.0,0.0,0.0,0.0,0.0,0.0,0.0,0.0,0.0,0.0,0.0,0.0,0.0,0.0,0.0,0.0,0.0,0.0,0.0,0.0,0.0,0.0,0.0,0.0,0.0,0.0,0.0,0.0,0.0,0.0,0.0,0.0,0.0,0.0,0.0,0.0,0.0,2.0043,0.0,0.0,0.0,0.0,0.0,0.0,0.0,0.0,0.0,0.0,0.0,0.0,0.0,0.0,0.0,0.0,0.0,0.0,0.0,0.0,0.0,0.0,0.0,0.0,2.0792,2.1109,2.1109,0.0,0.0,0.0,0.0,0.0,0.0,0.0,0.0,2.1109,2.1109,2.1109,2.1109,2.1109,2.1109,2.1109,2.1109,2.1109,2.1109,0.0,0.0,0.0,0.0,0.0,0.0,0.0,0.0,0.0,0.0,0.0,0.0,0.0,0.0,0.0,0.0,0.0,0.0,0.0,0.0,0.0,0.0,0.0,0.0,0.0,0.0,0.0,0.0,0.0,0.0,0.0,0.0,0.0,0.0,0.0,0.0,0.0,0.0,0.0,0.0,0.0,0.0,0.0,0.0,0.0,0.0,0.0,0.0,0.0,0.0,0.0,0.0,0.0,0.0,0.0,0.0,0.0,0.0,0.0,0.0,0.0,0.0,0.0,2.0666,2.0539,2.0488,2.0234,2.0234,2.0488,2.0234,2.0297,2.0666,2.0602,0.0,0.0,0.0,0.0,0.0,0.0,0.0,0.0,0.0,0.0,0.0,0.0,0.0,0.0,0.0,0.0,0.0,0.0,0.0,0.0,0.0,2.1046,2.1046,2.1109,2.1109,2.1109,0.0,0.0,0.0,0.0,0.0,0.0,2.1109,2.1109,2.1109,2.1109,2.1109,2.1109,2.1109,2.1109,2.1109,2.1109,2.1109,2.1109,2.1109,0.0,0.0,0.0,0.0,0.0,0.0,0.0,0.0,0.0,0.0,0.0,0.0,0.0,0.0,0.0,0.0,0.0,0.0,0.0,0.0,0.0,0.0,0.0,0.0,0.0,0.0,0.0,0.0,0.0,0.0,0.0,0.0,0.0,0.0,0.0,0.0,0.0,0.0,0.0,0.0,0.0,2.017,2.0106,0.0,0.0,0.0,0.0,0.0,0.0,0.0,0.0,0.0,0.0,0.0,0.0,0.0,2.0488,2.017,2.0488,2.0552,2.0234,2.0488,2.0425,2.017,2.0106,2.0106,2.017,2.0106,0.0,2.0982,2.0729,0.0,0.0,0.0,0.0,0.0,0.0,0.0,0.0,0.0,0.0,0.0,0.0,0.0,0.0,0.0,0.0,0.0,0.0,0.0,0.0,0.0,2.1109,2.1109,2.1109,2.1109,2.1109,2.1109,0.0,0.0,0.0,0.0,2.1109,2.1109,2.1109,2.1109,2.1109,2.1109,2.1109,2.1109,2.1109,2.1109,2.1109,2.1109,2.1109,2.1109,2.1109,0.0,0.0,0.0,0.0,0.0,0.0,0.0,0.0,0.0,0.0,0.0,0.0,0.0,0.0,0.0,0.0,0.0,0.0,0.0,0.0,0.0,0.0,0.0,0.0,0.0,0.0,0.0,0.0,0.0,0.0,0.0,0.0,0.0,0.0,0.0,0.0,0.0,0.0,0.0,2.0361,2.0361,2.0361,2.0361,2.0488,0.0,0.0,0.0,0.0,0.0,0.0,0.0,0.0,0.0,2.0615,2.0792,2.0729,2.0361,2.0729,2.0792,2.0666,2.0792,2.0792,2.0679,2.0679,2.0679,2.0679,2.0679,2.0856,2.1046,2.0729,2.0729,2.0856,0.0,0.0,0.0,0.0,2.0539,2.0425,0.0,0.0,0.0,0.0,0.0,0.0,0.0,0.0,0.0,0.0,0.0,0.0,2.1109,2.1109,2.1109,2.1109,2.1109,2.1109,2.1109,2.1109,0.0,0.0,0.0,2.1109,2.1109,2.1109,2.1109,2.1109,2.1109,2.1109,2.1109,2.1109,2.1109,2.1109,2.1109,2.1109,2.1109,2.1109,2.1109,2.1109,0.0,0.0,0.0,0.0,0.0,0.0,0.0,0.0,0.0,0.0,0.0,0.0,0.0,0.0,0.0,0.0,0.0,0.0,0.0,0.0,0.0,0.0,0.0,0.0,0.0,0.0,0.0,0.0,0.0,0.0,0.0,0.0,0.0,0.0,0.0,0.0,0.0,2.0552,2.0488,2.0488,2.0552,2.0666,0.0,0.0,0.0,0.0,0.0,0.0,2.0729,2.0982,2.0982,2.0729,2.0982,2.0982,2.0729,2.0982,2.1109,2.1109,2.1109,2.1109,2.1109,2.1109,2.1109,2.1109,2.1109,2.1109,2.1109,2.0856,2.0856,2.1109,2.1109,2.1109,2.1109,2.1109,2.0919,2.0729,0.0,0.0,0.0,0.0,0.0,0.0,0.0,0.0,0.0,0.0,0.0,2.1109,2.1109,2.1109,2.1109,2.1109,2.1109,2.1109,2.1109,2.1109,2.1109,2.1109,2.1109,2.1109,2.1109,2.1109,2.1109,2.1109,2.1109,2.1109,2.1109,2.1109,2.1109,2.1109,2.1109,2.1109,2.1109,2.1109,2.1109,2.1109,2.1109,0.0,0.0,0.0,0.0,0.0,0.0,0.0,0.0,0.0,0.0,0.0,0.0,0.0,0.0,0.0,0.0,0.0,0.0,0.0,0.0,0.0,0.0,0.0,0.0,0.0,0.0,0.0,0.0,0.0,0.0,0.0,0.0,0.0,0.0,0.0,0.0,0.0,0.0,2.0106,2.0425,0.0,0.0,0.0,0.0,2.1109,2.1109,2.1109,2.1109,2.1109,2.1109,2.1109,2.1109,2.1109,2.1109,2.1109,2.1109,2.1109,2.1109,2.1109,2.1109,2.1109,2.1109,2.1109,2.1109,2.1109,2.1109,2.1109,2.1109,2.1109,2.1109,2.1109,2.1109,2.1109,2.1109,2.1109,0.0,0.0,0.0,0.0,0.0,0.0,0.0,0.0,0.0,2.1109,2.1109,2.1109,2.1109,2.1109,2.1109,2.1109,2.1109,2.1109,2.1109,2.1109,2.1109,2.1109,2.1109,2.1109,2.1109,2.1109,2.1109,2.1109,2.1109,2.1109,2.1109,2.1109,2.1109,2.1172,2.2027,2.2404,2.2341,2.1475,2.1109,2.1109,2.1109,2.1109,0.0,0.0,0.0,0.0,0.0,0.0,0.0,0.0,0.0,0.0,0.0,0.0,0.0,0.0,0.0,0.0,0.0,0.0,0.0,0.0,0.0,0.0,0.0,0.0,0.0,0.0,0.0,0.0,0.0,0.0,0.0,0.0,0.0,0.0,0.0,0.0,0.0,2.0425,2.0729,0.0,2.0919,2.1046,2.1109,2.1109,2.1109,2.1109,2.1109,2.1109,2.1109,2.1109,2.1109,2.1109,2.1109,2.1109,2.1109,2.1109,2.1109,2.1109,2.1109,2.1109,2.1109,2.1109,2.1109,2.1109,2.1109,2.1109,2.1109,2.1109,2.1109,2.1109,2.1109,2.1109,2.1109,2.1109,0.0,0.0,0.0,0.0,0.0,0.0,0.0,0.0,2.1109,2.1109,2.1109,2.1109,2.1109,2.1109,2.1109,2.1109,2.1109,2.1109,2.1109,2.1109,2.1109,2.1109,2.1109,2.1109,2.1109,2.1109,2.1109,2.1109,2.1109,2.1109,2.1109,2.1109,2.1109,2.1172,2.2027,2.2466,2.2404,2.1964,2.2027,2.2404,2.1964,2.179,2.1727,0.0,0.0,0.0,0.0,0.0,0.0,0.0,0.0,0.0,0.0,0.0,0.0,0.0,0.0,0.0,0.0,0.0,0.0,0.0,0.0,0.0,0.0,0.0,0.0,0.0,0.0,0.0,0.0,0.0,0.0,0.0,0.0,0.0,0.0,0.0,2.0919,2.0792,2.0982,2.1109,2.1109,2.1109,2.1109,2.1109,2.1109,2.1109,2.1109,2.1109,2.1109,2.1109,2.1109,2.1109,2.1109,2.1109,2.1109,2.1109,2.1109,2.1109,2.1109,2.1109,2.1109,2.1109,2.1109,2.1109,2.1109,2.1109,2.1109,2.1109,2.1109,2.1109,2.1109,2.1109,2.1109,2.1109,0.0,0.0,0.0,0.0,0.0,0.0,0.0,2.1109,2.1109,2.1109,2.1109,2.1109,2.1109,2.1109,2.1109,2.1109,2.1109,2.1109,2.1109,2.1109,2.1109,2.1109,2.1109,2.1109,2.1109,2.1109,2.1109,2.1109,2.1109,2.1109,2.1109,2.1109,2.1109,2.1109,2.1172,2.1172,2.1235,2.2577,2.3884,2.4871,2.3636,2.3139,2.3014,0.0,0.0,0.0,0.0,0.0,0.0,0.0,0.0,0.0,0.0,0.0,0.0,0.0,0.0,0.0,0.0,0.0,0.0,0.0,0.0,0.0,0.0,0.0,0.0,0.0,0.0,0.0,0.0,0.0,0.0,0.0,0.0,0.0,2.0602,2.0602,2.0729,2.1046,2.1109,2.1109,2.1109,2.1109,2.1109,2.1109,2.1109,2.1109,2.1109,2.1109,2.1109,2.1109,2.1109,2.1109,2.1109,2.1109,2.1109,2.1109,2.1109,2.1109,2.1122,2.1122,2.1122,2.1136,2.1136,2.1136,2.1136,2.1136,2.1136,2.1136,2.1122,2.1109,2.1109,2.1109,2.1109,2.1109,0.0,0.0,0.0,0.0,0.0,0.0,0.0,2.1109,2.1109,2.1109,2.1109,2.1109,2.1109,2.1109,2.1109,2.1109,2.1109,2.1109,2.1109,2.1109,2.1109,2.1109,2.1109,2.1109,2.1109,2.1109,2.1109,2.1109,2.1109,2.1109,2.1109,2.1109,2.1109,2.1172,2.209,2.2529,2.264,2.3946,2.4687,2.4994,2.4625,2.4502,2.4317,0.0,0.0,0.0,0.0,0.0,0.0,0.0,0.0,0.0,0.0,0.0,0.0,0.0,0.0,0.0,0.0,0.0,0.0,0.0,0.0,0.0,0.0,0.0,0.0,0.0,0.0,0.0,0.0,0.0,0.0,0.0,0.0,2.0666,2.0919,2.0982,2.0982,2.1109,2.1109,2.1109,2.1109,2.1109,2.1109,2.1109,2.1109,2.1109,2.1109,2.1109,2.1109,2.1109,2.1109,2.1109,2.1109,2.1109,2.1109,2.1109,2.1109,2.1229,2.143,2.143,2.155,2.175,2.175,2.175,2.175,2.175,2.175,2.1697,2.1283,2.1109,2.1109,2.1109,2.1109,2.1109,0.0,0.0,0.0,0.0,0.0,0.0,0.0,2.1109,2.1109,2.1109,2.1109,2.1109,2.1109,2.1109,2.1109,2.1109,2.1109,2.1109,2.1109,2.1109,2.1109,2.1109,2.1109,2.1109,2.1109,2.1109,2.1109,2.1109,2.1109,2.1109,2.1109,2.1109,2.1109,2.1109,2.1902,2.2278,2.2341,2.3636,2.4193,2.4255,2.481,2.4687,2.4131,2.3387,2.2764,2.2153,2.1348,2.1109,2.1109,2.1109,0.0,0.0,0.0,0.0,0.0,0.0,0.0,0.0,0.0,0.0,0.0,0.0,0.0,0.0,0.0,0.0,0.0,0.0,0.0,0.0,0.0,0.0,0.0,0.0,2.0792,2.0856,2.1046,2.0982,2.0919,2.1109,2.1109,2.1109,2.1109,2.1109,2.1109,2.1109,2.1109,2.1109,2.1109,2.1109,2.1162,2.1296,2.1296,2.1349,2.147,2.1483,2.1483,2.1483,2.1483,2.1563,2.1802,2.1802,2.183,2.1991,2.1991,2.1991,2.1991,2.1991,2.1991,0.0,0.0,0.0,0.0,0.0,2.1483,2.1483,0.0,0.0,0.0,0.0,0.0,0.0,0.0,2.1109,2.1109,2.1109,2.1109,2.1109,2.1109,2.1109,2.1109,2.1109,2.1109,2.1109,2.1109,2.1109,2.1109,2.1109,2.1109,2.1109,2.1109,2.1109,2.1109,2.1109,2.1109,2.1109,2.1109,2.1109,2.1109,2.1109,2.1109,2.1109,2.1172,2.2404,2.2889,2.3014,2.4255,2.4193,2.3325,2.3139,2.2341,2.1299,2.1172,2.1109,2.1109,2.1109,0.0,0.0,0.0,0.0,0.0,0.0,0.0,0.0,0.0,0.0,0.0,0.0,0.0,0.0,0.0,0.0,0.0,0.0,0.0,0.0,0.0,0.0,0.0,0.0,2.1046,2.1046,2.1109,2.0792,2.0729,2.1046,2.1109,2.1109,2.1109,2.1109,2.1109,2.1109,2.1136,2.1162,2.1162,0.0,0.0,0.0,0.0,2.1789,2.1977,2.1991,2.1991,2.1991,2.1991,2.2004,2.2031,2.2031,2.2058,2.2084,2.2084,2.2084,2.2084,2.2084,2.2084,2.2071,2.2017,2.1991,2.1991,2.1991,2.1991,2.1991,0.0,0.0,0.0,0.0,0.0,0.0,0.0,2.1109,2.1109,2.1109,2.1109,2.1109,2.1109,2.1109,2.1109,2.1109,2.1109,2.1109,2.1109,2.1109,2.1109,2.1109,2.1109,2.1109,2.1109,2.1109,2.1109,2.1109,2.1109,2.1109,2.1109,2.1109,2.1109,2.1109,2.1109,2.1109,2.1109,2.1362,2.1475,2.1601,2.2952,2.3946,2.4502,2.3512,2.2952,2.2591,2.1475,2.1109,2.1109,2.1109,2.1109,2.1109,2.1109,0.0,0.0,0.0,0.0,0.0,0.0,0.0,0.0,0.0,0.0,0.0,0.0,0.0,0.0,0.0,0.0,0.0,0.0,0.0,0.0,2.1109,2.0856,2.0792,2.1046,2.0792,2.0729,2.1046,2.1109,2.1109,2.1109,2.1109,2.1109,2.1109,2.1336,2.1534,2.1534,2.1683,2.1844,2.1897,2.1897,2.1924,2.1991,2.1991,2.1991,2.1991,0.0,0.0,2.2338,2.2338,2.2458,2.2767,2.2767,2.2767,2.2767,2.2767,2.2767,2.2645,2.2178,2.1991,2.1991,2.1991,2.1991,2.1991,0.0,0.0,0.0,0.0,0.0,0.0,0.0,2.1109,2.1109,2.1109,2.1109,2.1109,2.1109,2.1109,2.1109,2.1109,2.1109,2.1109,2.1109,2.1109,2.1109,2.1109,2.1109,2.1109,2.1109,2.1109,2.1109,2.1109,2.1109,2.1109,2.1109,2.1109,2.1109,2.1109,2.1109,2.1109,2.1172,2.1853,2.1727,2.1235,2.2577,2.3076,2.3029,2.3076,2.2702,2.2027,2.1348,2.1109,2.1109,2.1109,2.1109,2.1109,2.1109,2.1109,2.1109,0.0,0.0,0.0,0.0,0.0,0.0,0.0,0.0,0.0,0.0,0.0,0.0,0.0,0.0,2.1046,0.0,0.0,2.1046,2.0856,2.0988,2.108,2.1067,2.1199,2.125,2.1149,2.1109,2.1162,2.1309,2.1336,2.139,2.1537,2.1683,2.1764,2.1764,2.1911,2.2044,2.2205,2.2205,2.2271,2.2418,2.2418,2.2418,2.2418,2.2418,2.2498,2.2645,2.2645,2.2726,2.2928,2.2928,2.2928,2.2928,2.2928,2.2928,2.2901,2.2539,2.2418,2.2418,2.2418,2.2418,2.2418,0.0,0.0,0.0,0.0,0.0,0.0,0.0,0.0,2.1109,2.1109,2.1109,2.1109,2.1109,2.1109,2.1109,2.1109,2.1109,2.1109,2.1109,2.1109,2.1109,2.1109,2.1109,2.1109,2.1109,2.1109,2.1109,2.1109,2.1109,2.1109,2.1109,2.1109,2.1109,2.1109,2.1109,2.1109,2.1172,2.2278,2.209,2.1172,2.2278,2.2027,2.1235,2.2278,2.2027,2.1109,2.1109,2.1109,2.1109,2.1109,2.1109,2.1109,2.1109,2.1109,2.1109,2.1109,2.1109,0.0,0.0,0.0,0.0,0.0,0.0,0.0,0.0,0.0,2.0856,2.0666,2.0909,2.1062,2.0757,2.0924,2.1091,2.0772,2.1225,2.15,2.1241,2.1634,2.1804,2.1336,2.1283,2.1376,2.1681,2.1695,2.1802,2.1964,2.2031,2.2071,2.2071,2.2124,2.2258,2.2498,2.2498,2.2645,2.2953,2.2953,2.2979,2.3046,2.3046,2.3046,2.3046,2.3046,2.3046,2.3046,2.3046,2.3046,2.3046,2.3046,2.3046,2.3046,2.3046,2.3046,2.302,2.2968,2.2928,2.2928,0.0,0.0,0.0,0.0,0.0,0.0,0.0,0.0,0.0,2.1109,2.1109,2.1109,2.1109,2.1109,2.1109,2.1109,2.1109,2.1109,2.1109,2.1109,2.1109,2.1109,2.1109,2.1109,2.1109,2.1109,2.1109,2.1109,2.1109,2.1109,2.1109,2.1109,2.1109,2.1109,2.1109,2.1109,2.1109,2.1235,2.1235,2.1109,2.1235,2.1235,2.1109,2.1299,2.1235,2.1109,2.1109,2.1109,2.1109,2.1109,2.1109,2.1109,2.1109,2.1109,2.1109,2.1109,0.0,2.1109,2.1109,2.1109,2.1109,2.1109,2.0666,2.0297,0.0,0.0,2.0297,2.0552,2.1131,2.1445,2.1045,2.1189,2.1358,2.1293,2.1384,2.1542,2.1872,2.1964,2.1964,2.1897,2.1884,2.1897,2.1937,2.1937,2.1951,2.1977,2.2218,2.2378,2.2378,2.2619,2.2779,2.2806,2.2819,2.2966,2.3273,2.3273,2.3407,2.3674,2.3674,2.3674,2.3674,2.3674,2.3674,2.3674,2.3674,2.3674,2.3674,2.3674,2.3674,2.3674,2.3674,2.3674,2.3607,2.3129,2.2928,2.2928,0.0,0.0,0.0,0.0,0.0,0.0,0.0,0.0,0.0,0.0,2.1109,2.1109,2.1109,2.1109,2.1109,2.1109,2.1109,2.1109,2.1109,2.1109,2.1109,2.1109,2.1109,2.1109,2.1109,2.1109,2.1109,2.1109,2.1109,2.1109,2.1109,2.1109,2.1109,2.1109,2.1109,2.1109,2.1172,2.1915,2.179,2.1172,2.1964,2.179,2.1109,2.1109,2.1109,2.1109,2.1109,2.1109,0.0,0.0,2.1109,2.1109,2.1109,2.1109,2.1109,2.1109,2.1109,0.0,2.1109,2.0982,2.0792,0.0,2.0602,2.0425,2.0539,2.0809,2.0927,2.085,2.1214,2.1346,2.1018,2.1174,2.1317,0.0,2.1593,2.1965,2.1978,2.2257,2.2498,2.2498,2.2498,2.2432,2.2258,2.2231,2.2311,2.2485,2.2605,2.2672,2.2672,2.2966,2.314,2.314,2.33,2.346,2.3581,2.3581,2.3647,2.3768,2.3768,2.3768,2.3768,2.3768,2.3768,2.3768,2.3768,2.3768,2.3768,2.3768,2.3768,2.3768,2.3768,2.3768,2.3741,2.3557,2.3394,2.3394,0.0,0.0,0.0,0.0,0.0,0.0,0.0,0.0,0.0,0.0,0.0,2.1109,2.1109,2.1109,2.1109,2.1109,2.1109,2.1109,2.1109,2.1109,2.1109,2.1109,2.1109,2.1109,2.1109,2.1109,2.1109,2.1109,2.1109,2.1109,2.1109,2.1109,2.1109,2.1109,2.1109,2.1109,2.1172,2.2153,2.1964,2.1172,2.2153,2.1964,2.1109,2.1109,2.1109,2.1109,2.1109,2.1109,0.0,0.0,2.1109,2.1109,2.1109,2.1109,2.1109,2.1109,2.1109,2.1109,2.1109,0.0,0.0,2.0729,2.0666,2.0628,2.0706,2.1082,2.1382,2.1072,2.124,2.1434,2.1114,2.1299,2.1497,2.1296,2.1934,2.2336,2.22,2.2589,2.2928,2.2928,2.2928,2.2806,2.2686,2.2592,2.2659,2.2966,2.2993,2.3033,2.3113,2.3327,2.3447,2.3447,2.3661,2.3808,2.3888,2.3888,2.3928,2.4008,2.4008,2.4008,2.4008,2.4008,2.4008,2.4008,2.4008,2.4008,2.4008,2.4008,2.4008,2.4008,2.4008,2.4008,2.4008,2.4008,2.3915,2.3768,0.0,0.0,0.0,0.0,0.0,0.0,0.0,0.0,0.0,0.0,0.0,0.0,0.0,0.0,2.1109,2.1109,2.1109,2.1109,2.1109,2.1109,2.1109,2.1109,2.1109,2.1109,2.1109,2.1109,2.1109,2.1109,2.1109,2.1109,2.1109,2.1109,2.1109,2.1109,2.1109,2.1109,2.1109,2.1172,2.1172,2.1109,2.1172,2.1172,2.1109,2.1109,2.1109,2.1109,2.1109,0.0,0.0,0.0,2.1109,2.1109,2.1109,2.1109,0.0,2.1109,2.1109,0.0,0.0,0.0,2.1109,2.1109,2.0856,2.068,2.0954,2.1019,2.0981,2.0923,2.1404,2.1732,2.1327,2.1556,2.1872,2.2216,2.2284,2.2435,2.2846,2.2859,2.2928,2.2928,2.2928,2.2979,0.0,2.3033,2.2979,2.3287,2.3313,2.3434,2.3728,2.3754,2.3754,2.3754,2.3768,2.3901,2.4195,2.4195,2.4329,2.4609,2.4609,2.4609,2.4609,2.4609,2.4609,2.4609,2.4609,2.4609,2.4609,2.4609,2.4609,2.4609,2.4609,2.4609,2.4609,2.4609,2.4249,2.3768,0.0,0.0,0.0,0.0,0.0,0.0,0.0,0.0,0.0,0.0,0.0,0.0,0.0,0.0,0.0,0.0,2.1109,2.1109,2.1109,2.1109,2.1109,2.1109,2.1109,2.1109,2.1109,2.1109,2.1109,2.1109,2.1109,2.1109,2.1109,2.1109,2.1109,2.1109,2.1109,2.1109,2.1109,2.1109,2.1109,2.1109,2.1109,2.1109,2.1109,2.1109,2.1109,2.1109,0.0,0.0,0.0,0.0,0.0,0.0,2.0792,0.0,0.0,2.1046,0.0,0.0,0.0,0.0,2.0488,2.0729,2.0809,2.0851,2.0695,2.1135,2.1499,2.1254,2.1293,2.1483,2.162,2.1696,2.1841,2.1966,2.2379,2.2654,2.2516,2.2722,2.2928,2.2928,2.3046,0.0,0.0,0.0,0.0,2.3594,2.3621,2.3661,2.3768,2.3955,2.4062,2.4062,2.4249,2.4396,2.4489,2.4489,2.4543,2.4636,2.4636,2.4636,2.4636,2.4636,2.4636,2.4636,2.4636,2.4636,2.4636,2.4636,2.4636,2.4636,2.4636,2.4636,2.4636,2.4636,2.4516,2.4342,0.0,0.0,0.0,0.0,0.0,0.0,0.0,0.0,0.0,0.0,0.0,0.0,0.0,0.0,0.0,0.0,0.0,0.0,2.1109,2.0982,2.0919,2.0919,2.0919,2.0919,2.0919,2.0919,2.0919,2.0919,2.0919,2.0919,2.0919,2.1046,2.1109,2.1109,2.1109,2.1109,2.1109,2.1109,2.1109,2.1109,2.1109,2.1109,2.1109,2.1109,2.1109,0.0,0.0,0.0,0.0,0.0,0.0,0.0,0.0,0.0,0.0,0.0,0.0,0.0,0.0,2.0615,2.0323,2.0669,2.0773,2.0825,2.0768,2.1219,2.1649,2.1535,2.1302,2.1346,2.1897,2.176,2.1691,2.2104,2.2448,2.2654,2.2516,2.2722,2.2968,2.302,2.3207,2.3407,0.0,0.0,0.0,2.3915,2.3928,2.3968,2.4075,2.4262,2.4356,2.4356,2.4543,2.4636,2.4636,2.4636,2.4636,2.4636,2.4636,2.4636,2.4636,2.4636,2.4636,2.4636,2.4636,2.4636,2.4636,2.4636,2.4636,2.4636,2.4636,2.4636,2.4636,2.4636,2.4636,2.4636,0.0,0.0,0.0,0.0,0.0,0.0,0.0,0.0,0.0,0.0,0.0,0.0,0.0,0.0,0.0,0.0,0.0,0.0,2.1109,2.0792,2.0602,2.0602,2.0602,2.0602,2.0539,2.0602,2.0602,2.0602,2.0602,2.0602,2.0615,2.0919,2.1046,2.1109,2.1109,2.1109,2.1109,2.1109,2.1109,2.1109,2.1109,2.1109,2.1109,2.1109,0.0,0.0,0.0,0.0,0.0,0.0,0.0,0.0,0.0,0.0,0.0,0.0,0.0,2.0982,2.0679,2.0615,2.063,2.0903,2.0734,2.0691,2.1158,2.1285,2.1374,2.1709,2.1415,2.1415,0.0,0.0,2.1622,2.2722,2.2585,2.2448,2.2791,2.2873,2.2993,0.0,0.0,0.0,0.0,0.0,0.0,2.4222,0.0,2.4342,2.4623,2.4636,2.4636,2.4636,2.4636,2.4636,2.4636,2.4636,2.4636,2.4636,2.4636,2.4636,2.4636,2.4636,2.4636,2.4636,2.4636,2.4636,2.4636,2.4636,2.4636,2.4636,2.4636,2.4636,2.4636,2.4636,2.4636,2.4636,0.0,0.0,0.0,0.0,0.0,0.0,0.0,0.0,0.0,0.0,0.0,0.0,0.0,0.0,0.0,0.0,0.0,0.0,2.1109,2.1046,2.0856,2.0615,2.0602,0.0,0.0,0.0,0.0,2.0602,2.0602,2.0602,2.0602,2.0679,2.0729,2.0729,2.0982,2.1109,2.1109,2.1109,2.1109,2.1109,0.0,2.1109,2.1109,0.0,0.0,0.0,0.0,0.0,0.0,0.0,0.0,0.0,0.0,0.0,2.1046,0.0,0.0,2.0729,2.0602,2.0567,2.0554,2.063,2.0831,2.104,2.0977,2.1096,2.1202,2.1,2.0873,2.1081,0.0,0.0,0.0,2.2379,2.2654,0.0,2.2448,2.2852,0.0,2.3313,0.0,2.4035,2.4195,2.4396,0.0,0.0,2.4529,2.4556,2.4636,2.4636,2.4636,2.4636,2.4636,2.4636,2.4636,2.4636,2.4636,2.4636,2.4636,2.4636,2.4636,2.4636,2.4636,2.4636,2.4636,2.4636,2.4636,2.4636,2.4636,2.4636,2.4636,2.4636,2.4636,2.4636,2.4636,2.4636,0.0,0.0,0.0,0.0,0.0,0.0,0.0,0.0,0.0,0.0,0.0,0.0,0.0,0.0,0.0,0.0,0.0,0.0,0.0,2.0982,2.0729,2.0425,2.0361,0.0,0.0,0.0,0.0,0.0,0.0,0.0,2.0602,2.0729,2.0792,2.0856,2.1046,2.1109,2.1109,2.1109,0.0,0.0,0.0,0.0,0.0,0.0,0.0,0.0,0.0,0.0,0.0,0.0,0.0,2.0297,2.0297,2.0615,2.0792,2.0488,0.0,2.0578,2.0567,2.0528,2.0512,2.0621,2.0722,2.0848,2.0754,2.0902,2.1012,2.1151,2.1012,0.0,0.0,0.0,0.0,0.0,0.0,0.0,2.2585,2.2988,2.338,0.0,2.3928,0.0,2.4382,2.4543,2.4636,0.0,2.4636,2.4636,2.4636,2.4636,2.4636,2.4636,2.4636,2.4636,2.4636,2.4636,2.4703,2.4836,2.4836,2.4903,2.5024,2.5024,2.5024,2.5024,0.0,2.5024,2.5024,2.5024,2.5024,2.5024,2.5024,2.5024,2.5024,2.5024,2.4943,2.4836,0.0,0.0,0.0,0.0,0.0,0.0,0.0,0.0,0.0,0.0,0.0,0.0,0.0,0.0,0.0,0.0,0.0,0.0,0.0,0.0,0.0,0.0,2.0106,0.0,0.0,0.0,0.0,0.0,0.0,0.0,0.0,0.0,0.0,0.0,0.0,0.0,0.0,0.0,0.0,0.0,0.0,0.0,0.0,0.0,0.0,0.0,0.0,0.0,0.0,0.0,2.0856,2.0602,2.0552,2.0539,2.0552,2.0208,2.0412,2.0669,2.0566,2.0602,2.0611,2.0699,2.0576,2.0388,2.0617,2.0735,2.0943,2.1553,0.0,2.1622,2.2654,2.231,2.2104,2.2791,0.0,2.2529,2.2913,2.3193,2.35,2.3794,2.4088,2.4356,2.4609,2.4636,2.4636,2.4636,2.4636,2.4636,2.4636,2.4636,2.4649,2.469,2.469,2.4716,2.4756,2.4756,2.4877,2.5144,2.5144,2.5264,2.5518,2.5518,2.5518,2.5518,2.5518,2.5518,2.5518,2.5518,2.5518,2.5518,2.5518,2.5518,2.5518,2.5518,2.5358,2.5144,0.0,0.0,0.0,0.0,0.0,0.0,0.0,0.0,0.0,0.0,2.1109,2.1109,0.0,0.0,0.0,0.0,0.0,0.0,0.0,0.0,0.0,0.0,0.0,0.0,0.0,0.0,0.0,0.0,0.0,0.0,0.0,0.0,0.0,0.0,0.0,0.0,0.0,0.0,0.0,0.0,0.0,0.0,0.0,0.0,0.0,0.0,0.0,0.0,0.0,0.0,2.0856,2.0552,2.0297,2.0361,2.0591,2.0451,2.0644,2.089,2.0846,2.0955,2.1024,2.0515,2.0505,2.0617,2.0653,2.0943,0.0,0.0,2.1484,2.1829,2.231,2.231,2.2379,2.2859,0.0,0.0,0.0,0.0,2.3808,0.0,0.0,0.0,0.0,0.0,0.0,0.0,2.4636,2.4636,2.4636,2.4636,2.4743,2.4997,2.4997,2.5117,2.5358,2.5358,2.5384,2.5438,2.5438,2.5464,2.5518,2.5518,2.5518,2.5518,2.5518,0.0,2.5518,2.5518,2.5518,2.5518,2.5518,2.5518,2.5518,2.5518,2.5478,2.5438,0.0,0.0,0.0,0.0,0.0,0.0,0.0,2.1109,2.1109,2.1109,2.1109,2.1109,2.1109,2.1109,0.0,0.0,0.0,0.0,0.0,0.0,0.0,0.0,0.0,0.0,0.0,0.0,0.0,0.0,0.0,0.0,0.0,0.0,0.0,0.0,0.0,0.0,0.0,0.0,0.0,0.0,0.0,0.0,0.0,0.0,0.0,0.0,0.0,0.0,0.0,0.0,2.0856,2.0539,2.0234,2.0464,2.0799,2.054,2.0876,2.1254,2.114,2.1171,2.1175,2.0642,2.0707,2.0943,2.0943,0.0,0.0,0.0,2.1897,2.2173,2.2516,0.0,0.0,0.0,0.0,0.0,0.0,0.0,0.0,0.0,0.0,0.0,0.0,0.0,0.0,0.0,0.0,2.4796,2.4649,2.4783,2.4997,2.5291,2.5304,2.5371,2.5518,2.5518,2.5585,2.5745,2.5745,2.5825,2.5972,2.5972,2.5972,2.5972,2.5972,2.5972,2.5972,2.5972,2.5972,2.5972,2.5972,2.5972,2.5972,2.5972,2.5879,2.5745,0.0,0.0,0.0,0.0,0.0,0.0,0.0,2.1109,2.1109,2.1109,2.1109,2.1109,2.1109,2.1109,2.1109,0.0,0.0,0.0,0.0,0.0,0.0,0.0,0.0,0.0,0.0,0.0,0.0,0.0,0.0,0.0,0.0,0.0,0.0,0.0,0.0,0.0,0.0,0.0,0.0,0.0,0.0,0.0,0.0,0.0,0.0,0.0,0.0,0.0,0.0,0.0,2.0895,2.0643,2.0387,2.0606,2.0981,2.0655,2.1003,2.1486,2.142,2.1361,2.122,2.0894,2.1012,2.1207,2.1276,2.1622,0.0,0.0,2.2379,2.2516,2.2859,0.0,0.0,0.0,0.0,0.0,0.0,0.0,0.0,0.0,0.0,0.0,0.0,0.0,0.0,0.0,0.0,2.5064,2.4836,2.505,2.5304,2.5598,2.5611,2.5638,2.5705,2.5705,2.5812,2.613,2.613,2.6172,2.6386,2.6386,2.6386,2.6386,2.6386,2.6386,2.6386,2.6386,2.6386,2.6386,2.6386,2.6386,2.6386,2.6386,2.6239,2.613,0.0,0.0,0.0,0.0,0.0,0.0,0.0,2.1109,2.1109,2.1109,2.1109,2.1109,2.1109,2.1109,2.1109,0.0,0.0,0.0,0.0,0.0,0.0,0.0,0.0,0.0,0.0,0.0,0.0,0.0,0.0,0.0,0.0,0.0,0.0,0.0,0.0,0.0,0.0,0.0,0.0,0.0,0.0,0.0,0.0,0.0,0.0,0.0,0.0,0.0,0.0,0.0,0.0,2.0993,2.0929,2.0942,2.102,2.0963,0.0,0.0,2.1726,2.1515,2.1183,2.1138,2.1207,2.1276,2.1634,0.0,0.0,2.231,2.2585,2.2859,2.2859,2.2928,2.2928,0.0,0.0,0.0,0.0,0.0,0.0,0.0,0.0,0.0,0.0,0.0,0.0,0.0,0.0,2.5464,2.5438,2.5464,2.5611,2.5905,2.5919,2.6039,2.6306,2.6306,2.6319,2.6346,2.6346,2.636,2.6386,2.6386,2.6386,2.6386,2.6386,2.6386,0.0,2.6386,2.6386,2.6386,2.6386,2.6386,2.6386,2.6386,2.6373,2.6346,0.0,0.0,0.0,0.0,0.0,0.0,2.1109,2.1109,2.1109,2.1109,2.1109,2.1109,2.1109,2.1109,2.1109,0.0,0.0,0.0,0.0,0.0,0.0,0.0,0.0,0.0,0.0,0.0,0.0,0.0,0.0,0.0,0.0,0.0,0.0,0.0,0.0,0.0,0.0,0.0,0.0,0.0,0.0,0.0,0.0,0.0,0.0,0.0,0.0,0.0,0.0,0.0,0.0,0.0,2.1293,2.1542,0.0,0.0,2.1581,2.1688,2.1803,2.1484,2.1207,2.1207,2.1346,2.1691,2.2035,0.0,0.0,2.2654,2.2791,2.2928,2.2928,2.2928,2.2928,0.0,0.0,0.0,0.0,0.0,0.0,0.0,0.0,0.0,0.0,0.0,0.0,0.0,2.5718,2.5852,2.6026,2.5879,2.5919,2.6213,2.6213,2.6279,2.6386,2.6386,2.6386,2.6386,2.6386,2.6386,2.6386,2.6386,2.6386,2.6386,2.6386,2.6386,0.0,2.6386,2.6386,2.6386,2.6386,2.6386,2.6386,2.6386,2.6386,2.6386,0.0,0.0,0.0,0.0,0.0,2.1109,2.1109,2.1109,2.1109,2.1109,2.1109,2.1109,2.1109,2.1109,2.1109,2.1109,0.0,0.0,0.0,0.0,0.0,0.0,0.0,0.0,0.0,0.0,2.0856,2.1109,2.1109,0.0,0.0,0.0,0.0,0.0,0.0,0.0,0.0,0.0,0.0,0.0,0.0,0.0,0.0,0.0,0.0,0.0,0.0,0.0,0.0,0.0,0.0,0.0,0.0,0.0,0.0,0.0,2.1816,2.176,2.176,2.1484,2.1207,2.1346,2.1691,2.2035,0.0,0.0,2.2928,2.2928,2.2928,2.2928,2.2928,2.2928,2.2928,0.0,0.0,0.0,0.0,0.0,0.0,0.0,0.0,0.0,0.0,0.0,0.0,0.0,2.6039,2.6172,2.6373,2.6199,2.6172,2.6386,2.6386,2.6386,2.6386,2.6386,2.6386,2.6386,2.6386,2.6386,2.6386,2.6386,2.6386,2.6386,2.6386,2.6386,0.0,2.6386,2.6386,2.6386,2.6386,2.6386,2.6386,2.6386,2.6386,2.6386,0.0,0.0,0.0,0.0,0.0,0.0,2.1109,2.1109,2.1109,2.1109,2.1109,2.1109,2.1109,2.1109,2.1109,2.1109,0.0,0.0,0.0,0.0,0.0,0.0,0.0,0.0,0.0,0.0,2.1109,2.1109,2.1109,2.1109,2.1109,0.0,0.0,0.0,0.0,0.0,0.0,0.0,0.0,0.0,0.0,0.0,0.0,0.0,0.0,0.0,0.0,0.0,0.0,0.0,0.0,0.0,0.0,0.0,0.0,0.0,2.1816,2.176,2.176,2.1484,2.1276,2.1703,2.2035,2.2379,0.0,0.0,2.2928,2.2928,2.2928,2.2928,2.2928,2.2928,2.2928,2.2928,0.0,0.0,0.0,0.0,0.0,0.0,0.0,0.0,0.0,0.0,0.0,0.0,2.6226,0.0,2.6386,2.6386,2.6386,2.6386,2.6386,2.6386,2.6386,2.6386,2.6386,2.6386,2.6386,2.6386,2.6386,2.6386,2.6386,2.6386,2.6386,2.6386,0.0,2.6386,2.6386,2.6386,2.6386,2.6386,2.6386,2.6386,2.6386,2.6386,0.0,0.0,0.0,0.0,0.0,0.0,0.0,2.1109,2.1109,2.1109,2.1109,2.1109,2.1109,2.1109,2.1109,2.1109,0.0,0.0,0.0,0.0,0.0,0.0,0.0,0.0,0.0,0.0,2.1109,2.1109,2.1109,2.1109,2.1109,2.1109,2.1109,0.0,0.0,0.0,0.0,0.0,0.0,0.0,0.0,0.0,0.0,0.0,0.0,0.0,0.0,0.0,0.0,0.0,0.0,0.0,0.0,0.0,0.0,0.0,0.0,0.0,2.176,2.1691,2.1622,2.176,2.2035,2.2379,2.2791,0.0,2.2928,2.2928,2.2928,2.2928,2.2928,2.2928,2.2928,2.2928,0.0,0.0,0.0,0.0,0.0,0.0,0.0,0.0,0.0,0.0,0.0,2.6213,2.6333,2.6386,2.6386,2.6386,2.6386,2.6386,2.6386,2.6386,2.6386,2.6386,2.6386,2.6386,2.6386,2.6386,2.6386,2.6386,2.6386,2.6386,2.6386,2.6386,2.6386,2.6386,2.6386,2.6386,2.6386,2.6386,2.6386,2.6386,2.6386,2.6413,0.0,0.0,0.0,0.0,0.0,0.0,0.0,2.1109,2.1109,2.1109,2.1109,2.1109,2.1109,2.1109,2.1109,2.1109,0.0,0.0,0.0,0.0,0.0,0.0,0.0,0.0,2.1109,2.1109,2.1109,2.1109,2.1109,2.1109,2.1109,2.1109,2.1109,2.1109,2.1109,0.0,0.0,0.0,0.0,0.0,0.0,0.0,2.1109,0.0,0.0,0.0,0.0,0.0,0.0,0.0,0.0,0.0,0.0,0.0,0.0,0.0,0.0,0.0,0.0,2.1966,2.1966,2.1966,2.2242,0.0,0.0,0.0,2.2928,2.2928,2.2928,2.2928,2.2928,2.2928,2.2928,2.2928,0.0,0.0,0.0,0.0,0.0,0.0,0.0,0.0,0.0,0.0,2.5879,2.6346,2.6386,2.6386,2.6386,2.6386,2.6386,2.6386,2.6386,2.6386,2.6386,2.6386,2.6386,2.6386,2.6386,2.6386,2.6386,2.6386,2.6386,2.6386,2.6386,2.6386,0.0,2.6386,2.6386,2.6386,2.6386,2.6386,2.6386,2.6386,2.6453,2.6573,0.0,0.0,0.0,0.0,0.0,0.0,0.0,0.0,2.1109,2.1109,2.1109,2.1109,2.1109,2.1109,2.1109,2.1109,0.0,0.0,0.0,0.0,0.0,0.0,0.0,0.0,2.1109,2.1109,2.1109,2.1109,2.1109,2.1109,2.1109,2.1109,2.1109,2.1109,2.1109,2.1109,2.1109,2.1109,2.1109,2.1109,2.1109,2.1109,0.0,0.0,0.0,0.0,0.0,0.0,0.0,0.0,0.0,0.0,0.0,0.0,0.0,0.0,0.0,0.0,0.0,0.0,0.0,0.0,0.0,0.0,0.0,0.0,0.0,2.2928,2.2928,2.2928,2.2928,2.2928,2.2941,2.2954,0.0,0.0,0.0,0.0,0.0,0.0,0.0,0.0,0.0,0.0,2.6079,2.6373,2.6386,2.6386,2.6386,2.6386,2.6386,2.6386,2.6386,2.6386,2.6386,2.6386,2.6386,2.6386,2.6386,2.6386,2.6386,2.6386,2.6386,0.0,2.6386,2.6386,2.6386,2.6386,2.6386,2.6386,2.6386,2.6386,2.6386,2.6413,2.6587,2.6827,0.0,0.0,0.0,0.0,0.0,0.0,0.0,0.0,0.0,0.0,2.1109,2.1109,2.1109,2.1109,2.1109,0.0,0.0,0.0,0.0,0.0,0.0,0.0,0.0,0.0,2.1109,2.1109,2.1109,2.1109,2.1109,2.1109,2.1109,2.1109,2.1109,2.1109,2.1109,2.1109,2.1109,2.1109,2.1109,2.1109,2.1109,2.1109,0.0,0.0,0.0,0.0,2.2058,2.2298,0.0,0.0,0.0,0.0,0.0,0.0,0.0,0.0,2.2928,0.0,2.2791,0.0,2.2722,2.2379,2.2585,0.0,0.0,0.0,0.0,0.0,0.0,0.0,0.0,0.0,0.0,0.0,0.0,0.0,0.0,0.0,0.0,0.0,0.0,0.0,0.0,0.0,2.6079,2.6373,2.6386,2.6386,2.6386,2.6386,2.6386,2.6386,2.6386,2.6386,2.6386,2.6386,2.6386,2.6386,2.6386,2.6386,2.6386,2.6386,2.6386,2.6386,2.6386,2.6386,2.6386,2.6386,2.6386,2.6386,2.6386,2.6386,2.6413,2.664,2.676,2.6894,0.0,0.0,0.0,0.0,0.0,0.0,0.0,0.0,0.0,0.0,0.0,0.0,0.0,0.0,0.0,0.0,0.0,0.0,0.0,0.0,0.0,0.0,0.0,2.1109,2.1109,2.1109,2.1109,2.1109,2.1109,2.1109,2.1109,2.1109,2.1109,2.1109,2.1109,2.1109,2.1109,2.1109,2.1109,2.1109,2.1109,0.0,0.0,0.0,0.0,0.0,2.2311,2.2512,0.0,2.2806,2.2928,2.2928,0.0,0.0,0.0,0.0,2.2928,2.2928,2.2928,2.2928,2.2859,2.2654,2.2722,2.2928,0.0,0.0,0.0,0.0,0.0,0.0,0.0,0.0,0.0,0.0,0.0,0.0,0.0,0.0,0.0,0.0,0.0,0.0,0.0,0.0,2.6226,2.6373,2.6386,2.6386,2.6386,2.6386,2.6386,2.6386,2.6386,2.6386,2.6386,2.6386,2.6386,2.6386,2.6386,2.6386,2.6386,2.6386,2.6386,2.6386,2.6386,2.6386,2.6386,2.6386,2.6386,2.6386,2.6386,2.6466,2.66,2.676,2.6987,2.7268,0.0,0.0,0.0,0.0,0.0,0.0,0.0,0.0,0.0,0.0,0.0,0.0,0.0,0.0,0.0,0.0,0.0,0.0,0.0,0.0,0.0,0.0,2.1109,2.1109,2.1109,2.1109,2.1109,2.1109,2.1109,2.1109,2.1109,2.1109,2.1109,2.1109,2.1109,2.1109,2.1109,2.1109,2.1109,2.1109,2.1162,0.0,0.0,0.0,0.0,0.0,0.0,0.0,0.0,2.2928,2.2928,2.2928,2.2928,0.0,0.0,0.0,0.0,0.0,2.2928,2.2928,2.2928,2.2928,2.2928,2.2928,2.2928,0.0,0.0,0.0,0.0,0.0,0.0,2.2899,0.0,0.0,0.0,0.0,0.0,0.0,0.0,0.0,0.0,0.0,2.5571,2.6066,2.6386,2.6386,2.6386,2.6386,2.6386,2.6386,2.6386,2.6386,2.6386,2.6386,2.6386,2.6386,2.6386,2.6386,2.6386,2.6386,2.6386,2.6386,2.6386,2.6386,0.0,0.0,2.6386,2.6386,2.6386,2.6386,2.644,2.66,2.6827,2.6921,2.7268,2.7709,0.0,0.0,0.0,0.0,0.0,0.0,0.0,0.0,0.0,0.0,0.0,0.0,0.0,0.0,0.0,0.0,0.0,0.0,0.0,0.0,0.0,2.1109,2.1109,2.1109,2.1109,2.1109,2.1109,2.1109,2.1109,2.1109,2.1109,2.1109,2.1109,2.1109,2.1109,2.1109,2.1109,2.1109,2.1109,2.1136,2.139,0.0,0.0,0.0,0.0,0.0,0.0,0.0,0.0,2.2928,2.2928,2.2928,2.2928,0.0,0.0,0.0,0.0,0.0,2.2928,2.2928,2.2928,2.2928,2.2928,2.2928,2.2928,0.0,0.0,0.0,0.0,0.0,0.0,2.3073,2.3354,0.0,0.0,0.0,0.0,0.0,0.0,0.0,0.0,0.0,2.5865,2.6199,2.6386,2.6386,2.6386,2.6386,2.6386,2.6386,2.6386,2.6386,2.6386,2.6386,2.6386,2.6386,2.6386,2.6386,2.6386,2.6386,2.6386,2.6386,2.6386,2.6386,0.0,2.6386,2.6386,2.6386,2.6386,2.6413,2.6653,2.6787,2.6881,2.7375,2.7615,2.7736,0.0,0.0,0.0,0.0,0.0,0.0,0.0,0.0,0.0,0.0,0.0,0.0,0.0,0.0,0.0,0.0,0.0,0.0,0.0,0.0,2.1109,2.1109,2.1109,2.1109,2.1109,2.1109,2.1109,2.1109,2.1109,2.1109,2.1109,2.1109,2.1109,2.1109,2.1853,2.2153,2.2167,2.2335,2.2405,2.237,0.0,0.0,0.0,0.0,0.0,0.0,0.0,0.0,0.0,0.0,2.3393,2.387,2.3133,0.0,0.0,0.0,0.0,0.0,2.2928,2.2928,2.2928,2.2928,2.2928,2.2928,0.0,0.0,0.0,0.0,0.0,0.0,0.0,0.0,0.0,0.0,0.0,0.0,0.0,0.0,0.0,0.0,0.0,2.5571,2.5705,2.6119,2.6386,2.6386,2.6386,2.6386,2.6386,2.6386,2.6386,2.6386,2.6386,2.6386,2.6386,2.6386,2.6386,2.6386,2.6386,2.6386,2.6386,2.6386,2.6386,2.6386,0.0,2.6386,2.6386,2.6386,2.6386,2.6413,2.6707,2.6921,2.7134,2.7722,2.7936,2.7963,0.0,0.0,0.0,0.0,0.0,0.0,0.0,0.0,0.0,0.0,0.0,0.0,0.0,0.0,0.0,0.0,0.0,0.0,0.0,0.0,2.1109,2.1109,2.1109,2.1109,2.1109,2.1109,2.1109,2.1109,2.1109,2.1109,2.1109,2.1109,2.1109,2.1172,2.2153,2.2683,2.2769,2.333,2.3603,2.3627,0.0,0.0,0.0,0.0,0.0,0.0,0.0,0.0,0.0,0.0,0.0,0.0,0.0,0.0,0.0,2.2996,2.2928,2.2928,2.2928,2.2928,2.2928,2.2928,0.0,0.0,0.0,0.0,0.0,0.0,0.0,0.0,0.0,0.0,0.0,0.0,0.0,0.0,2.4636,2.4636,2.4636,2.4636,2.5157,2.5518,2.5518,2.6052,2.6386,2.6386,2.6386,2.6386,2.6386,2.6386,2.6386,2.6386,2.6386,2.6386,2.6386,2.6386,2.6386,2.6386,2.6386,2.6386,2.6386,2.6386,2.6386,2.6386,2.6386,2.6386,2.6386,2.6386,2.6426,2.652,2.6814,2.7148,2.7604,2.806,2.8221,2.8221,0.0,0.0,0.0,0.0,0.0,0.0,0.0,0.0,0.0,0.0,0.0,0.0,0.0,0.0,0.0,0.0,0.0,0.0,0.0,0.0,2.1109,2.1109,2.1109,2.1109,2.1109,2.1109,2.1109,2.1109,2.1109,2.1109,2.1109,2.1109,2.1109,2.1109,2.1235,2.1447,2.1781,2.3128,2.3814,2.4172,2.5708,0.0,0.0,0.0,0.0,0.0,0.0,0.0,0.0,0.0,0.0,0.0,0.0,0.0,2.4602,2.327,2.2928,2.2928,2.2928,2.2928,2.2928,2.2928,2.2928,0.0,2.2928,2.2928,0.0,2.2928,0.0,0.0,0.0,0.0,0.0,0.0,0.0,0.0,0.0,0.0,2.4636,2.4636,2.5157,2.5518,2.5518,2.6052,2.6386,2.6386,2.6386,2.6386,2.6386,2.6386,2.6386,2.6386,2.6386,2.6386,2.6386,2.6386,2.6386,2.6386,2.6386,2.6386,2.6386,2.6386,2.6386,2.6386,2.6386,2.6386,2.6386,2.6386,2.6547,2.6814,2.7121,2.7575,2.8167,2.8207,2.8221,2.8221,0.0,0.0,0.0,0.0,0.0,0.0,0.0,0.0,0.0,0.0,0.0,0.0,0.0,0.0,0.0,0.0,0.0,0.0,0.0,2.1109,2.1109,2.1109,2.1109,2.1109,2.1109,2.1109,2.1109,2.1109,2.1109,2.1109,2.1109,2.1964,2.1915,2.1172,2.3044,2.3948,2.4224,2.508,2.552,2.5609,2.5616,2.562,0.0,0.0,0.0,0.0,0.0,0.0,0.0,0.0,2.6203,2.727,2.494,2.5196,2.5853,2.3597,2.3529,2.4006,2.3133,2.2928,2.2928,2.2928,2.2928,0.0,0.0,2.2928,2.2928,2.2928,2.302,0.0,0.0,0.0,0.0,0.0,0.0,0.0,0.0,2.4636,2.4703,2.489,2.5264,2.5585,2.5772,2.6159,2.6386,2.6386,2.6386,2.6386,2.6386,2.6386,2.6386,2.6386,2.6386,2.6386,2.6386,2.6386,2.6386,2.6386,2.6386,2.6386,2.6386,2.6386,2.6386,2.6386,2.6386,2.6386,2.6386,2.6386,2.656,2.6867,2.7348,2.7789,2.8221,2.8221,2.8221,2.8221,0.0,0.0,0.0,0.0,0.0,0.0,0.0,0.0,0.0,0.0,0.0,0.0,0.0,0.0,0.0,0.0,0.0,0.0,2.1109,2.1109,2.1109,2.1109,2.1109,2.1109,2.1109,2.1109,2.1109,2.1109,2.1109,2.1109,2.1109,2.2139,2.2117,2.1383,2.3892,2.5169,2.5436,2.6665,2.7263,2.7393,2.7092,2.6988,0.0,0.0,0.0,0.0,0.0,0.0,0.0,0.0,2.7336,2.8262,2.627,2.6321,2.6655,2.4263,2.4278,2.467,2.327,2.2928,2.2996,2.3461,0.0,0.0,2.3461,2.3201,2.2928,2.2928,2.3193,0.0,0.0,0.0,0.0,0.0,0.0,0.0,0.0,2.4636,2.4716,2.4917,2.5277,2.5598,2.5798,2.6159,2.6386,2.6386,2.6386,2.6386,2.6386,2.6386,2.6386,2.6386,2.6386,2.6386,2.6386,2.6386,2.6386,2.6386,2.6386,2.6386,2.6386,2.6386,2.6386,2.6386,2.6386,2.6386,2.64,2.6493,2.6747,2.7148,2.7642,2.7963,2.8221,2.8221,2.8221,2.8221,0.0,0.0,0.0,0.0,0.0,0.0,0.0,0.0,0.0,0.0,0.0,0.0,0.0,0.0,0.0,0.0,0.0,0.0,2.1109,2.1109,2.1109,2.1109,2.1109,2.1109,2.1109,2.1109,2.1109,2.1109,2.1109,2.1109,2.1122,2.148,2.1679,2.1692,2.3407,2.4298,2.479,2.7603,2.8987,2.9395,3.0843,3.1377,3.1249,0.0,0.0,0.0,0.0,0.0,0.0,0.0,2.8328,2.7105,2.7121,2.7121,2.6855,2.5465,2.5008,2.4738,2.3338,2.2928,2.327,0.0,0.0,0.0,2.467,2.387,2.2928,2.2941,0.0,2.3861,2.4155,0.0,0.0,2.4636,2.4636,2.4636,2.4636,2.4636,2.4636,2.4562,2.5157,2.5518,2.5518,2.6052,2.6386,2.6386,2.6386,2.6386,2.6386,2.6386,2.6386,2.6386,2.6386,2.6386,2.6386,2.6386,2.6386,2.6386,2.6386,2.6386,2.6386,2.6386,2.6386,2.6386,2.6386,2.6386,2.6413,2.6707,2.7175,2.7722,2.8114,2.8221,2.8221,2.8221,2.8221,2.8221,0.0,0.0,0.0,0.0,0.0,0.0,0.0,0.0,0.0,0.0,0.0,0.0,0.0,0.0,0.0,0.0,0.0,0.0,2.1109,2.1109,2.1109,2.1109,2.1109,2.1109,2.1109,2.1309,2.1323,2.1109,2.2027,2.2139,2.1545,2.4449,2.4949,2.3472,2.6117,2.744,2.762,2.8731,2.9227,2.933,2.9722,2.9935,2.987,0.0,0.0,0.0,0.0,0.0,0.0,0.0,0.0,0.0,2.8986,0.0,2.9639,2.7187,2.7203,2.7469,2.5075,2.5128,0.0,2.3924,0.0,0.0,0.0,2.3201,0.0,0.0,2.3808,2.4168,2.4449,0.0,0.0,2.4636,2.4636,2.4636,2.4636,2.4636,2.4716,2.493,2.5277,2.5598,2.5798,2.6172,2.6386,2.6386,2.6386,2.6386,2.6386,2.6386,2.6386,2.6386,2.6386,2.6386,2.6386,2.6386,2.6386,2.6386,2.6386,2.6386,2.6386,2.6386,2.6386,2.6386,2.6386,2.6507,2.6734,2.7228,2.7535,2.7722,2.8114,2.8221,2.8221,2.8221,2.8221,2.8221,0.0,0.0,0.0,0.0,0.0,0.0,0.0,0.0,0.0,0.0,2.1109,0.0,0.0,0.0,0.0,0.0,0.0,0.0,0.0,2.1456,2.1456,2.1456,2.1456,2.1456,2.1456,2.163,2.1643,2.1456,2.2276,2.2373,2.1854,2.4958,2.5656,2.4443,2.7523,2.8939,2.9069,2.983,3.013,3.013,3.013,3.013,3.013,0.0,0.0,0.0,0.0,0.0,0.0,0.0,0.0,0.0,3.026,0.0,3.026,2.846,2.8592,2.8806,2.647,2.6455,0.0,2.4993,2.5196,2.5599,2.4791,0.0,0.0,0.0,0.0,2.4289,2.4583,2.5065,0.0,2.471,2.5139,2.5286,2.471,2.4636,2.4703,2.489,2.5264,2.5815,2.6745,2.6537,2.6702,2.7319,2.6768,2.6386,2.6386,2.6386,2.6386,2.6386,2.6386,2.6386,2.6386,2.6386,2.6386,2.6386,2.6386,2.6386,2.6386,2.6386,2.6386,2.64,2.6507,2.672,2.7041,2.7509,2.7762,2.7896,2.8154,2.8221,2.8221,2.8221,2.8221,2.8221,0.0,0.0,0.0,0.0,0.0,0.0,0.0,0.0,0.0,0.0,2.1136,2.1149,0.0,0.0,0.0,0.0,0.0,0.0,0.0,0.0,2.1991,2.1991,2.1991,2.1991,2.1991,2.2004,2.2083,2.2215,2.2188,2.2188,2.2295,2.413,2.5003,2.518,2.8196,2.9461,2.9609,3.0843,3.1377,3.1377,3.1377,3.1377,3.1377,3.1377,0.0,0.0,0.0,0.0,0.0,0.0,0.0,0.0,3.0991,3.052,2.9461,2.9461,2.9461,2.9199,2.7718,0.0,0.0,2.6972,2.6922,0.0,2.7086,0.0,2.3981,2.5565,0.0,2.4315,2.473,2.5932,2.6444,2.5065,2.6005,2.6371,2.4857,2.4636,2.4636,2.4636,2.5206,2.6302,2.7815,2.7164,2.7213,2.8778,2.7319,2.6386,2.6386,2.6386,2.6386,2.6386,2.6386,2.6386,2.6386,2.6386,2.6386,2.6386,2.6386,2.6386,2.6386,2.6386,2.64,2.644,2.6734,2.7028,2.7321,2.7615,2.7896,2.8221,2.8221,2.8221,2.8221,2.8221,2.8221,2.8221,0.0,0.0,0.0,0.0,0.0,0.0,0.0,0.0,0.0,0.0,0.0,0.0,0.0,0.0,0.0,0.0,0.0,0.0,0.0,0.0,2.1991,2.1991,2.1991,2.1991,2.1991,2.2205,2.2846,2.4041,2.3731,2.3731,2.4107,2.6662,2.7963,2.836,3.0142,3.0926,3.0991,3.1249,3.1377,3.1377,3.1377,3.1377,3.1377,3.1377,3.1377,0.0,0.0,0.0,0.0,0.0,0.0,0.0,3.1313,3.1184,3.0926,3.0926,3.0926,3.0649,0.0,2.8806,0.0,0.0,0.0,0.0,0.0,2.6397,2.548,2.5819,2.5166,2.4924,2.6137,2.6648,2.6794,2.643,2.6648,2.6371,2.4857,2.4636,2.4636,2.4636,2.6047,2.7254,2.7951,2.7875,2.8129,2.8842,2.7319,2.6386,2.6386,2.6386,2.6386,2.6386,2.6386,2.6386,2.6386,2.6386,2.6386,2.6386,2.6386,2.6386,2.6386,2.6386,2.6507,2.6747,2.7041,2.7335,2.7629,2.7923,2.8167,2.8221,2.8221,2.8221,2.8221,2.8221,2.8221,2.8194,0.0,0.0,0.0,0.0,0.0,0.0,0.0,0.0,0.0,0.0,0.0,0.0,0.0,0.0,0.0,0.0,0.0,0.0,0.0,0.0,2.3462,2.3462,2.2794,2.2405,2.2405,2.3213,2.4022,2.4759,2.5246,2.5246,2.4826,2.7671,2.8751,2.8328,3.0455,3.1377,3.1377,3.1377,3.1377,3.1377,3.1377,3.1377,3.1377,3.1377,3.1377,3.1377,3.1377,0.0,0.0,0.0,0.0,0.0,0.0,0.0,3.1377,3.1377,3.1377,3.1249,0.0,0.0,0.0,0.0,0.0,0.0,0.0,0.0,0.0,0.0,0.0,0.0,0.0,2.7996,2.7795,2.7012,2.6867,2.6371,2.4857,2.5212,2.5712,2.5712,2.7364,2.8931,3.0161,2.9758,2.9564,3.0053,2.8544,2.724,2.6465,2.6386,2.6386,2.6386,2.6386,2.6386,2.6386,2.6386,2.6386,2.6386,2.6386,2.6386,2.6386,2.6386,2.6547,2.6841,2.7134,2.7428,2.7722,2.8016,2.8221,2.8221,2.8221,2.8221,2.8221,2.8221,2.8221,2.8181,0.0,0.0,0.0,0.0,0.0,0.0,0.0,0.0,0.0,0.0,0.0,0.0,0.0,0.0,0.0,0.0,0.0,0.0,0.0,0.0,0.0,2.4602,2.3734,2.327,2.327,2.467,2.533,2.533,2.6788,2.6722,2.5398,2.8065,2.8789,2.7982,3.0307,3.1377,3.1377,3.1377,3.1377,3.1377,3.1377,3.1377,3.1377,3.1377,3.1377,3.1377,3.1377,0.0,3.1377,3.1377,0.0,0.0,0.0,0.0,3.1377,3.1377,3.1377,3.1377,0.0,0.0,0.0,0.0,0.0,0.0,0.0,0.0,0.0,0.0,0.0,0.0,0.0,0.0,0.0,2.7578,2.7303,2.6648,2.4857,2.5712,2.6575,2.6867,2.8546,3.0373,3.2428,3.1622,3.1065,3.1188,2.9743,2.8168,2.6465,2.6386,2.6386,2.6386,2.6386,2.6386,2.6386,2.6386,2.6386,2.6386,2.6386,2.6413,2.6466,2.6466,2.6627,2.6907,2.7215,2.7509,2.7789,2.8127,2.8221,2.8221,2.8221,2.8221,2.8221,2.8221,2.8194,2.8114,0.0,0.0,0.0,0.0,0.0,0.0,0.0,0.0,0.0,0.0,0.0,0.0,0.0,0.0,0.0,0.0,0.0,0.0,0.0,0.0,0.0,2.3201,2.4142,2.4738,2.4738,2.6121,2.6855,2.6855,2.8262,2.8262,2.6855,2.8526,2.9852,3.0843,3.1249,3.1377,3.1377,3.1377,3.1377,3.1377,3.1377,3.1377,3.1377,3.1377,3.1377,3.1377,3.1377,3.1377,3.1377,3.1377,3.1377,0.0,0.0,0.0,3.1377,3.1377,3.1377,3.1377,0.0,0.0,0.0,0.0,0.0,0.0,0.0,0.0,0.0,0.0,0.0,0.0,0.0,0.0,0.0,0.0,0.0,0.0,0.0,2.4784,2.5433,2.6721,2.8331,3.0056,3.2018,3.2283,3.1919,3.0839,2.9607,2.8168,2.6465,2.6386,2.6386,2.6386,2.6386,2.6386,2.6386,2.6386,2.6386,2.6386,2.6386,2.652,2.676,2.676,2.6921,2.7228,2.7509,2.7816,2.8167,2.8207,2.8221,2.8221,2.8221,2.8221,2.8221,2.8221,2.7976,2.7722,0.0,0.0,0.0,0.0,0.0,0.0,0.0,0.0,0.0,0.0,0.0,0.0,0.0,0.0,0.0,0.0,0.0,0.0,0.0,0.0,0.0,2.5196,2.5853,2.5801,2.5008,2.7203,2.7916,2.7105,2.9378,3.0113,2.9509,3.0178,3.039,3.026,3.1055,3.1377,3.1377,3.1377,3.1377,3.1377,3.1377,3.1377,3.1377,3.1377,3.1377,3.1377,3.1377,3.1377,3.1377,3.1377,3.1377,3.1377,3.1377,0.0,0.0,0.0,0.0,0.0,3.1377,0.0,0.0,0.0,0.0,0.0,0.0,0.0,0.0,0.0,0.0,0.0,0.0,0.0,0.0,0.0,0.0,0.0,0.0,0.0,0.0,2.929,3.0872,3.2227,3.3269,3.3536,3.3168,3.2185,3.0707,2.9269,2.7841,2.6925,2.6386,2.6386,2.6386,2.6386,2.6386,2.6386,2.6386,2.6386,2.6386,2.6547,2.6827,2.8022,2.8677,2.8891,2.8056,2.8439,2.9551,2.8642,2.8221,2.8221,2.8221,2.8221,2.8207,2.7949,2.7816,2.7629,0.0,0.0,0.0,0.0,0.0,0.0,0.0,0.0,0.0,0.0,0.0,0.0,0.0,0.0,0.0,0.0,0.0,0.0,0.0,0.0,0.0,2.6522,2.6922,2.6588,2.5532,2.7998,2.8723,2.7652,3.0178,3.1249,3.0843,3.1249,3.0843,2.987,3.0908,3.1377,3.1377,3.1377,3.1377,3.1377,3.1377,3.1377,3.1377,3.1377,3.1377,3.1377,3.1377,3.1377,0.0,0.0,0.0,0.0,0.0,0.0,0.0,0.0,0.0,0.0,0.0,0.0,0.0,0.0,0.0,0.0,0.0,0.0,0.0,0.0,0.0,0.0,0.0,0.0,0.0,0.0,0.0,0.0,0.0,0.0,0.0,0.0,3.2508,3.349,3.415,3.4348,3.4001,3.2951,3.1894,3.0751,2.9406,2.8267,2.7462,2.7083,2.7462,2.7462,2.7004,2.7004,2.6768,2.6386,2.6386,2.6812,2.7659,2.9157,3.0609,3.1635,2.9929,3.0058,3.1354,2.9551,2.8894,2.881,2.8389,2.8221,2.8194,2.7802,2.7655,2.7509,0.0,0.0,0.0,0.0,0.0,0.0,0.0,0.0,0.0,0.0,0.0,0.0,2.3065,2.2928,2.2928,2.2928,0.0,0.0,0.0,0.0,0.0,2.5143,2.6388,0.0,2.6972,2.8526,2.9265,2.9199,3.0649,3.0714,2.9461,3.0779,3.1377,3.1313,3.1377,3.1377,3.1377,3.1377,3.1377,3.1377,3.1377,3.1377,3.1377,3.1377,3.1377,3.1377,3.1377,0.0,0.0,0.0,0.0,0.0,0.0,0.0,0.0,0.0,0.0,0.0,0.0,0.0,0.0,0.0,0.0,0.0,0.0,0.0,0.0,0.0,0.0,0.0,0.0,0.0,0.0,0.0,0.0,0.0,0.0,0.0,0.0,0.0,0.0,3.2228,3.3696,3.4183,3.3767,3.2213,3.2662,3.2309,3.0672,3.0896,3.0377,2.8856,3.0238,3.03,2.8778,2.8686,2.7919,2.6386,2.6386,2.7544,2.9727,2.9822,3.2006,3.5638,3.3855,3.3135,3.3151,3.1354,3.0622,3.0455,2.8894,2.8221,2.8194,2.7802,2.7522,2.7241,0.0,0.0,0.0,0.0,0.0,0.0,0.0,0.0,0.0,0.0,0.0,0.0,0.0,2.2928,2.2928,2.2928,2.2928,0.0,0.0,0.0,0.0,2.6321,2.7734,2.8526,2.8526,2.9917,3.0195,2.9265,3.0714,3.112,3.0649,3.1184,3.1377,3.1377,3.1377,3.1377,3.1377,3.1377,3.1377,3.1377,3.1377,3.1377,3.1377,3.1377,0.0,0.0,0.0,0.0,0.0,0.0,0.0,0.0,0.0,0.0,0.0,0.0,0.0,0.0,0.0,0.0,0.0,0.0,0.0,0.0,0.0,0.0,0.0,0.0,0.0,0.0,0.0,0.0,0.0,0.0,0.0,0.0,0.0,0.0,0.0,0.0,0.0,0.0,0.0,3.3945,3.3918,3.3589,3.2835,3.2397,3.2276,3.1431,3.0772,3.0454,3.0993,3.0993,3.0454,2.9386,2.8544,2.8011,2.8303,2.8935,2.9998,3.2427,3.4479,3.5994,3.6494,3.6092,3.4863,3.2015,3.0788,3.0622,2.8894,2.8114,2.7816,2.7535,2.7228,2.6934,0.0,0.0,0.0,0.0,0.0,0.0,0.0,0.0,0.0,2.3665,0.0,0.0,0.0,0.0,2.3065,2.3529,2.406,2.4535,2.4993,2.5935,2.6671,2.7105,2.8065,2.8526,2.8526,2.9323,2.986,3.0,3.0781,3.1249,3.1377,3.1377,3.1377,3.1377,3.1377,3.1377,3.1377,3.1377,0.0,3.1377,0.0,0.0,3.1377,0.0,0.0,0.0,0.0,0.0,0.0,0.0,0.0,0.0,0.0,0.0,0.0,0.0,0.0,0.0,0.0,0.0,0.0,0.0,0.0,0.0,0.0,0.0,0.0,0.0,0.0,0.0,0.0,0.0,0.0,0.0,0.0,0.0,0.0,0.0,0.0,0.0,0.0,0.0,0.0,0.0,0.0,3.4183,3.3304,0.0,3.3541,3.277,3.2534,3.2902,3.2446,3.2141,3.2141,3.1085,3.0238,2.9696,3.0121,3.077,3.1664,3.4388,3.605,3.6912,3.8066,3.7906,3.6654,3.3724,3.2165,3.1505,2.9591,2.8439,2.7655,2.7255,2.6987,2.6774,0.0,0.0,0.0,0.0,0.0,0.0,0.0,0.0,2.6522,2.5143,0.0,0.0,0.0,0.0,0.0,2.4873,2.6254,2.7652,2.9134,2.9265,2.8592,2.7254,0.0,0.0,2.7238,2.6853,2.8223,3.1377,3.0992,3.1011,3.1377,3.1377,3.1377,3.1377,3.1377,3.1377,3.1377,0.0,3.1377,3.1377,0.0,3.1377,3.1377,0.0,0.0,0.0,3.1377,3.1377,0.0,3.1377,0.0,0.0,0.0,0.0,0.0,0.0,0.0,0.0,0.0,0.0,0.0,0.0,0.0,0.0,0.0,0.0,0.0,0.0,0.0,0.0,0.0,0.0,0.0,0.0,0.0,0.0,0.0,0.0,0.0,0.0,0.0,0.0,0.0,0.0,0.0,3.3835,3.4183,3.4403,3.4422,3.5192,3.5797,3.6201,3.4672,3.3844,3.3844,3.3844,3.2994,3.1376,3.1758,3.3047,3.4994,3.545,3.672,3.856,3.856,3.856,3.8481,3.6654,3.4944,3.3201,3.1078,2.9156,2.7615,2.7028,2.6814,2.6774,0.0,0.0,0.0,0.0,0.0,0.0,0.0,0.0,2.4263,0.0,0.0,0.0,2.5853,2.4993,2.4602,2.494,2.533,2.6203,2.7652,2.7718,2.7982,2.8657,2.8657,2.9182,3.0178,3.0072,3.0477,3.1377,3.1267,3.1267,3.1377,3.1377,3.1377,3.1377,3.1377,3.1377,3.1377,3.1377,0.0,3.1377,3.1377,3.1377,0.0,0.0,0.0,0.0,0.0,3.1377,3.1377,0.0,3.1377,3.1377,0.0,0.0,0.0,0.0,0.0,0.0,3.1377,0.0,0.0,0.0,0.0,0.0,0.0,0.0,0.0,0.0,0.0,0.0,0.0,0.0,0.0,0.0,0.0,0.0,0.0,0.0,0.0,0.0,0.0,0.0,0.0,0.0,0.0,0.0,3.4073,3.4238,3.4825,3.5339,3.5797,3.6201,3.5754,3.5512,3.5512,3.4371,3.36,3.3146,3.3802,3.4484,3.5072,3.693,3.8036,3.856,3.856,3.856,3.8402,3.5349,3.3805,3.3038,2.9681,2.7975,2.7335,2.6961,2.6694,2.6493,0.0,0.0,0.0,0.0,0.0,0.0,0.0,0.0,2.5667,0.0,0.0,0.0,2.6972,2.6922,2.6804,2.6804,2.6804,2.7403,2.8772,2.8312,2.8394,2.9265,2.9265,2.9674,3.052,3.0359,3.0617,3.1377,3.1212,3.1212,3.1377,3.1377,3.1377,3.1377,0.0,0.0,0.0,0.0,0.0,0.0,3.1377,0.0,0.0,3.1377,3.1377,0.0,0.0,0.0,3.1616,3.1433,3.1377,0.0,0.0,0.0,0.0,0.0,0.0,0.0,0.0,0.0,0.0,0.0,0.0,0.0,3.2404,3.2588,3.2826,0.0,0.0,0.0,0.0,0.0,0.0,0.0,0.0,0.0,0.0,0.0,0.0,0.0,0.0,0.0,0.0,3.3817,3.3908,3.4147,3.4092,3.4348,3.499,3.5247,3.5559,3.5944,3.6127,3.6201,3.6201,3.5288,3.491,3.5086,3.5704,3.6093,3.633,3.7855,3.856,3.856,3.856,3.856,3.8383,3.5439,3.4228,3.3953,3.0854,2.9101,2.7997,2.6987,2.6996,2.7319,0.0,0.0,0.0,0.0,0.0,0.0,0.0,0.0,0.0,0.0,2.7453,2.7519,2.7387,2.8526,2.9265,2.9265,2.9265,2.9935,3.1313,3.026,2.9526,2.9526,2.9526,2.9526,2.9526,2.9215,2.9795,3.1377,3.1029,3.1029,3.1377,3.1377,3.1377,3.1377,0.0,0.0,0.0,0.0,0.0,3.1506,3.1469,3.1469,0.0,0.0,3.1506,3.1506,3.1506,3.1763,3.2019,3.1634,3.1506,0.0,0.0,0.0,0.0,0.0,3.1414,0.0,0.0,0.0,0.0,0.0,0.0,0.0,3.2496,3.2661,3.2881,3.3651,0.0,0.0,0.0,0.0,0.0,0.0,0.0,0.0,0.0,0.0,0.0,0.0,0.0,0.0,3.3817,3.3817,3.3835,3.3872,3.4202,3.4587,3.5009,3.499,3.5137,3.554,3.5925,3.6146,3.6146,3.6182,3.6421,3.6767,3.7246,3.7631,3.8034,3.8456,3.856,3.856,3.856,3.8542,3.839,3.6474,3.5605,3.5157,3.2999,3.1005,2.9058,2.7351,2.7619,2.87,0.0,0.0,0.0,0.0,0.0,0.0,0.0,0.0,2.6537,2.8592,2.9852,3.0113,2.9003,2.9134,2.9265,2.9265,2.9265,2.9935,3.1313,3.112,3.0991,3.0991,3.0991,3.0991,3.0991,3.09,3.1047,3.1377,3.1304,3.1304,3.1377,3.1377,3.1377,3.1377,0.0,0.0,0.0,0.0,0.0,3.2331,3.2001,0.0,3.2349,3.2349,3.2349,3.2349,3.2349,3.2404,3.2459,3.2386,3.2349,3.2349,0.0,0.0,0.0,0.0,0.0,0.0,0.0,0.0,0.0,0.0,0.0,0.0,3.2991,3.3101,3.323,0.0,0.0,0.0,0.0,0.0,0.0,0.0,0.0,0.0,0.0,0.0,0.0,0.0,0.0,0.0,3.3817,3.3817,3.3945,3.4257,3.4367,3.4587,3.5009,3.4715,3.4715,3.5137,3.5522,3.5724,3.5724,3.6054,3.6421,3.6767,3.7246,3.7631,3.8034,3.8456,3.856,3.856,3.856,3.8456,3.8048,3.7644,3.6648,3.5061,3.1383,2.97,2.9216,2.866,2.8622,2.9012,0.0,0.0,0.0,0.0,0.0,0.0,0.0,0.0,2.846,2.9199,2.9935,3.0325,3.0325,3.0325,3.0325,3.0325,2.9739,2.9935,0.0,3.0714,3.0649,3.1377,3.1377,3.1377,3.1377,3.1377,3.1377,3.1377,3.1377,3.1377,3.1377,3.1598,3.1689,3.1689,0.0,0.0,0.0,0.0,3.2533,3.2863,3.2459,0.0,3.2588,3.2588,3.2588,3.2588,3.2588,3.2588,3.2625,3.2845,3.2771,0.0,0.0,3.2459,3.2294,0.0,3.2148,3.1983,0.0,0.0,0.0,3.2294,0.0,0.0,0.0,3.323,3.334,3.3725,0.0,0.0,0.0,0.0,0.0,0.0,0.0,0.0,0.0,0.0,0.0,0.0,0.0,0.0,3.3817,3.3817,3.4055,3.466,3.4513,3.4587,3.5009,3.4825,3.4715,3.4715,3.5119,3.543,3.5614,3.5815,3.6329,3.7136,3.7338,3.7741,3.8328,3.8548,3.856,3.856,3.842,3.8199,3.7979,3.7594,3.6873,3.5814,3.2982,3.1729,3.1461,3.0438,3.0623,3.13,0.0,0.0,0.0,0.0,0.0,0.0,0.0,0.0,0.0,2.9805,2.9461,2.987,3.1249,3.1184,3.112,0.0,0.0,0.0,0.0,3.0449,3.0336,3.1616,3.1616,3.1616,3.1616,3.1616,3.1616,3.1616,3.1616,3.1616,3.1616,3.1964,3.2129,0.0,0.0,0.0,0.0,0.0,0.0,3.3303,0.0,3.2826,3.2826,3.2826,3.2826,3.2826,3.2826,3.2826,3.2881,3.323,3.312,3.2826,3.2826,3.2771,0.0,0.0,0.0,0.0,0.0,0.0,0.0,0.0,0.0,3.2918,0.0,0.0,0.0,0.0,0.0,0.0,0.0,0.0,0.0,0.0,0.0,0.0,0.0,0.0,0.0,0.0,0.0,0.0,3.3817,3.3817,3.4147,3.4972,3.4642,3.4587,3.5009,3.4954,3.4715,3.4293,3.4697,3.5064,3.5375,3.554,3.6182,3.7319,3.7393,3.7851,3.856,3.856,3.8524,3.8511,3.8163,3.7924,3.7741,3.7099,3.6712,3.6488,3.4935,3.4118,3.36,3.2293,3.2614,3.3676,3.0908,3.1037,0.0,0.0,0.0,0.0,0.0,0.0,0.0,3.1055,3.0065,2.987,3.1249,0.0,0.0,0.0,0.0,0.0,3.1909,0.0,0.0,3.2441,3.2459,3.2459,3.2459,3.2459,3.2459,3.2459,3.2459,3.2459,3.2459,3.2496,3.2533,0.0,3.257,0.0,0.0,0.0,3.3376,0.0,3.3688,3.367,0.0,3.367,3.367,3.367,3.367,3.367,3.3688,0.0,3.3707,3.367,0.0,3.3431,3.3156,0.0,0.0,0.0,0.0,0.0,0.0,0.0,3.3413,0.0,0.0,0.0,3.3762,3.3798,0.0,0.0,0.0,0.0,0.0,0.0,0.0,0.0,0.0,0.0,0.0,0.0,0.0,0.0,0.0,3.3817,3.4147,3.4972,3.4642,3.4587,3.5009,3.4678,3.4293,3.389,3.4275,3.4495,3.4532,3.5265,3.6054,3.6897,3.7264,3.7851,3.856,3.856,3.8438,3.8089,3.8034,3.7613,3.6971,3.6879,3.6622,3.6125,3.4516,3.3878,3.3768,3.36,3.36,3.3995,3.1377,3.1377,0.0,0.0,0.0,0.0,0.0,0.0,0.0,3.1313,3.0926,0.0,0.0,0.0,0.0,0.0,0.0,3.2166,0.0,0.0,0.0,0.0,3.2588,3.2588,3.2588,3.2588,3.2588,3.2588,3.2588,3.2588,3.2606,3.2845,0.0,0.0,3.3193,0.0,3.356,0.0,3.367,0.0,0.0,0.0,0.0,3.3817,3.3817,3.3817,3.3817,3.3817,3.3817,0.0,3.3817,0.0,0.0,0.0,0.0,0.0,0.0,0.0,0.0,0.0,0.0,0.0,0.0,0.0,3.3817,0.0,3.3817,0.0,0.0,0.0,0.0,0.0,0.0,0.0,0.0,0.0,0.0,0.0,0.0,0.0,0.0,0.0,0.0,0.0,0.0,3.4972,3.4862,3.4935,3.5357,3.499,3.4568,3.4165,3.4092,3.4165,3.4403,3.4733,3.543,3.6476,3.6641,3.7154,3.7943,3.7943,3.7833,3.7668,3.7429,3.7136,3.6824,3.6567,3.6366,3.6126,3.5438,3.5214,3.5214,3.5214,3.5214,3.5288,3.1377,0.0,0.0,0.0,0.0,0.0,3.1377,3.1377,3.1377,3.1377,3.1146,0.0,3.1899,3.1763,0.0,0.0,3.2588,3.2643,0.0,0.0,3.2808,0.0,0.0,0.0,0.0,3.2936,3.2936,3.2936,3.2936,3.2936,3.2936,3.3248,0.0,0.0,0.0,3.3817,3.3817,0.0,3.3817,3.3817,3.3817,3.3817,3.3817,3.3817,3.3817,3.3817,3.3817,3.3817,3.3817,3.3817,3.3817,0.0,3.3817,0.0,0.0,0.0,0.0,0.0,3.3817,0.0,0.0,0.0,0.0,0.0,0.0,0.0,0.0,0.0,0.0,0.0,0.0,0.0,0.0,0.0,0.0,0.0,0.0,0.0,0.0,0.0,0.0,0.0,0.0,0.0,0.0,3.4972,3.5027,3.521,3.5595,3.5247,3.4844,3.4422,3.4018,3.3945,3.4238,3.4348,3.4954,3.6054,3.6164,3.6641,3.7429,3.7429,3.7374,3.7246,3.6952,3.6769,3.6641,3.6329,3.6201,3.6201,3.6201,3.6201,3.6201,3.6201,3.6201,3.6201,3.1377,3.1377,0.0,0.0,0.0,0.0,3.1377,3.1377,3.1377,3.1377,3.0579,0.0,0.0,0.0,0.0,0.0,0.0,3.2771,3.3175,0.0,3.3376,0.0,0.0,3.378,0.0,0.0,0.0,3.378,3.378,3.378,3.378,0.0,0.0,0.0,3.3798,3.3817,3.3817,3.3817,3.3817,3.3817,3.3817,3.3817,3.3817,0.0,3.3817,3.3817,3.3817,0.0,0.0,3.3817,3.3817,0.0,0.0,0.0,0.0,0.0,0.0,0.0,0.0,0.0,0.0,3.3817,0.0,0.0,0.0,0.0,3.3817,0.0,0.0,0.0,0.0,0.0,0.0,0.0,0.0,0.0,0.0,0.0,0.0,0.0,0.0,0.0,0.0,0.0,3.4147,3.4972,3.5027,3.521,3.5595,3.5247,3.4844,3.4422,3.4018,3.3817,3.3835,3.4202,3.4825,3.5632,3.6017,3.6641,3.7429,3.7429,3.7209,3.6861,3.6842,3.6604,3.6237,3.6219,3.6201,3.6201,3.6201,3.6201,3.6201,3.6201,3.6201,3.6201,0.0,0.0,0.0,0.0,0.0,3.1377,3.1377,3.1616,3.1799,0.0,3.1733,0.0,0.0,3.2512,3.2557,0.0,0.0,3.3468,3.3596,3.3615,0.0,0.0,0.0,3.3817,0.0,0.0,0.0,0.0,0.0,0.0,0.0,0.0,0.0,0.0,0.0,3.3817,0.0,0.0,0.0,0.0,0.0,3.3817,3.3817,0.0,3.3817,3.3817,3.3817,3.3817,0.0,3.3817,3.3817,3.3817,3.3817,3.3817,3.3817,3.3817,3.3817,0.0,0.0,0.0,3.3817,3.3817,0.0,0.0,0.0,0.0,0.0,0.0,0.0,0.0,0.0,0.0,0.0,0.0,0.0,0.0,0.0,0.0,0.0,0.0,0.0,0.0,0.0,0.0,0.0,3.4972,3.5027,3.532,3.5981,3.5394,3.4972,3.4825,3.4165,3.3817,3.3817,3.4202,3.4678,3.5229,3.5632,3.6091,3.6622,3.6622,3.6549,3.6421,3.6421,3.6347,3.6201,3.6201,3.6201,3.6201,3.6201,3.6201,3.6201,3.6201,3.6201,3.6201,3.1377,0.0,0.0,0.0,0.0,3.1433,3.1579,3.1836,3.2056,0.0,3.257,0.0,3.3193,0.0,3.3541,0.0,3.3817,3.3817,3.3817,3.3817,0.0,3.3817,3.3817,0.0,0.0,0.0,0.0,0.0,0.0,3.3817,0.0,0.0,0.0,0.0,0.0,3.3817,3.3817,0.0,3.3817,0.0,0.0,3.3817,0.0,0.0,3.3817,3.3817,0.0,3.3817,3.3817,3.3817,3.3817,3.3817,3.3817,3.3817,3.3817,3.3817,3.3817,3.3817,3.3817,3.3817,0.0,3.3817,3.3817,0.0,3.3817,0.0,0.0,0.0,0.0,0.0,0.0,0.0,0.0,0.0,0.0,0.0,0.0,0.0,0.0,0.0,0.0,0.0,0.0,0.0,3.4147,3.4972,3.5027,3.5375,0.0,3.5595,3.5174,3.5027,3.4367,3.3963,3.3817,3.4202,3.4605,3.5027,3.543,3.5834,3.6201,3.6201,3.6201,3.6201,3.6201,3.6201,3.6201,3.6201,3.6201,3.6201,3.6201,3.6201,3.6201,3.6201,3.6201,3.6201,3.1377,0.0,0.0,0.0,3.1414,0.0,0.0,0.0,3.2203,0.0,3.2991,3.3248,3.3248,3.3596,3.3817,3.3817,3.3817,3.3817,3.3817,3.3817,0.0,0.0,3.3817,3.3817,3.3817,0.0,0.0,0.0,0.0,0.0,0.0,0.0,0.0,0.0,3.3817,0.0,3.3817,3.3817,3.3817,3.3817,3.3817,3.3817,3.3835,3.3835,3.3853,3.3872,3.3853,3.3853,3.3872,3.3872,3.3872,3.3872,3.3872,3.3872,3.3872,3.3872,3.3872,3.3872,3.3872,3.3872,3.3872,3.3872,3.3853,0.0,0.0,0.0,3.3817,0.0,0.0,0.0,0.0,0.0,0.0,0.0,0.0,0.0,0.0,0.0,0.0,0.0,0.0,0.0,0.0,3.3835,3.4183,3.4972,3.5045,0.0,0.0,0.0,3.543,3.5045,3.4623,3.422,3.3817,3.422,3.4623,3.5045,3.5449,3.5852,3.6201,3.6201,3.6201,3.6201,3.6201,3.6201,3.6201,3.6201,3.6201,3.6201,3.6201,3.6201,3.6201,3.6201,3.6201,3.6201,3.1377,3.1634,3.1854,0.0,3.1854,3.1873,0.0,0.0,0.0,0.0,3.3413,3.367,3.367,3.3762,3.3817,3.3817,3.3817,0.0,0.0,0.0,0.0,3.3817,3.3817,3.3817,3.3817,3.3817,0.0,3.3817,0.0,0.0,3.3817,0.0,0.0,0.0,0.0,0.0,3.3817,3.3817,3.3817,3.3817,3.3817,3.3982,3.4257,0.0,3.444,3.4678,3.4367,3.4458,3.4715,3.4715,3.4715,3.4715,3.4715,3.4715,3.4715,3.4715,3.4715,3.4715,3.4715,3.4715,3.4715,3.4715,3.4477,3.4257,0.0,0.0,0.0,0.0,0.0,0.0,0.0,0.0,0.0,0.0,0.0,0.0,0.0,0.0,0.0,0.0,0.0,0.0,0.0,3.4073,3.4477,3.499,3.5302,0.0,0.0,0.0,0.0,3.5045,3.4623,3.422,3.3817,3.4513,3.4917,3.5045,3.5724,3.6109,3.6201,3.6201,3.6201,3.6201,3.6201,3.6201,3.6201,3.6201,3.6201,3.6201,3.6201,3.6201,3.6201,3.6201,3.6201,3.6201,3.1653,3.1983,0.0,3.2258,0.0,0.0,3.2533,3.2936,0.0,3.3468,3.367,0.0,3.3817,3.3817,3.3817,3.3817,3.3817,0.0,3.3817,0.0,0.0,3.3817,3.3817,3.3817,3.3817,3.3817,0.0,3.3817,0.0,0.0,3.3817,0.0,0.0,0.0,0.0,3.3817,0.0,3.3817,3.3908,3.4073,3.4073,3.4312,0.0,3.4678,3.4935,3.5247,3.5027,3.4972,3.5027,3.5027,3.5027,3.5027,3.5027,3.5027,3.5027,3.5027,3.5027,3.5027,3.5027,3.5027,3.5027,3.5027,3.4844,3.4678,3.4678,3.4495,3.4348,0.0,3.4348,3.4348,0.0,0.0,0.0,0.0,0.0,0.0,0.0,0.0,0.0,0.0,0.0,0.0,0.0,0.0,3.4568,3.499,0.0,0.0,0.0,0.0,0.0,3.5045,3.4623,3.422,3.3817,3.4623,3.5027,3.5045,3.5834,3.6201,3.6201,3.6201,3.6201,3.6201,3.6201,3.6201,3.6201,3.6201,3.6201,3.6201,3.6201,3.6201,3.6201,3.6201,3.6201,3.6201,3.2074,0.0,0.0,0.0,0.0,0.0,0.0,3.3303,0.0,3.3762,0.0,3.3817,3.3817,3.3817,3.3817,3.3817,0.0,3.3817,3.3817,3.3817,3.3817,3.3817,3.3817,3.3817,3.3817,3.3817,3.3817,0.0,0.0,0.0,0.0,0.0,0.0,0.0,0.0,0.0,0.0,3.389,3.411,3.4477,3.4477,3.4733,3.51,3.51,3.5357,3.5687,3.5687,3.5467,3.5192,3.5192,3.5192,3.5192,3.5192,3.5192,3.5192,3.5192,3.5192,3.5192,3.5192,3.5192,3.5192,3.5192,3.5155,3.51,3.51,3.5064,3.5027,3.5027,3.5027,3.5027,0.0,0.0,0.0,0.0,0.0,0.0,0.0,0.0,0.0,0.0,0.0,0.0,0.0,0.0,0.0,0.0,0.0,0.0,0.0,0.0,0.0,3.5045,3.4623,3.422,3.3817,3.4623,3.5027,3.5045,3.5834,3.6201,3.6201,3.6201,3.6201,3.6201,3.6201,3.6201,3.6201,3.6201,3.6201,3.6201,3.6201,3.6201,3.6201,3.6201,3.6201,3.6201,3.2496,0.0,0.0,0.0,0.0,3.3707,3.3707,3.3707,3.3725,3.3798,3.3817,3.3817,3.3817,3.3817,3.3817,3.3817,3.3817,0.0,0.0,0.0,0.0,3.3817,3.3817,3.3817,3.3817,3.3817,3.3817,0.0,0.0,0.0,0.0,0.0,0.0,0.0,0.0,0.0,3.4293,3.4293,0.0,3.4917,3.4917,3.5155,3.5522,3.5522,3.576,3.6109,3.6109,3.6054,3.5999,3.5999,3.5999,3.5999,3.5999,3.5999,3.5999,3.5999,3.5999,3.5999,3.5999,3.5999,3.5999,3.5999,3.576,3.5522,3.5522,3.5265,3.5027,3.5027,3.5027,3.5027,3.5027,0.0,0.0,0.0,0.0,0.0,0.0,0.0,0.0,0.0,0.0,0.0,0.0,0.0,0.0,0.0,0.0,0.0,0.0,0.0,0.0,0.0,3.4623,0.0,0.0,0.0,3.5027,3.5045,3.5834,3.6201,3.6201,3.6201,3.6201,3.6201,3.6201,3.6201,3.6201,3.6201,3.6201,3.6201,3.6201,3.6201,3.6201,3.6201,3.6201,3.6201,3.3193,0.0,0.0,0.0,0.0,0.0,0.0,3.2596,3.2876,3.3678,3.3817,3.389,3.4092,3.411,3.4202,3.4422,3.444,3.444,3.444,3.444,3.444,3.444,3.444,0.0,3.4128,3.411,3.4018,3.3817,0.0,0.0,0.0,0.0,0.0,0.0,0.0,3.455,0.0,0.0,0.0,3.5339,3.5339,3.5577,3.5925,3.5925,3.6036,3.6201,3.6201,3.6201,3.6201,3.6201,3.6201,3.6201,3.6201,3.6201,3.6201,3.6201,3.6201,3.6201,3.6201,3.6201,3.6201,3.6201,3.6054,3.5925,3.5925,3.5779,3.5632,3.5632,3.5632,3.5577,3.5375,3.5339,0.0,0.0,0.0,0.0,0.0,0.0,0.0,0.0,0.0,0.0,0.0,0.0,0.0,0.0,0.0,0.0,0.0,0.0,0.0,0.0,0.0,0.0,3.411,0.0,3.5137,3.5339,3.5925,3.6201,3.6201,3.6201,3.6201,3.6201,3.6201,3.6201,3.6201,3.6201,3.6201,3.6201,3.6201,3.6201,3.6201,3.6201,3.6201,3.6201,0.0,3.3312,0.0,0.0,3.1296,3.1525,3.1611,3.191,3.2562,3.3787,3.3945,3.4092,3.4495,3.4532,3.4678,3.499,3.5027,3.5027,3.5027,3.5027,3.5027,3.5027,3.5027,3.488,3.455,3.4532,3.4385,0.0,0.0,0.0,0.0,0.0,0.0,0.0,0.0,0.0,0.0,0.0,3.5375,3.5742,3.5742,3.5925,3.6201,3.6201,3.6201,3.6201,3.6201,3.6201,3.6201,3.6201,3.6201,3.6201,3.6201,3.6201,3.6201,3.6201,3.6201,3.6201,3.6201,3.6201,3.6201,3.6201,3.6201,3.6201,3.6201,3.6201,3.6201,3.6201,3.6201,3.6109,3.5797,3.5742,0.0,0.0,0.0,0.0,0.0,0.0,0.0,0.0,0.0,0.0,0.0,0.0,0.0,0.0,0.0,0.0,0.0,0.0,0.0,0.0,0.0,3.4,3.4403,0.0,3.5229,3.5632,3.6017,3.6201,3.6201,3.6201,3.6201,3.6201,3.6201,3.6201,3.6201,3.6201,3.6201,3.6201,3.6201,3.6201,3.6201,3.6201,3.6201,3.6201,0.0,0.0,0.0,0.0,0.0,3.1628,3.2025,3.3251,3.4207,3.4348,3.4348,3.4513,3.4917,3.4972,3.499,3.5027,3.5027,3.5027,3.5027,3.5027,3.5027,3.5027,3.5027,3.5009,3.4972,3.4972,3.4954,0.0,0.0,3.4532,0.0,0.0,0.0,0.0,0.0,0.0,0.0,3.5559,3.5797,3.6146,3.6146,3.6182,3.6201,3.6201,3.6201,3.6201,3.6201,3.6201,3.6201,3.6201,3.6201,3.6201,3.6201,3.6201,3.6201,3.6201,3.6201,3.6201,3.6201,3.6201,3.6201,3.6201,3.6201,3.6201,3.6201,3.6201,3.6201,3.6201,3.6201,3.6201,3.6164,3.6146,3.6017,0.0,0.0,0.0,0.0,0.0,0.0,0.0,0.0,0.0,0.0,3.5595,0.0,0.0,0.0,0.0,0.0,0.0,0.0,3.4477,3.4037,3.4,3.4403,3.4825,3.5229,3.5632,3.6017,3.6201,3.6201,3.6201,3.6201,3.6201,3.6201,3.6201,3.6201,3.6201,3.6201,3.6201,3.6201,3.6201,3.6201,3.6201,3.6201,3.6201,0.0,0.0,0.0,0.0,0.0,0.0,0.0,3.2994,3.3821,3.4956,3.4935,3.4935,3.5339,3.5375,3.5485,3.5724,3.5742,3.5742,3.5742,3.5742,3.5742,3.5742,3.5742,3.5632,3.5394,3.5375,3.5265,0.0,0.0,0.0,0.0,0.0,0.0,0.0,0.0,3.5815,3.5981,3.5981,3.6054,3.6201,3.6201,3.6201,3.6201,3.6201,3.6201,3.6201,3.6201,3.6201,3.6201,3.6201,3.6201,3.6201,3.6201,3.6201,3.6201,3.6201,3.6201,3.6201,3.6201,3.6201,3.6201,3.6201,3.6201,3.6201,3.6201,3.6201,3.6201,3.6201,3.6201,3.6127,3.5889,3.6054,3.6072,3.5687,0.0,0.0,0.0,0.0,0.0,0.0,0.0,0.0,0.0,0.0,0.0,0.0,0.0,0.0,0.0,0.0,0.0,3.4403,0.0,3.4367,3.477,3.5174,3.5577,3.5981,3.6127,3.6201,3.6201,3.6201,3.6201,3.6201,3.6201,3.6201,3.6201,3.6201,3.6201,3.6201,3.6201,3.6201,3.6201,3.6201,3.6201,3.6201,3.0081,0.0,3.1052,0.0,3.077,3.2013,3.2114,3.2589,3.3534,3.5522,3.5559,3.5485,3.576,3.5797,3.5907,3.6182,3.6201,3.6201,3.6201,3.6201,3.6201,3.6201,3.6201,0.0,3.5797,3.5797,3.565,3.5375,3.5375,0.0,0.0,0.0,0.0,0.0,3.6091,3.6201,3.6201,3.6201,3.6201,3.6201,3.6201,3.6201,3.6201,3.6201,3.6201,3.6201,3.6201,3.6201,3.6201,3.6201,3.6201,3.6201,3.6201,3.6201,3.6201,3.6201,3.6201,3.6201,3.6201,3.6201,3.6201,3.6201,3.6201,3.6201,3.6201,3.6201,3.6201,3.6201,3.6201,3.6127,3.5852,3.6017,3.6072,3.5687,0.0,0.0,0.0,0.0,0.0,0.0,3.5027,3.5027,3.5027,3.5284,0.0,0.0,0.0,0.0,0.0,0.0,0.0,0.0,0.0,0.0,3.5192,3.5485,3.5815,3.6201,3.6201,3.6201,3.6201,3.6201,3.6201,3.6201,3.6201,3.6201,3.6201,3.6201,3.6201,3.6201,3.6201,3.6201,3.6201,3.6201,3.6201,3.6201,3.2261,3.1375,2.9821,2.8267,2.9315,3.0468,3.0878,3.2218,3.3935,3.5923,3.6201,3.6201,3.6201,3.6201,3.6201,3.6201,3.6201,3.6201,3.6201,3.6201,3.6201,0.0,0.0,3.6201,3.6201,3.6201,3.6201,3.6201,0.0,0.0,3.5027,0.0,3.5449,3.6201,3.6201,3.6201,3.6201,3.6201,3.6201,3.6201,3.6201,3.6201,3.6201,3.6201,3.6201,3.6201,3.6201,3.6201,3.6201,3.6201,3.6201,3.6201,3.6201,3.6201,3.6201,3.6201,3.6201,3.6201,3.6201,3.6201,3.6201,3.6201,3.6201,3.6201,3.6201,3.6201,3.6201,3.6201,3.6201,3.6201,3.6201,3.6201,3.6072,3.5687,0.0,0.0,0.0,0.0,0.0,0.0,3.5027,3.5027,3.5027,3.5027,0.0,0.0,0.0,0.0,0.0,0.0,0.0,3.4403,3.4403,0.0,3.5595,3.5614,3.5815,3.6201,3.6201,3.6201,3.6201,3.6201,3.6201,3.6201,3.6201,3.6201,3.6201,3.6201,3.6201,3.6201,3.6201,3.6201,3.6201,3.6201,3.6201,3.6201,2.765,2.8445,2.8821,2.8365,3.0747,3.2768,3.2869,3.4197,3.5461,3.6108,3.6201,3.6201,3.6201,3.6201,3.6201,0.0,3.6201,3.6201,0.0,3.6201,3.6201,3.6201,3.6201,3.6201,3.6201,3.6201,3.6201,3.6201,0.0,0.0,0.0,3.5834,3.5962,3.6201,3.6201,3.6201,3.6201,3.6201,3.6201,3.6201,3.6201,3.6201,3.6201,3.6201,3.6201,3.6201,3.6201,3.6201,3.6201,3.6201,3.6201,3.6201,3.6201,3.6201,3.6201,3.6201,3.6201,3.6201,3.6201,3.6201,3.6201,3.6201,3.6201,3.6201,3.6201,3.6201,3.6201,3.6201,3.6201,3.6201,3.6201,3.6201,3.6164,3.6036,3.5907,0.0,0.0,0.0,0.0,0.0,3.4605,3.4495,3.422,3.444,0.0,0.0,0.0,0.0,0.0,0.0,0.0,0.0,3.4678,0.0,3.5614,3.5889,3.6091,3.6201,3.6201,3.6201,3.6201,3.6201,3.6201,3.6201,3.6201,3.6201,3.6201,3.6201,3.6201,3.6201,3.6201,3.6201,3.6201,3.6201,3.6201,3.6201,2.7401,2.8187,2.878,2.938,3.1385,3.307,3.3676,3.4672,3.5512,3.6126,3.6201,3.6201,3.6201,3.6201,0.0,3.6201,3.6201,3.6201,3.6201,3.6201,3.6201,3.6201,3.6201,3.6201,3.6201,3.6201,0.0,3.6201,3.6201,3.6201,3.6201,3.6201,3.6201,3.6201,3.6201,3.6201,3.6201,3.6201,3.6201,3.6201,3.6201,3.6201,3.6201,3.6201,3.6201,3.6201,3.6201,3.6201,3.6201,3.6201,3.6201,3.6201,3.6201,3.6201,3.6201,3.6201,3.6201,3.6201,3.6201,3.6201,3.6201,3.6201,3.6201,3.6201,3.6201,3.6201,3.6201,3.6201,3.6201,3.6201,3.6201,3.6201,3.6201,3.6201,3.5999,3.5797,3.5632,0.0,0.0,0.0,0.0,0.0,0.0,3.4128,3.4073,0.0,0.0,0.0,0.0,0.0,0.0,3.4844,3.5119,3.5449,3.5834,3.6091,3.6201,3.6201,3.6201,3.6201,3.6201,3.6201,3.6201,3.6201,3.6201,3.6201,3.6201,3.6201,3.6201,3.6201,3.6201,3.6201,3.6201,3.6201,3.6201,3.6201,3.0315,2.9851,2.9386,3.0839,3.13,3.1988,3.3524,3.3919,3.4521,3.5978,3.6201,3.6201,3.6201,3.6201,3.6201,3.6201,0.0,0.0,3.6201,3.6201,3.6201,3.6201,3.6201,3.6201,3.6201,3.6201,3.6201,3.6201,3.6201,3.6201,3.6201,3.6201,3.6201,3.6201,3.6201,3.6201,3.6201,3.6201,3.6201,3.6201,3.6201,3.6201,3.6201,3.6201,3.6201,3.6201,3.6201,3.6201,3.6201,3.6201,3.6201,3.6201,3.6201,3.6201,3.6201,3.6201,3.6201,3.6201,3.6201,3.6201,3.6219,3.6237,3.6274,3.6292,3.6292,3.6292,3.6292,3.6292,3.6292,3.6292,3.6292,3.6292,3.6292,3.6292,3.6292,3.6164,3.5797,0.0,0.0,0.0,0.0,0.0,3.4532,3.4165,3.3945,0.0,0.0,0.0,0.0,0.0,3.4844,3.5595,3.5614,3.5797,3.6201,3.6201,3.6201,3.6201,3.6201,3.6201,3.6201,3.6201,3.6201,3.6201,3.6201,3.6201,3.6201,3.6201,3.6201,3.6201,3.6201,3.6201,3.6201,3.6201,3.6201,3.6201,0.0,0.0,2.9012,2.9386,3.1529,3.3373,3.3768,3.4822,3.5754,3.6126,3.6201,3.6201,3.6201,3.6201,3.6201,3.6201,3.6201,3.6201,3.6201,3.6201,3.6201,3.6201,3.6201,3.6201,3.6201,3.6201,3.6201,3.6201,3.6201,3.6201,3.6201,3.6201,3.6201,3.6201,3.6201,3.6201,3.6201,3.6201,3.6201,3.6201,3.6201,3.6201,3.6201,3.6201,3.6201,3.6201,3.6201,3.6201,3.6201,3.6201,3.6201,3.6201,3.6201,3.6201,3.6201,3.6201,3.6201,3.6201,3.6201,3.6201,3.6292,3.6604,3.6916,3.7136,3.7136,3.7136,3.7136,3.7136,3.7136,3.7136,3.7136,3.7136,3.7136,3.7136,3.7136,3.7099,3.7007,3.7007,3.6842,0.0,3.6329,3.6127,3.5815,3.543,3.5192,0.0,0.0,0.0,3.532,3.5339,3.5412,3.5614,3.5614,3.5797,3.6201,3.6201,3.6201,3.6201,3.6201,3.6201,3.6201,3.6201,3.6201,3.6201,3.6201,3.6201,3.6201,3.6201,3.6201,3.6201,3.6201,3.6201,3.6201,3.6201,3.6201,3.6201,2.6386,2.7776,2.9168,2.9851,3.2081,3.407,3.4747,3.568,3.6201,3.6201,3.6201,3.6201,3.6201,3.6201,3.6201,3.6201,3.6201,3.6201,3.6201,3.6201,3.6201,3.6201,3.6201,3.6201,3.6201,3.6201,3.6201,3.6201,3.6201,3.6201,3.6201,3.6201,3.6201,3.6201,3.6201,3.6201,3.6201,3.6201,3.6201,3.6201,3.6201,3.6201,3.6201,3.6201,3.6201,3.6201,3.6201,3.6201,3.6201,3.6201,3.6201,3.6237,3.6439,3.6494,3.6531,3.6714,3.6641,3.6531,3.6714,3.6769,3.6824,3.7044,3.7264,3.7429,3.7429,3.7429,3.7429,3.7429,3.7429,3.7429,3.7429,3.7429,3.7429,3.7429,3.7429,3.7429,3.7429,3.7429,3.7338,3.7136,3.6877,3.6751,3.6512,3.6127,3.5815,3.5632,3.5595,0.0,3.5614,3.5797,3.5889,3.5889,3.5889,3.5999,3.6201,3.6201,3.6201,3.6201,3.6201,3.6201,3.6201,3.6201,3.6201,3.6201,3.6201,3.6201,3.6201,3.6201,3.6201,3.6201,3.6201,3.6201,3.6201,3.6201,3.6201,3.6201,2.6768,2.831,3.0083,3.1453,3.2842,3.4296,3.5587,3.5829,3.5829,3.5829,3.6052,3.6201,3.6201,3.6201,3.6201,3.6201,3.6201,3.6201,3.6201,3.6201,3.6201,3.6201,3.6201,3.6201,3.6201,3.6201,3.6201,3.6201,3.6201,3.6201,3.6201,3.6201,3.6201,3.6201,3.6201,3.6201,3.6201,3.6201,3.6201,3.6201,3.6201,3.6201,3.6201,3.6201,3.6201,3.6201,3.6201,3.6201,3.6219,3.6274,3.6311,3.6384,3.6787,3.6934,3.7007,3.7393,3.7283,3.7081,3.7356,3.7466,3.7521,3.7521,3.7558,3.7613,3.7613,3.7613,3.7613,3.7613,3.7613,3.7613,3.7613,3.7613,3.7613,3.7613,3.7613,3.7613,3.7613,0.0,3.7613,3.7613,3.7319,3.7099,3.7099,3.6732,3.6347,3.5999,3.6182,3.6164,3.5815,3.6054,3.6201,3.6201,3.6201,3.6201,3.6201,3.6201,3.6201,3.6201,3.6201,3.6201,3.6201,3.6201,3.6201,3.6201,3.6201,3.6201,3.6201,3.6201,3.6201,3.6201,3.6201,3.6201,3.6201,3.6201,3.6201,3.6201,2.8544,3.0931,3.3146,3.3373,3.36,3.3919,3.4145,3.4145,3.4145,3.4145,3.5363,3.6201,3.6201,3.6201,3.6201,3.6201,3.6201,3.6201,3.6201,3.6201,3.6201,3.6201,3.6201,3.6201,3.6201,3.6201,3.6201,3.6201,3.6201,3.6201,3.6201,3.6201,3.6201,3.6201,3.6201,3.6201,3.6201,3.6201,3.6201,3.6201,3.6201,3.6201,3.6201,3.6201,3.6201,3.6201,3.6201,3.6201,3.6256,3.6622,3.6732,3.6806,3.7209,3.7338,3.7411,3.7814,3.7888,3.7778,3.7503,3.7668,3.7924,3.7924,3.8181,3.8377,3.8377,3.8377,3.8377,3.8377,3.8377,3.8377,3.8377,3.8377,3.8377,3.8377,3.8377,3.8377,3.8377,0.0,3.8377,3.8377,3.8322,3.8286,3.8286,3.7979,3.7704,3.7649,3.7081,3.6714,3.6659,3.6366,3.6201,3.6201,3.6201,3.6201,3.6201,3.6201,3.6201,3.6201,3.6201,3.6201,3.6201,3.6201,3.6201,3.6201,3.6201,3.6201,3.6201,3.6201,3.6201,3.6201,3.6201,3.6201,3.6201,3.6201,3.6201,3.6201,2.8934,3.1545,3.3524,3.2598,3.3222,3.3844,3.3844,3.3844,3.4145,3.4989,3.5754,3.6201,3.6201,3.6201,3.6201,3.6201,3.6201,3.6201,3.6201,3.6201,3.6201,3.6201,3.6201,3.6201,3.6201,3.6201,3.6201,3.6201,3.6201,3.6201,3.6201,3.6201,3.6201,3.6201,3.6201,3.6201,3.6201,3.6201,3.6201,3.6201,3.6201,3.6201,3.6201,3.6201,3.6201,3.6237,3.6457,3.6549,3.6604,3.7007,3.7154,3.7228,3.7613,3.7741,3.7814,3.8236,3.8346,3.831,3.8126,3.8218,3.8346,3.8346,3.8414,3.856,3.856,3.856,3.856,3.856,3.856,3.856,3.856,3.856,3.856,3.856,3.856,0.0,3.856,3.856,3.856,3.856,3.856,3.856,3.856,3.8456,3.8163,3.7723,3.7356,3.6952,3.6531,3.6311,3.6201,3.6201,3.6201,3.6201,3.6201,3.6201,3.6201,3.6201,3.6201,3.6201,3.6201,3.6201,3.6201,3.6201,3.6201,3.6201,3.6201,3.6201,3.6201,3.6201,3.6201,3.6201,3.6201,3.6201,3.6201,3.6201,2.8934,3.1223,3.2842,3.1529,3.2369,3.3222,3.3222,3.3524,3.4221,3.5438,3.5978,3.6201,3.6201,3.6201,3.6201,3.6201,3.6201,3.6201,3.6201,3.6201,3.6201,3.6201,3.6201,3.6201,3.6201,3.6201,3.6201,3.6201,3.6201,3.6201,3.6201,3.6201,3.6201,3.6201,3.6201,3.6201,3.6201,3.6201,3.6201,3.6201,3.6201,3.6201,3.6201,3.6201,3.6201,3.6256,3.6677,3.6842,3.6916,3.7393,3.7558,3.7631,3.8034,3.8163,3.8218,3.8548,3.856,3.856,3.856,3.856,3.856,3.856,3.856,3.856,3.856,3.856,3.856,3.856,3.856,3.856,3.856,3.856,3.856,3.856,0.0,3.856,3.856,3.856,3.856,3.856,3.856,3.8524,3.8511,3.8493,3.8199,3.7484,3.7338,3.7007,3.6384,3.6256,3.6201,3.6201,3.6201,3.6201,3.6201,3.6201,3.6201,3.6201,3.6201,3.6201,3.6201,3.6201,3.6201,3.6201,3.6201,3.6201,3.6201,3.6201,3.6201,3.6201,3.6201,3.6201,3.6201,3.6201,3.6201,3.6201,2.8934,3.0315,3.1453,3.13,3.1376,3.1453,3.1453,3.2842,3.3844,3.3995,3.5288,3.6201,3.6201,3.6201,3.6201,3.6201,3.6201,3.6201,3.6201,3.6201,3.6201,3.6201,3.6201,3.6201,3.6201,3.6201,3.6201,3.6201,3.6201,3.6201,3.6201,3.6201,3.6201,3.6201,3.6201,3.6201,3.6201,3.6201,3.6201,3.6201,3.6201,3.6201,3.6201,3.6201,3.6201,3.6256,3.6677,3.6842,3.6952,3.7704,3.7979,3.8053,3.8456,3.8603,3.8524,3.856,3.856,3.856,3.856,3.856,3.856,3.856,3.856,3.856,3.856,3.856,3.856,3.856,3.856,3.856,3.856,3.856,3.856,3.856,0.0,0.0,3.856,3.856,3.856,3.856,3.856,3.8414,3.8089,3.8053,3.7888,3.7448,3.7081,3.6861,3.6787,3.6421,3.6201,3.6201,3.6201,3.6201,3.6201,3.6201,3.6201,3.6201,3.6201,3.6201,3.6201,3.6201,3.6201,3.6201,3.6201,3.6201,3.6201,3.6201,3.6201,3.6201,3.6201,3.6201,3.6201,3.6201,3.6201,3.6201,2.8934,3.0238,3.0993,3.0006,3.0608,3.13,3.13,3.275,3.4145,3.5139,3.5829,3.6201,3.6201,3.6201,3.6201,3.6201,3.6201,3.6201,3.6201,3.6201,3.6201,3.6201,3.6201,3.6201,3.6201,3.6201,3.6201,3.6201,3.6201,3.6201,3.6201,3.6201,3.6201,3.6201,3.6201,3.6201,3.6201,3.6201,3.6201,3.6201,3.6201,3.6201,3.6201,3.6201,3.6366,3.6641,3.7062,3.7356,3.7649,3.8218,3.8401,3.8438,3.8505,3.856,3.856,3.856,3.856,3.856,3.856,3.856,3.856,3.856,3.856,3.856,3.856,3.856,3.856,3.856,3.856,3.856,3.856,3.856,3.856,3.856,0.0,3.856,3.856,3.856,3.8548,3.8291,3.8255,3.8089,3.7686,3.7649,3.7484,3.7081,3.6916,3.6714,3.6457,3.6292,3.6201,3.6201,3.6201,3.6201,3.6201,3.6201,3.6201,3.6201,3.6201,3.6201,3.6201,3.6201,3.6201,3.6201,3.6201,3.6201,3.6201,3.6201,3.6201,3.6201,3.6201,3.6201,3.6201,3.6201,3.6201,3.6201,2.809,2.8997,2.9619,2.9012,3.0238,3.1453,3.1988,3.3524,3.4989,3.6052,3.6201,3.6201,3.6201,3.6201,3.6201,3.6201,3.6201,3.6201,3.6201,3.6201,3.6201,3.6201,3.6201,3.6201,3.6201,3.6201,3.6201,3.6201,3.6201,3.6201,3.6201,3.6201,3.6201,3.6201,3.6201,3.6201,3.6201,3.6201,3.6201,3.6201,3.6201,3.6201,3.6201,3.6201,3.6476,3.6822,3.7283,3.7686,3.8071,3.8414,3.856,3.856,3.856,3.856,3.856,3.856,3.856,3.856,3.856,3.856,3.856,3.856,3.856,3.856,3.856,3.856,3.856,3.856,3.856,3.856,3.856,3.856,3.856,3.856,3.856,3.8603,3.8456,3.8438,3.8291,3.7888,3.7833,3.7668,3.7283,3.7246,3.7081,3.6677,3.6641,3.6512,3.6219,3.6201,3.6201,3.6201,3.6201,3.6275,3.6367,3.6275,3.6201,3.6201,3.6201,3.6201,3.6201,3.6349,3.6367,3.6442,3.6516,3.659,3.659,3.659,3.659,3.659,3.659,3.659,3.659,3.659,3.659,3.659,2.6386,2.6386,2.6925,2.8622,3.0222,3.1835,3.3524,3.5139,3.6201,3.6201,3.6201,3.6201,3.6201,3.6201,3.6201,3.6201,3.6201,3.6201,3.6201,3.6201,3.6201,3.6201,3.6201,3.6201,3.6201,3.6201,3.6201,3.6201,3.6201,3.6201,3.6201,3.6201,3.6201,3.6201,3.6201,3.6201,3.6201,3.6201,3.6201,3.6201,3.6201,3.6201,3.6201,3.6219,3.6476,3.6897,3.7283,3.7686,3.8089,3.8511,3.856,3.856,3.856,3.856,3.856,3.856,3.856,3.856,3.856,3.856,3.856,3.856,3.856,3.856,3.856,3.856,3.856,3.856,3.856,3.856,3.856,3.856,3.856,3.864,3.864,3.8414,3.8071,3.8016,3.7869,3.7466,3.7429,3.7264,3.6785,3.6824,3.6659,3.6237,3.6201,3.6201,3.6201,3.6201,3.6201,3.6201,3.6201,3.6442,3.6812,3.6442,3.6201,3.6201,3.6201,3.6201,3.6201,3.659,3.6812,3.6812,3.7255,3.7421,3.7421,3.7421,3.7421,3.7421,3.7421,3.7421,3.7421,3.7421,3.7421,3.7329,2.6386,2.6386,2.6544,2.7083,2.9464,3.1453,3.1988,3.4446,3.6201,3.6201,3.6201,3.6201,3.6201,3.6201,3.6201,3.6201,3.6201,3.6201,3.6201,3.6201,3.6201,3.6201,3.6201,3.6201,3.6201,3.6201,3.6201,3.6201,3.6201,3.6201,3.6201,3.6201,3.6201,3.6201,3.6201,3.6201,3.6201,3.6201,3.6201,3.6201,3.6201,3.6201,3.6237,3.6531,3.6897,3.7301,3.7704,3.8108,3.8475,3.8524,3.856,3.856,3.856,3.856,3.856,3.856,3.856,3.856,3.856,3.856,3.856,3.856,3.856,3.856,3.856,3.856,3.856,3.856,3.856,3.856,3.856,3.856,3.8548,3.8255,3.8199,3.8053,3.7649,3.7594,3.7448,3.7062,3.7007,3.6842,3.6439,3.6402,3.6347,3.6219,3.6201,3.6201,3.6201,3.6201,3.6367,3.659,3.659,3.6812,3.7181,3.6812,3.6738,3.7034,3.7034,3.7034,3.7034,3.7181,3.7181,3.7255,3.7347,3.7421,3.7421,3.7421,3.7421,3.7421,3.7421,3.7421,3.7421,3.7421,3.7421,3.7402,2.6386,2.6925,2.7619,2.8232,3.0531,3.2522,3.3129,3.4896,3.6201,3.6201,3.6201,3.6201,3.6201,3.6201,3.6201,3.6201,3.6201,3.6201,3.6201,3.6201,3.6201,3.6201,3.6201,3.6201,3.6201,3.6201,3.6201,3.6201,3.6201,3.6201,3.6201,3.6201,3.6201,3.6201,3.6201,3.6201,3.6201,3.6201,3.6201,3.6201,3.6201,3.6201,3.6256,3.6677,3.7081,3.7484,3.7869,3.8291,3.856,3.856,3.856,3.856,3.856,3.856,3.856,3.856,3.856,3.856,3.856,3.856,3.856,3.856,3.856,3.856,3.856,3.856,3.856,3.856,3.856,3.8505,3.842,3.8401,3.8255,3.7851,3.7778,3.7649,3.7246,3.7191,3.7044,3.6641,3.6586,3.6494,3.6237,3.6201,3.6201,3.6201,3.6201,3.6201,3.6201,3.6349,3.659,3.6812,3.696,3.7255,3.7642,3.7421,3.7329,3.7421,3.7421,3.7421,3.7421,3.7568,3.7642,3.7642,3.777,3.7843,3.7843,3.7843,3.7843,3.7843,3.7843,3.7843,3.7843,3.7843,3.7843,3.7843,2.6386,2.7776,2.9386,3.0839,3.2598,3.4296,3.5754,3.6126,3.6201,3.6201,3.6201,3.6201,3.6201,3.6201,3.6201,3.6201,3.6201,3.6201,3.6201,3.6201,3.6201,3.6201,3.6201,3.6201,3.6201,3.6201,3.6201,3.6201,3.6201,3.6201,3.6201,3.6201,3.6201,3.6201,3.6201,3.6201,3.6201,3.6201,3.6201,3.6201,3.6201,3.6237,3.6311,3.6732,3.7136,3.7539,3.7924,3.831,3.856,3.856,3.856,3.856,3.856,3.856,3.856,3.856,3.856,3.856,3.856,3.856,3.856,3.856,3.8542,3.8603,3.856,3.856,3.856,3.8524,3.8585,3.8456,3.8034,3.7961,3.7833,3.7429,3.7374,3.7228,3.6842,3.6787,3.6641,3.6256,3.6201,3.6201,3.6201,3.6201,3.6201,3.6201,3.6201,3.6201,3.6275,3.659,3.6812,3.6886,3.7255,3.7642,3.8009,3.8082,3.7862,3.7495,3.7495,3.7495,3.7476,3.7862,3.8082,3.8082,3.8428,3.8574,3.8574,3.8574,3.8574,3.8574,3.8574,3.8574,3.8574,3.8574,3.8574,3.8574,2.6386,2.7776,2.9012,2.9386,3.1835,3.3919,3.4296,3.5363,3.6201,3.6201,3.6201,3.6201,3.6201,3.6201,3.6201,3.6201,3.6201,3.6201,3.6201,3.6201,3.6201,3.6201,3.6201,3.6201,3.6201,3.6201,3.6201,3.6201,3.6201,3.6201,3.6201,3.6201,3.6201,3.6201,3.6201,3.6201,3.6201,3.6201,3.6201,3.6201,3.6201,3.6402,3.6751,3.7154,3.7539,3.7943,3.8365,3.8566,3.856,3.856,3.856,3.856,3.856,3.856,3.856,3.856,3.856,3.856,3.856,3.856,3.856,3.856,3.8401,3.8236,3.8487,3.856,3.8548,3.8218,3.8144,3.8034,3.7631,3.7558,3.7429,3.7026,3.6971,3.6824,3.6402,3.6347,3.6311,3.6219,3.6201,3.6201,3.6201,3.6201,3.6201,3.6201,3.6201,3.6349,3.6664,3.6738,3.7107,3.7715,3.7789,3.8082,3.8428,3.8428,3.8428,3.8355,3.8355,3.8355,3.8355,3.8428,3.8428,3.8501,3.8574,3.8574,3.8574,3.8574,3.8574,3.8574,3.8574,3.8574,3.8574,3.8574,3.8574,3.8574,2.6386,2.8388,3.0006,3.0006,3.2766,3.4914,3.4914,3.568,3.6201,3.6201,3.6201,3.6201,3.6201,3.6201,3.6201,3.6201,3.6201,3.6201,3.6201,3.6201,3.6201,3.6201,3.6201,3.6201,3.6201,3.6201,3.6201,3.6201,3.6201,3.6201,3.6201,3.6201,3.6201,3.6201,3.6201,3.6201,3.6201,3.6201,3.6201,3.6219,3.6421,3.6641,3.6822,3.7484,3.7833,3.8071,3.8493,3.856,3.856,3.856,3.856,3.856,3.856,3.856,3.856,3.856,3.856,3.856,3.856,3.8493,3.8346,3.8346,3.8034,3.7833,3.8255,3.8199,3.7998,3.7778,3.7741,3.7613,3.7209,3.7154,3.7007,3.6604,3.6531,3.6457,3.6237,3.6201,3.6201,3.6201,3.6201,3.6201,3.6201,3.6201,3.6201,3.6201,3.6349,3.659,3.6812,3.7181,3.7568,3.8009,3.8155,3.8355,3.8574,3.8574,3.8574,3.8574,3.8574,3.8574,3.8574,3.8574,3.8574,3.8574,3.8574,3.8574,3.8574,3.8574,3.8574,3.8574,3.8574,3.8574,3.8574,3.8574,3.8574,3.8574,2.6781,2.9231,3.1376,3.1683,3.4221,3.6201,3.6201,3.6201,3.6201,3.6201,3.6201,3.6201,3.6201,3.6201,3.6201,3.6201,3.6201,3.6201,3.6201,3.6201,3.6201,3.6201,3.6201,3.6201,3.6201,3.6201,3.6201,3.6201,3.6201,3.6201,3.6201,3.6201,3.6201,3.6201,3.6201,3.6201,3.6201,3.6201,3.6256,3.6347,3.6696,3.6916,3.7118,3.7759,3.8053,3.8163,3.8511,3.856,3.856,3.856,3.856,3.856,3.856,3.856,3.856,3.856,3.8505,3.853,3.853,3.8236,3.7906,3.7906,3.7613,3.7411,3.7741,3.7613,3.7411,3.7338,3.7319,3.7209,3.6806,3.6732,3.6622,3.6256,3.6201,3.6201,3.6201,3.6201,3.6201,3.6201,3.6201,3.6201,3.6201,3.6275,3.6275,3.6275,3.6664,3.696,3.7034,3.7642,3.8009,3.8082,3.8448,3.8574,3.8574,3.8574,3.8574,3.8574,3.8574,3.8574,3.8574,3.8574,3.8574,3.8574,3.8574,3.8574,3.8574,3.8574,3.8574,3.8574,3.8574,3.8574,3.8574,3.8574,3.8574,3.8574,2.831,3.0083,3.1759,3.3222,3.4989,3.6201,3.6201,3.6201,3.6201,3.6201,3.6201,3.6201,3.6201,3.6201,3.6201,3.6201,3.6201,3.6201,3.6201,3.6201,3.6201,3.6201,3.6201,3.6201,3.6201,3.6201,3.6201,3.6201,3.6201,3.6201,3.6201,3.6201,3.6201,3.6201,3.6201,3.6201,3.6201,3.6201,3.6421,3.6751,3.6824,3.7246,3.7869,3.7979,3.8236,3.8566,3.8542,3.856,3.856,3.856,3.856,3.856,3.856,3.856,3.856,3.856,3.8383,3.8089,3.8089,3.7814,3.7503,3.7503,3.7209,3.6934,3.6989,3.7209,3.7338,3.6989,3.6916,3.6787,3.6366,3.6292,3.6274,3.6219,3.6201,3.6201,3.6201,3.6201,3.6201,3.6201,3.6201,3.6201,3.6201,3.6497,3.6738,3.6738,3.7107,3.7476,3.7789,3.7936,3.8155,3.8501,3.8574,3.8574,3.8574,3.8574,3.8574,3.8574,3.8574,3.8574,3.8574,3.8574,3.8574,3.8574,3.8574,3.8574,3.8574,3.8574,3.8574,3.8574,3.8574,3.8574,3.8574,3.8574,3.8574,3.8574,2.8778,3.0916,3.2918,3.3676,3.5139,3.6201,3.6201,3.6201,3.6201,3.6201,3.6201,3.6201,3.6201,3.6201,3.6201,3.6201,3.6201,3.6201,3.6201,3.6201,3.6201,3.6201,3.6201,3.6201,3.6201,3.6201,3.6201,3.6201,3.6201,3.6201,3.6201,3.6201,3.6201,3.6201,3.6201,3.6201,3.6201,3.6201,3.6457,3.6785,3.7081,3.7503,3.8034,3.8273,3.8475,3.856,3.856,3.856,3.856,3.856,3.856,3.856,3.856,3.8475,3.8291,3.8291,3.7998,3.7686,3.7686,3.7393,3.7099,3.7099,3.6787,3.6476,3.6476,3.6622,3.6696,3.6531,3.6476,3.6421,3.6237,3.6201,3.6201,3.6201,3.6201,3.6201,3.6201,3.6201,3.6201,3.6201,3.6201,3.6293,3.6497,3.6738,3.6886,3.7107,3.7495,3.7789,3.8009,3.8228,3.8428,3.8574,3.8574,3.8574,3.8574,3.8574,3.8574,3.8574,3.8574,3.8574,3.8574,3.8574,3.8574,3.8574,3.8574,3.8574,3.8574,3.8574,3.8574,3.8574,3.8574,3.8574,3.8574,3.8574,3.8574,3.8574]}]]